[[{"header":{"parameterUnit":"m.s-1","parameterCategory":1,"la1":30.6,"la2":28.766,"lo1":-90.7593,"lo2":-88.6598,"dy":0.0162,"dx":0.0183,"nx":116,"ny":114,"refTime":"2023-06-25T12:00:00:Z","depth":0,"parameterNumber":2,"parameterNumberName":"U-component_of_WINDS"},"data":[0.0,0.0,0.0,0.0,0.0,0.0,0.0,0.0,0.0,0.0,0.0,0.0,0.0,0.0,0.0,0.0,0.0,0.0,0.0,0.0,0.0,0.0,0.0,0.0,0.0,0.0,0.0,0.0,0.0,0.0,0.0,0.0,0.0,0.0,0.0,0.0,0.0,0.0,0.0,0.0,0.0,0.0,0.0,0.0,0.0,0.0,0.0,0.0,0.0,0.0,0.0,0.0,0.0,0.0,0.0,0.0,0.0,0.0,0.0,0.0,0.0,0.0,0.0,0.0,0.0,0.0,0.0,0.0,0.0,0.0,0.0,0.0,0.0,0.0,0.0,0.0,0.0,0.0,0.0,0.0,0.0,0.0,0.0,0.0,0.0,0.0,0.0,0.0,0.0,0.0,0.0,0.0,0.0,0.0,0.0,0.0,0.0,0.0,0.0,0.0,0.0,0.0,0.0,0.0,0.0,0.0,0.0,0.0,0.0,0.0,0.0,0.0,0.0,0.0,0.0,0.0,0.0,0.0,0.0,0.0,0.0,0.0,0.0,0.0,0.0,0.0,0.0,0.0,0.0,0.0,0.0,0.0,0.0,0.0,0.0,0.0,0.0,0.0,0.0,0.0,0.0,0.0,0.0,0.0,0.0,0.0,0.0,0.0,0.0,0.0,0.0,0.0,0.0,0.0,0.0,0.0,0.0,0.0,0.0,0.0,0.0,0.0,0.0,0.0,0.0,0.0,0.0,0.0,0.0,0.0,0.0,0.0,0.0,0.0,0.0,0.0,0.0,0.0,0.0,0.0,0.0,0.0,0.0,0.0,0.0,0.0,0.0,0.0,0.0,0.0,0.0,0.0,0.0,0.0,0.0,0.0,0.0,0.0,0.0,0.0,0.0,0.0,0.0,0.0,0.0,0.0,0.0,0.0,0.0,0.0,0.0,0.0,0.0,0.0,0.0,0.0,0.0,0.0,0.0,0.0,0.0,0.0,0.0,0.0,0.0,0.0,0.0,0.0,0.0,0.0,0.0,0.0,0.0,0.0,0.0,0.0,0.0,0.0,0.0,0.0,0.0,0.0,0.0,0.0,0.0,0.0,0.0,0.0,0.0,0.0,0.0,0.0,0.0,0.0,0.0,0.0,0.0,0.0,0.0,0.0,0.0,0.0,0.0,0.0,0.0,0.0,0.0,0.0,0.0,0.0,0.0,0.0,0.0,0.0,0.0,0.0,0.0,0.0,0.0,0.0,0.0,0.0,0.0,0.0,0.0,0.0,0.0,0.0,0.0,0.0,0.0,0.0,0.0,0.0,0.0,0.0,0.0,0.0,0.0,0.0,0.0,0.0,0.0,0.0,0.0,0.0,0.0,0.0,0.0,0.0,0.0,0.0,0.0,0.0,0.0,0.0,0.0,0.0,0.0,0.0,0.0,0.0,0.0,0.0,0.0,0.0,0.0,0.0,0.0,0.0,0.0,0.0,0.0,0.0,0.0,0.0,0.0,0.0,0.0,0.0,0.0,0.0,0.0,0.0,0.0,0.0,0.0,0.0,0.0,0.0,0.0,0.0,0.0,0.0,0.0,0.0,0.0,0.0,0.0,0.0,0.0,0.0,0.0,0.0,0.0,0.0,0.0,0.0,0.0,0.0,0.0,0.0,0.0,0.0,0.0,0.0,0.0,0.0,0.0,0.0,0.0,0.0,0.0,0.0,0.0,0.0,0.0,0.0,0.0,0.0,0.0,0.0,0.0,0.0,0.0,0.0,0.0,0.0,0.0,0.0,0.0,0.0,0.0,0.0,0.0,0.0,0.0,0.0,0.0,0.0,0.0,0.0,0.0,0.0,0.0,0.0,0.0,0.0,0.0,0.0,0.0,0.0,0.0,0.0,0.0,0.0,0.0,0.0,0.0,0.0,0.0,0.0,0.0,0.0,0.0,0.0,0.0,0.0,0.0,0.0,0.0,0.0,0.0,0.0,0.0,0.0,0.0,0.0,0.0,0.0,0.0,0.0,0.0,0.0,0.0,0.0,0.0,0.0,0.0,0.0,0.0,0.0,0.0,0.0,0.0,0.0,0.0,0.0,0.0,0.0,0.0,0.0,0.0,0.0,0.0,0.0,0.0,0.0,0.0,0.0,0.0,0.0,0.0,0.0,0.0,0.0,0.0,0.0,0.0,0.0,0.0,0.0,0.0,0.0,0.0,0.0,0.0,0.0,0.0,0.0,0.0,0.0,0.0,0.0,0.0,0.0,0.0,0.0,0.0,0.0,0.0,0.0,0.0,0.0,0.0,0.0,0.0,0.0,0.0,0.0,0.0,0.0,0.0,0.0,0.0,0.0,0.0,0.0,0.0,0.0,0.0,0.0,0.0,0.0,0.0,0.0,0.0,0.0,0.0,0.0,0.0,0.0,0.0,0.0,0.0,0.0,0.0,0.0,0.0,0.0,0.0,0.0,0.0,0.0,0.0,0.0,0.0,0.0,0.0,0.0,0.0,0.0,0.0,0.0,0.0,0.0,0.0,0.0,0.0,0.0,0.0,0.0,0.0,0.0,0.0,0.0,0.0,0.0,0.0,0.0,0.0,0.0,0.0,0.0,0.0,0.0,0.0,0.0,0.0,0.0,0.0,0.0,0.0,0.0,0.0,0.0,0.0,0.0,0.0,0.0,0.0,0.0,0.0,0.0,0.0,0.0,0.0,0.0,0.0,0.0,0.0,0.0,0.0,0.0,0.0,0.0,0.0,0.0,0.0,0.0,0.0,0.0,0.0,0.0,0.0,0.0,0.0,0.0,0.0,0.0,0.0,0.0,0.0,0.0,0.0,0.0,0.0,0.0,0.0,0.0,0.0,0.0,0.0,0.0,0.0,0.0,0.0,0.0,0.0,0.0,0.0,0.0,0.0,0.0,0.0,0.0,0.0,0.0,0.0,0.0,0.0,0.0,0.0,0.0,0.0,0.0,0.0,0.0,0.0,0.0,0.0,0.0,0.0,0.0,0.0,0.0,0.0,0.0,0.0,0.0,0.0,0.0,0.0,0.0,0.0,0.0,0.0,0.0,0.0,0.0,0.0,0.0,0.0,0.0,0.0,0.0,0.0,0.0,0.0,0.0,0.0,0.0,0.0,0.0,0.0,0.0,0.0,0.0,0.0,0.0,0.0,0.0,0.0,0.0,0.0,0.0,0.0,0.0,0.0,0.0,0.0,0.0,0.0,0.0,0.0,0.0,0.0,0.0,0.0,0.0,0.0,0.0,0.0,0.0,0.0,0.0,0.0,0.0,0.0,0.0,0.0,0.0,0.0,0.0,0.0,0.0,0.0,0.0,0.0,0.0,0.0,0.0,0.0,0.0,0.0,0.0,0.0,0.0,0.0,0.0,0.0,0.0,0.0,0.0,0.0,0.0,0.0,0.0,0.0,0.0,0.0,0.0,0.0,0.0,0.0,0.0,0.0,0.0,0.0,0.0,0.0,0.0,0.0,0.0,0.0,0.0,0.0,0.0,0.0,0.0,0.0,0.0,0.0,0.0,0.0,0.0,0.0,0.0,0.0,0.0,0.0,0.0,0.0,0.0,0.0,0.0,0.0,0.0,0.0,0.0,0.0,0.0,0.0,0.0,0.0,0.0,0.0,0.0,0.0,0.0,0.0,0.0,0.0,0.0,0.0,0.0,0.0,0.0,0.0,0.0,0.0,0.0,0.0,0.0,0.0,0.0,0.0,0.0,0.0,0.0,0.0,0.0,0.0,0.0,0.0,0.0,0.0,0.0,0.0,0.0,0.0,0.0,0.0,0.0,0.0,0.0,0.0,0.0,0.0,0.0,0.0,0.0,0.0,0.0,0.0,0.0,0.0,0.0,0.0,0.0,0.0,0.0,0.0,0.0,0.0,0.0,0.0,0.0,0.0,0.0,0.0,0.0,0.0,0.0,0.0,0.0,0.0,0.0,0.0,0.0,0.0,0.0,0.0,0.0,0.0,0.0,0.0,0.0,0.0,0.0,0.0,0.0,0.0,0.0,0.0,0.0,0.0,0.0,0.0,0.0,0.0,0.0,0.0,0.0,0.0,0.0,0.0,0.0,0.0,0.0,0.0,0.0,0.0,0.0,0.0,0.0,0.0,0.0,0.0,0.0,0.0,0.0,0.0,0.0,0.0,0.0,0.0,0.0,0.0,0.0,0.0,0.0,0.0,0.0,0.0,0.0,0.0,0.0,0.0,0.0,0.0,0.0,0.0,0.0,0.0,0.0,0.0,0.0,0.0,0.0,0.0,0.0,0.0,0.0,0.0,0.0,0.0,0.0,0.0,0.0,0.0,0.0,0.0,0.0,0.0,0.0,0.0,0.0,0.0,0.0,0.0,0.0,0.0,0.0,0.0,0.0,0.0,0.0,0.0,0.0,0.0,0.0,0.0,0.0,0.0,0.0,0.0,0.0,0.0,0.0,0.0,0.0,0.0,0.0,0.0,0.0,0.0,0.0,0.0,0.0,0.0,0.0,0.0,0.0,0.0,0.0,0.0,0.0,0.0,0.0,0.0,0.0,0.0,0.0,0.0,0.0,0.0,0.0,0.0,0.0,0.0,0.0,0.0,0.0,0.0,0.0,0.0,0.0,0.0,0.0,0.0,0.0,0.0,0.0,0.0,0.0,0.0,0.0,0.0,0.0,0.0,0.0,0.0,0.0,0.0,0.0,0.0,0.0,0.0,0.0,0.0,0.0,0.0,0.0,0.0,0.0,0.0,0.0,0.0,0.0,0.0,0.0,0.0,0.0,0.0,0.0,0.0,0.0,0.0,0.0,0.0,0.0,0.0,0.0,0.0,0.0,0.0,0.0,0.0,0.0,0.0,0.0,0.0,0.0,0.0,0.0,0.0,0.0,0.0,0.0,0.0,0.0,0.0,0.0,0.0,0.0,0.0,0.0,0.0,0.0,0.0,0.0,0.0,0.0,0.0,0.0,0.0,0.0,0.0,0.0,0.0,0.0,0.0,0.0,0.0,0.0,0.0,0.0,0.0,0.0,0.0,0.0,0.0,0.0,0.0,0.0,0.0,0.0,0.0,0.0,0.0,0.0,0.0,0.0,0.0,0.0,0.0,0.0,0.0,0.0,0.0,0.0,0.0,0.0,0.0,0.0,0.0,0.0,0.0,0.0,0.0,0.0,0.0,0.0,0.0,0.0,0.0,0.0,0.0,0.0,0.0,0.0,0.0,0.0,0.0,0.0,0.0,0.0,0.0,0.0,0.0,0.0,0.0,0.0,0.0,0.0,0.0,0.0,0.0,0.0,0.0,0.0,0.0,0.0,0.0,0.0,0.0,0.0,0.0,0.0,0.0,0.0,0.0,0.0,0.0,0.0,0.0,0.0,0.0,0.0,0.0,0.0,0.0,0.0,0.0,0.0,0.0,0.0,0.0,0.0,0.0,0.0,0.0,0.0,0.0,0.0,0.0,0.0,0.0,0.0,0.0,0.0,0.0,0.0,0.0,0.0,0.0,0.0,0.0,0.0,0.0,0.0,0.0,0.0,0.0,0.0,0.0,0.0,0.0,0.0,0.0,0.0,0.0,0.0,0.0,0.0,0.0,0.0,0.0,0.0,0.0,0.0,0.0,0.0,0.0,0.0,0.0,0.0,0.0,0.0,0.0,0.0,0.0,0.0,0.0,0.0,0.0,0.0,0.0,0.0,0.0,0.0,0.0,0.0,0.0,0.0,0.0,0.0,0.0,0.0,0.0,0.0,0.0,0.0,0.0,0.0,0.0,0.0,0.0,0.0,0.0,0.0,0.0,0.0,0.0,0.0,0.0,0.0,0.0,0.0,0.0,0.0,0.0,0.0,0.0,0.0,0.0,0.0,0.0,0.0,0.0,0.0,0.0,0.0,0.0,0.0,0.0,0.0,0.0,0.0,0.0,0.0,0.0,0.0,0.0,0.0,0.0,0.0,0.0,0.0,0.0,0.0,0.0,0.0,0.0,0.0,0.0,0.0,0.0,0.0,0.0,0.0,0.0,0.0,0.0,0.0,0.0,0.0,0.0,0.0,0.0,0.0,0.0,0.0,0.0,0.0,0.0,0.0,0.0,0.0,0.0,0.0,0.0,0.0,0.0,0.0,0.0,0.0,0.0,0.0,-0.6034,-0.6051,0.0,0.0,0.0,0.0,0.0,0.0,0.0,0.0,0.0,0.0,0.0,0.0,0.0,0.0,0.0,0.0,0.0,0.0,0.0,0.0,0.0,0.0,0.0,0.0,0.0,0.0,0.0,0.0,0.0,0.0,0.0,0.0,0.0,0.0,0.0,0.0,0.0,0.0,0.0,0.0,0.0,0.0,0.0,0.0,0.0,0.0,0.0,0.0,0.0,0.0,0.0,0.0,0.0,0.0,0.0,0.0,0.0,0.0,0.0,0.0,0.0,0.0,0.0,0.0,0.0,0.0,0.0,0.0,0.0,0.0,0.0,0.0,0.0,0.0,0.0,0.0,0.0,0.0,0.0,0.0,0.0,0.0,0.0,0.0,0.0,0.0,0.0,0.0,0.0,0.0,0.0,0.0,0.0,0.0,0.0,0.0,0.0,0.0,0.0,0.0,0.0,0.0,0.0,0.0,0.0,0.0,0.0,0.0,0.0,0.0,0.0,0.0,0.0,0.0,-0.6176,-0.6186,0.0,0.0,0.0,0.0,0.0,0.0,0.0,0.0,0.0,0.0,0.0,0.0,0.0,0.0,0.0,0.0,0.0,0.0,0.0,0.0,0.0,0.0,0.0,0.0,0.0,0.0,0.0,0.0,0.0,0.0,0.0,0.0,0.0,0.0,0.0,0.0,0.0,0.0,0.0,0.0,0.0,0.0,0.0,0.0,0.0,0.0,0.0,0.0,0.0,0.0,0.0,0.0,0.0,0.0,0.0,0.0,0.0,0.0,0.0,0.0,0.0,0.0,0.0,0.0,0.0,0.0,0.0,0.0,0.0,0.0,0.0,0.0,0.0,0.0,0.0,0.0,0.0,0.0,0.0,0.0,0.0,0.0,0.0,0.0,0.0,0.0,0.0,0.0,0.0,0.0,0.0,0.0,0.0,0.0,0.0,0.0,0.0,0.0,0.0,0.0,0.0,0.0,0.0,0.0,0.0,0.0,0.0,0.0,-0.6758,-0.6312,-0.6339,-0.6339,-0.6339,-0.6339,-0.6339,-0.6308,-0.6338,-0.6338,0.0,0.0,0.0,0.0,0.0,0.0,0.0,0.0,0.0,0.0,0.0,0.0,0.0,0.0,0.0,0.0,0.0,0.0,0.0,0.0,0.0,0.0,0.0,0.0,0.0,0.0,0.0,0.0,0.0,0.0,0.0,0.0,0.0,0.0,0.0,0.0,0.0,0.0,-0.7035,-0.7035,-0.7194,-0.7421,0.0,0.0,0.0,0.0,0.0,0.0,0.0,0.0,0.0,0.0,0.0,0.0,0.0,0.0,0.0,0.0,0.0,0.0,0.0,0.0,0.0,0.0,0.0,0.0,0.0,0.0,0.0,0.0,0.0,0.0,0.0,0.0,0.0,0.0,0.0,0.0,0.0,0.0,0.0,0.0,0.0,0.0,0.0,0.0,-0.6054,-0.5983,0.0,0.0,0.0,0.0,0.0,0.0,0.0,0.0,0.0,0.0,0.0,0.0,0.0,-0.7516,-0.6608,-0.6556,-0.6553,-0.6679,-0.6524,-0.6515,-0.6641,-0.6641,-0.6641,-0.6641,-0.6641,0.0,-0.6338,-0.6338,0.0,0.0,0.0,0.0,0.0,0.0,0.0,0.0,0.0,0.0,0.0,0.0,0.0,0.0,0.0,0.0,0.0,0.0,0.0,0.0,0.0,0.0,0.0,0.0,0.0,0.0,0.0,0.0,0.0,0.0,0.0,0.0,0.0,0.0,0.0,0.0,-0.7212,-0.6639,-0.6261,-0.6261,-0.6298,-0.6369,-0.6817,-0.7473,-0.8413,-0.9483,0.0,0.0,0.0,0.0,0.0,0.0,0.0,0.0,0.0,0.0,0.0,0.0,0.0,0.0,0.0,0.0,0.0,0.0,0.0,0.0,0.0,0.0,0.0,0.0,0.0,0.0,0.0,0.0,0.0,0.0,0.0,0.0,0.0,0.0,0.0,0.0,0.0,0.0,0.0,-0.5817,-0.5833,-0.5918,-0.5854,-0.6046,0.0,0.0,0.0,0.0,0.0,0.0,0.0,0.0,0.0,-0.7074,-0.7077,-0.6889,-0.6508,-0.6508,-0.6539,-0.66,-0.66,-0.6634,-0.6705,-0.679,-0.6827,-0.6834,-0.6912,-0.6875,-0.6742,-0.6576,-0.6508,-0.6508,0.0,0.0,0.0,0.0,-0.6508,-0.6508,0.0,0.0,0.0,0.0,0.0,0.0,0.0,0.0,0.0,0.0,0.0,0.0,0.0,0.0,0.0,-1.0207,0.0,0.0,0.0,0.0,0.0,0.0,0.0,0.0,0.0,0.0,0.0,0.0,-0.7142,-0.6756,-0.6216,-0.6216,-0.6096,-0.5922,-0.6037,-0.6733,-0.7851,-0.8903,-0.9362,0.0,0.0,0.0,0.0,0.0,0.0,0.0,0.0,0.0,0.0,0.0,0.0,0.0,0.0,0.0,0.0,0.0,0.0,0.0,0.0,0.0,0.0,0.0,0.0,0.0,0.0,0.0,0.0,0.0,0.0,0.0,0.0,0.0,0.0,0.0,0.0,0.0,0.0,-0.5966,-0.5962,-0.6074,-0.5989,-0.6254,0.0,0.0,0.0,0.0,0.0,0.0,-0.6315,-0.6352,-0.642,-0.6525,-0.6529,-0.6603,-0.6756,-0.6759,-0.6797,-0.6871,-0.6871,-0.6892,-0.6936,-0.7048,-0.7099,-0.7109,-0.7214,-0.7258,-0.7234,-0.6936,-0.6814,-0.6814,-0.6814,-0.6814,-0.6814,-0.6814,-0.6814,-0.6814,0.0,0.0,0.0,0.0,0.0,0.0,0.0,0.0,0.0,0.0,0.0,0.0,0.0,0.0,-1.0584,-1.0598,-1.0598,-1.0611,0.0,0.0,0.0,0.0,0.0,0.0,0.0,0.0,0.0,-0.8539,-0.769,-0.7292,-0.7405,-0.7405,-0.6986,-0.6237,-0.6247,-0.6239,-0.6176,-0.7378,-0.7905,-0.8053,0.0,0.0,0.0,0.0,0.0,0.0,0.0,0.0,0.0,0.0,0.0,0.0,0.0,0.0,0.0,0.0,0.0,0.0,0.0,0.0,0.0,0.0,0.0,0.0,0.0,0.0,0.0,0.0,0.0,0.0,0.0,0.0,0.0,0.0,0.0,0.0,0.0,0.0,0.0,-0.6247,-0.6244,0.0,0.0,0.0,0.0,-0.6338,-0.6465,-0.6461,-0.6461,-0.66,-0.6681,-0.6688,-0.6688,-0.6763,-0.6915,-0.6915,-0.7058,-0.7339,-0.7339,-0.7414,-0.7553,-0.7563,-0.7567,-0.7567,-0.7573,-0.7577,-0.7553,-0.7244,-0.7115,-0.7115,-0.7115,-0.7115,-0.7115,-0.7115,-0.7115,-0.7115,0.0,0.0,0.0,0.0,0.0,0.0,0.0,0.0,0.0,0.0,0.0,0.0,0.0,-1.0624,-1.0624,-1.0624,-1.0624,-1.0624,-1.0624,0.0,0.0,0.0,0.0,0.0,0.0,0.0,-0.9048,-0.7902,-0.7612,-0.72,-0.6703,-0.6703,-0.6587,-0.6338,-0.6338,-0.6608,-0.7159,-0.76,-0.8161,-0.8917,-1.026,-1.1168,0.0,0.0,0.0,0.0,0.0,0.0,0.0,0.0,0.0,0.0,0.0,0.0,0.0,0.0,0.0,0.0,0.0,0.0,0.0,0.0,0.0,0.0,0.0,0.0,0.0,0.0,0.0,0.0,0.0,0.0,0.0,0.0,0.0,0.0,0.0,0.0,0.0,-0.6338,-0.6338,0.0,-0.6386,-0.6396,-0.6437,-0.6536,-0.659,-0.6661,-0.6759,-0.6817,-0.6936,-0.7126,-0.7132,-0.7204,-0.736,-0.736,-0.7414,-0.7519,-0.7519,-0.7546,-0.7604,-0.7695,-0.7736,-0.774,-0.7841,-0.7882,-0.7875,-0.7763,-0.7607,-0.7434,-0.7434,-0.7434,-0.7434,-0.7434,-0.7434,-0.7434,0.0,0.0,0.0,0.0,0.0,0.0,0.0,0.0,0.0,0.0,0.0,-1.0624,-1.0624,-1.0624,-1.0624,-1.0624,-1.0624,-1.0624,-1.0624,0.0,0.0,0.0,0.0,0.0,0.0,-0.9959,-0.9285,-0.811,-0.7737,-0.7358,-0.6795,-0.6795,-0.6795,-0.6795,-0.6795,-0.7326,-0.8313,-0.8313,-0.8689,-0.9372,-1.0415,-1.1236,-1.1848,0.0,0.0,0.0,0.0,0.0,0.0,0.0,0.0,0.0,0.0,0.0,0.0,0.0,0.0,0.0,0.0,0.0,0.0,0.0,0.0,0.0,0.0,0.0,0.0,0.0,0.0,0.0,0.0,0.0,0.0,0.0,0.0,0.0,0.0,-0.6302,-0.6332,-0.6332,-0.6376,-0.6444,-0.6539,-0.6597,-0.6668,-0.677,-0.6871,-0.697,-0.7071,-0.7126,-0.7244,-0.7441,-0.7897,-0.7973,-0.7672,-0.8193,-0.825,-0.7828,-0.7875,-0.7899,-0.7899,-0.8481,-0.8821,-0.8825,-0.9334,-0.9384,-0.8884,-0.8884,-0.8468,-0.7889,-0.7787,-0.7746,-0.7746,-0.7746,-0.7746,-0.7746,0.0,0.0,0.0,0.0,0.0,0.0,0.0,0.0,0.0,0.0,-1.0624,-1.0624,-1.0624,-1.0624,-1.0624,-1.0624,-1.0624,-1.0624,-1.0624,-1.0631,0.0,0.0,0.0,0.0,-1.0413,-0.9776,-0.9372,-0.9296,-0.8389,-0.7859,-0.7859,-0.7859,-0.7859,-0.7859,-0.7859,-0.8389,-0.9372,-0.9372,-0.9372,-0.9448,-1.0415,-1.0783,-1.0938,0.0,0.0,0.0,0.0,0.0,0.0,0.0,0.0,0.0,0.0,0.0,0.0,0.0,0.0,0.0,0.0,0.0,0.0,0.0,0.0,0.0,0.0,0.0,0.0,0.0,0.0,0.0,0.0,0.0,0.0,0.0,0.0,0.0,-0.6268,-0.6386,-0.6474,-0.6478,-0.6614,-0.6709,-0.6715,-0.6854,-0.6946,-0.6949,-0.7214,-0.738,-0.7387,-0.7529,-0.7614,-0.7621,-0.8816,-0.8898,-0.7831,-0.9245,-0.9418,-0.8279,-0.8418,-0.8482,-0.8587,-1.0028,-1.0642,-1.0746,-1.2088,-1.1883,-1.0642,-1.0642,-0.9823,-0.8455,-0.8163,-0.8055,-0.8055,-0.8055,-0.8055,-0.8055,0.0,0.0,0.0,0.0,0.0,0.0,0.0,0.0,0.0,0.0,-1.0989,-1.0624,-1.0624,-1.0624,-1.0624,-1.0624,-1.0624,-1.0624,-1.0624,0.0,0.0,0.0,0.0,0.0,-1.0677,-1.1205,-1.0726,-0.9296,-0.9739,-0.9588,-0.8917,-0.8917,-0.8917,-0.8917,-0.8917,-0.9442,-1.0415,-1.0415,-1.0795,-1.1477,-1.1013,-1.1236,-1.1922,0.0,0.0,0.0,0.0,0.0,0.0,0.0,0.0,0.0,0.0,0.0,0.0,0.0,0.0,0.0,0.0,0.0,0.0,0.0,0.0,0.0,0.0,0.0,0.0,0.0,0.0,0.0,0.0,0.0,0.0,0.0,-0.6413,-0.6413,-0.6413,-0.6447,-0.6512,-0.6624,-0.6773,-0.6905,-0.701,-0.716,-0.7295,-0.7407,-0.7492,-0.7584,-0.7685,-0.7834,-0.797,-0.8082,-0.8581,-0.8656,-0.8296,-0.8745,-0.8791,-0.8425,-0.8462,-0.8482,-0.8587,-1.0028,-1.0132,-0.9205,-1.0647,-1.0439,-0.91,-0.91,-0.8895,-0.8472,-0.8391,-0.836,-0.836,-0.836,-0.836,-0.836,0.0,0.0,0.0,0.0,0.0,0.0,0.0,0.0,0.0,0.0,-1.0863,-1.0624,-1.0624,-1.0624,-1.0624,-1.0624,-1.0624,-1.0672,-1.0735,0.0,0.0,0.0,0.0,-1.1899,-1.1465,-1.162,-1.1093,-0.9895,-1.0115,-0.9895,-0.9301,-0.9392,-0.9433,-0.9356,-0.9529,-1.0108,-1.1106,-1.0918,-1.1489,-1.2478,-1.1745,-1.1768,-1.2305,-1.2305,-1.2305,-1.2224,-1.162,-1.1162,-1.0783,-1.0783,0.0,0.0,0.0,0.0,0.0,0.0,0.0,0.0,0.0,0.0,0.0,0.0,0.0,0.0,0.0,0.0,0.0,0.0,0.0,0.0,0.0,0.0,0.0,0.0,-0.662,-0.6685,-0.6742,-0.6753,-0.6787,-0.6875,-0.7078,-0.7244,-0.7322,-0.7468,-0.7594,-0.7682,-0.7807,-0.7916,-0.7997,-0.8143,-0.8265,-0.8357,-0.9569,-0.9924,-0.941,-1.0619,-1.0971,-1.0346,-1.0424,-1.0461,-1.0567,-1.2035,-1.224,-1.1507,-1.2975,-1.2765,-1.1406,-1.1406,-1.1089,-1.0343,0.0,0.0,0.0,0.0,-0.8482,-0.8482,0.0,0.0,0.0,0.0,0.0,0.0,0.0,0.0,0.0,0.0,0.0,-1.0624,-1.0624,-1.0624,-1.0624,-1.0624,-1.0624,-1.0759,0.0,0.0,0.0,-1.1917,-1.2164,-1.2224,-1.215,-1.1391,-1.0938,-1.0783,-1.0045,-0.9685,-0.9716,-0.9921,-1.0027,-0.9896,-1.0173,-1.0836,-1.1632,-1.1402,-1.1831,-1.2802,-1.2458,-1.2331,-1.2305,-1.2305,-1.2305,-1.2298,-1.215,-1.1545,-1.0783,-1.0634,0.0,0.0,0.0,0.0,0.0,0.0,0.0,0.0,0.0,0.0,0.0,0.0,0.0,0.0,0.0,0.0,0.0,0.0,0.0,0.0,0.0,0.0,0.0,0.0,-0.6865,-0.7007,-0.717,-0.7204,-0.721,-0.7193,-0.7448,-0.7631,-0.7648,-0.778,-0.7868,-0.7885,-0.814,-0.8296,-0.8296,-0.8431,0.0,0.0,0.0,-1.1949,-1.1015,-1.3393,-1.4024,-1.3067,-1.3061,-1.3156,-1.3372,-1.477,-1.5304,-1.5204,-1.6711,-1.6499,-1.5204,-1.5204,-1.4449,-1.3014,-1.0212,-0.9053,-0.9053,-0.9053,-0.9053,-0.9053,0.0,0.0,0.0,0.0,0.0,0.0,0.0,0.0,0.0,-1.0807,-1.0624,-1.0624,-1.0624,-1.0624,-1.0624,-1.0624,-1.0624,-1.0782,0.0,0.0,-1.1724,-1.2198,-1.2271,-1.1922,-1.1087,-1.1694,-1.162,-1.0783,-1.1397,-1.1896,-1.212,-1.2171,-1.2324,-1.2476,-1.2533,-1.2718,-1.2876,-1.2818,-1.281,-1.2815,-1.2761,-1.2518,-1.2305,-1.2305,-1.2305,-1.2224,-1.1391,-1.0938,-1.0708,-0.9895,-0.9448,-0.9296,-0.9296,0.0,0.0,0.0,0.0,0.0,0.0,0.0,0.0,0.0,0.0,0.0,0.0,0.0,0.0,0.0,0.0,0.0,0.0,0.0,0.0,-0.701,-0.7082,-0.7193,-0.7472,-0.7611,-0.7638,-0.7522,-0.7665,-0.7818,-0.7943,-0.8092,-0.8231,-0.8343,-0.8408,-0.8442,-0.8442,-0.8584,-0.9194,-1.0347,-1.1022,-1.1855,-1.2817,-1.2215,-1.2342,-1.3199,-1.2059,0.0,-1.3372,-1.477,-1.477,-1.3804,-1.5204,-1.499,-1.3696,-1.3696,-1.3588,-1.3259,-1.2632,-1.2388,-1.2388,-1.2388,-1.2388,-1.2173,0.0,0.0,0.0,0.0,0.0,0.0,0.0,0.0,0.0,0.0,-1.0624,-1.0624,-1.0624,-1.0624,-1.0624,-1.0624,-1.0695,0.0,0.0,-1.165,-1.1844,-1.2285,-1.2305,-1.207,-1.1545,-1.207,-1.2077,-1.1545,-1.2077,-1.2378,-1.2532,-1.2839,-1.2733,-1.2399,-1.2669,-1.2713,-1.27,-1.2644,-1.2756,-1.2966,-1.2889,-1.2565,-1.2305,-1.2305,-1.1996,-1.1545,-1.1545,-1.1242,-1.0634,-0.9669,-0.8993,-0.8466,-0.7936,-0.7783,-0.8012,0.0,0.0,0.0,0.0,0.0,0.0,0.0,0.0,0.0,0.0,0.0,0.0,0.0,0.0,-0.6654,-0.6878,0.0,-0.7021,-0.7319,-0.7431,-0.7529,-0.7685,-0.7899,-0.7957,-0.7733,-0.7906,-0.8072,-0.8147,-0.8289,-0.8408,-0.8476,-0.8554,-0.891,-0.964,-0.9804,-1.0538,-1.2033,-1.2881,-1.3588,-1.4341,-1.4341,-1.477,-1.5423,-1.4663,-1.477,-1.553,-1.6174,-1.6068,-1.553,-1.6174,-1.6068,-1.5423,-1.5423,-1.5423,-1.5423,-1.5423,-1.4561,-1.3264,-1.3264,-1.3264,-1.3156,0.0,0.0,0.0,0.0,0.0,0.0,0.0,0.0,0.0,0.0,-1.0989,-1.0989,-1.087,-1.08,-1.0764,0.0,0.0,0.0,0.0,-1.187,-1.1997,-1.2285,-1.2305,-1.2305,-1.2305,-1.2305,-1.2305,-1.2305,-1.2305,-1.2331,-1.2398,-1.2893,-1.2692,-1.1906,-1.2326,-1.2511,-1.2499,-1.229,-1.2606,-1.31,-1.2923,-1.249,-1.1996,-1.2224,-1.1768,-1.1236,-1.1996,-1.1768,-1.0938,-0.9895,-0.8917,-0.7936,-0.6872,-0.649,-0.6641,-0.8466,-0.8466,0.0,0.0,0.0,0.0,0.0,0.0,0.0,0.0,-0.6515,-0.6559,-0.6712,-0.6766,-0.6868,-0.7136,-0.721,-0.7319,-0.7597,-0.7736,-0.7831,-0.7892,-0.8113,-0.8191,-0.7967,-0.816,-0.8323,-0.8353,-0.8459,-0.8537,-0.8567,-0.8686,-0.9287,-1.0456,-1.0916,-1.1755,-1.3264,-1.4663,-1.5524,-1.5849,-1.6717,-1.7364,-1.7582,-1.7259,-1.7364,-1.7582,-1.7582,-1.7582,-1.7582,-1.7582,-1.7582,-1.7582,-1.7582,-1.7582,-1.7582,-1.7582,-1.6174,-1.4126,-1.4126,-1.4126,-1.4126,0.0,0.0,0.0,0.0,0.0,0.0,0.0,0.0,0.0,0.0,0.0,0.0,0.0,0.0,0.0,0.0,0.0,0.0,0.0,-1.187,-1.1997,-1.2285,-1.2305,-1.2305,-1.2305,-1.2305,-1.2305,-1.2305,-1.2305,-1.2438,-1.2775,-1.2842,-1.3001,-1.3349,-1.3408,-1.3434,-1.3434,-1.3402,-1.3154,-1.2876,-1.2835,-1.2024,-1.1087,-1.1996,-1.2224,-1.215,-1.2224,-1.2224,-1.1996,-1.0938,-0.9965,-0.8993,-0.7936,-0.7022,-0.649,-0.7629,0.0,-0.8008,-0.9145,-0.8613,-0.7594,-0.6731,-0.6451,-0.6488,0.0,-0.6675,-0.6719,-0.6871,-0.7004,-0.7143,-0.7316,-0.7458,-0.76,-0.7763,-0.7801,-0.7906,-0.818,-0.8248,-0.8303,-0.8394,-0.8438,-0.8513,-0.8648,-0.8676,-0.8743,-0.8876,-0.8903,-0.891,-0.913,-1.0339,-1.1755,-1.3264,-1.4663,-1.6068,-1.7364,-1.6174,-1.628,-1.7582,-1.628,-1.628,-1.7582,-1.7582,-1.7582,-1.7582,-1.7582,-1.7582,-1.7582,-1.7582,-1.7582,-1.7582,-1.7582,-1.7364,-1.7147,-1.7147,-1.7147,-1.6935,0.0,0.0,0.0,0.0,0.0,0.0,0.0,0.0,0.0,0.0,0.0,0.0,0.0,0.0,0.0,0.0,0.0,0.0,-1.183,-1.187,-1.1997,-1.2285,-1.2305,-1.2305,-1.2305,-1.2305,-1.2305,-1.2305,-1.2305,-1.2365,-1.2492,-1.2741,-1.2956,-1.3133,-1.3313,-1.3394,-1.3394,-1.3394,-1.314,-1.2822,-1.2822,-1.2339,-1.1694,-1.215,-1.2305,-1.2305,-1.2305,-1.2305,0.0,0.0,-1.0484,-0.989,-0.8309,-0.7936,-0.8161,-0.8542,-0.8694,0.0,-0.8599,-0.7861,-0.709,-0.6668,-0.6607,-0.6644,-0.68,-0.6898,-0.7,-0.7156,-0.7305,-0.7455,-0.76,-0.7678,-0.777,-0.7919,-0.8018,-0.8123,-0.8252,-0.8418,-0.855,-0.8608,-0.8693,-0.8737,-0.8713,-0.8791,-0.8869,-0.8933,-0.9699,-1.0566,-1.1428,-1.2832,-1.4234,-1.5743,-1.6393,-1.6935,-1.7582,-1.7041,-1.7041,-1.7582,-1.6929,-1.7035,-1.7582,-1.7582,-1.7582,-1.7582,-1.7582,-1.7582,-1.7582,-1.7582,-1.7582,-1.7582,-1.7582,-1.7582,-1.7582,-1.7582,-1.7582,-1.747,0.0,0.0,0.0,0.0,0.0,0.0,0.0,0.0,0.0,0.0,0.0,0.0,0.0,0.0,0.0,0.0,0.0,0.0,0.0,-1.1944,-1.2084,-1.2291,-1.2305,0.0,-1.2305,-1.2305,-1.2305,-1.2305,-1.2305,-1.2305,-1.2305,-1.2525,-1.2741,-1.2835,-1.2979,-1.308,-1.308,-1.308,-1.2906,-1.2625,-1.2625,-1.2492,-1.2305,-1.2305,-1.2305,-1.2305,-1.2305,-1.2305,0.0,0.0,-1.1013,-1.0559,-0.9059,-0.8917,-0.9387,-0.9753,-0.9893,-0.9741,-0.8797,-0.7821,-0.7037,-0.6836,-0.6793,-0.6861,-0.7017,-0.7163,-0.7299,-0.7411,-0.7553,-0.7689,-0.779,-0.7845,-0.7923,-0.8079,-0.8197,-0.8299,-0.8381,-0.8574,-0.8726,-0.8767,-0.8872,-0.8896,-0.8784,-0.8872,-0.9047,-0.9482,-1.0457,-1.1538,-1.262,-1.4449,-1.5743,-1.6393,-1.7153,-1.7622,-1.7709,-1.7709,-1.7749,-1.7836,-1.7836,-1.7836,-1.7836,-1.7836,-1.7836,-1.7836,-1.7836,-1.7782,-1.7709,-1.7709,-1.7662,-1.7582,-1.7582,-1.7582,-1.7582,-1.7582,-1.7582,-1.7582,0.0,0.0,0.0,0.0,0.0,0.0,0.0,0.0,0.0,0.0,0.0,0.0,0.0,0.0,0.0,0.0,0.0,0.0,0.0,-1.2131,-1.2291,-1.2305,-1.2305,-1.2305,-1.2305,-1.2305,-1.2305,-1.2305,-1.2305,-1.2305,-1.2305,-1.2311,-1.2472,-1.2822,-1.2835,-1.2835,-1.2835,-1.2835,-1.2585,-1.2318,-1.2318,-1.2311,-1.2305,-1.2305,-1.2305,-1.2305,-1.2305,0.0,0.0,0.0,-1.162,-1.0783,-1.0708,-1.004,0.0,-1.0798,-1.1274,-1.1221,-1.009,-0.905,-0.7966,-0.7137,-0.7024,-0.7166,-0.7322,-0.7475,-0.7587,-0.7594,-0.7706,-0.7804,-0.7811,-0.7933,-0.8085,-0.8238,-0.8269,-0.837,-0.8659,-0.8706,-0.8764,-0.8913,-0.8937,-0.8937,-0.893,-0.8937,-0.9482,-1.0891,-1.1105,-1.1105,-1.1214,-1.3906,-1.477,-1.348,-1.6174,-1.7729,-1.8029,-1.8029,-1.8176,-1.8464,-1.8464,-1.8464,-1.8464,-1.8464,-1.8464,-1.8464,-1.8464,-1.8297,-1.8029,-1.8029,-1.7856,-1.7582,-1.7582,-1.7582,-1.7582,-1.7582,-1.7582,-1.7582,0.0,0.0,0.0,0.0,0.0,0.0,0.0,0.0,0.0,0.0,0.0,0.0,0.0,0.0,0.0,0.0,0.0,0.0,0.0,-1.185,-1.2098,-1.2291,-1.2305,-1.2305,-1.2305,-1.2305,-1.2305,-1.2305,-1.2305,-1.2305,-1.2305,-1.2305,-1.2351,-1.2452,-1.2452,-1.2452,-1.2452,-1.2452,-1.2392,-1.2305,-1.2305,-1.2305,-1.2305,-1.2305,-1.2305,-1.2305,0.0,0.0,0.0,0.0,0.0,0.0,-1.1013,-1.1214,-1.1732,-1.233,-1.1629,-1.0584,-1.0171,-0.8852,-0.7458,-0.7272,-0.7258,-0.7333,-0.7489,-0.7634,-0.774,-0.774,-0.7858,-0.7963,-0.7963,-0.8004,-0.8092,-0.8245,-0.835,-0.8482,-0.8682,-0.8798,-0.8879,-0.8933,-0.894,-0.894,-0.894,-0.894,-0.9154,-0.9588,-1.0566,-1.1538,-1.2512,-1.4341,-1.5636,-1.6174,-1.7235,-1.7943,-1.805,-1.8243,-1.839,-1.849,-1.849,-1.849,-1.849,-1.849,-1.849,-1.849,-1.849,-1.8437,-1.8323,-1.813,-1.7989,-1.7869,-1.7662,-1.7582,-1.7582,-1.7582,-1.7582,-1.7582,0.0,0.0,0.0,0.0,0.0,0.0,0.0,0.0,0.0,0.0,0.0,0.0,0.0,0.0,0.0,0.0,0.0,0.0,0.0,0.0,-1.2141,-1.2792,-1.2445,-1.2305,-1.2305,-1.2305,-1.2305,-1.2305,-1.2305,-1.2305,-1.2305,-1.2305,-1.2305,-1.2305,-1.2305,-1.2305,-1.2305,-1.2305,-1.2305,-1.2305,-1.2305,-1.2305,-1.2305,-1.2305,-1.2305,0.0,0.0,0.0,0.0,0.0,0.0,-1.2224,-1.1539,-1.2112,-1.2888,-1.2775,-1.1558,-1.0249,-0.99,-0.854,-0.7258,-0.7414,-0.7492,-0.7553,-0.7651,-0.7787,-0.7892,-0.7892,-0.8361,-0.8531,-0.8038,-0.8432,-0.86,-0.8416,-0.8421,-0.8554,-0.8764,-0.8876,-0.894,-0.894,-0.894,-0.894,-0.894,-0.9372,-0.9699,-0.9699,-1.0996,-1.2295,-1.3264,-1.5097,-1.643,-1.697,-1.7607,-1.815,-1.8357,-1.8551,-1.8698,-1.8804,-1.8804,-1.8804,-1.8804,-1.8804,-1.8804,-1.8804,-1.8804,-1.8744,-1.8631,-1.8437,-1.8237,-1.8023,-1.7822,-1.7675,-1.7582,-1.7582,-1.7582,-1.7582,0.0,0.0,0.0,0.0,0.0,0.0,0.0,0.0,0.0,0.0,0.0,0.0,0.0,0.0,0.0,0.0,0.0,0.0,0.0,0.0,0.0,-1.37,-1.2872,-1.2372,-1.2445,-1.2372,-1.2372,-1.2372,-1.2298,-1.2305,-1.2305,-1.2305,-1.2305,-1.2305,-1.2305,-1.2305,-1.2305,-1.2305,-1.2305,-1.2305,-1.2305,-1.2305,-1.2305,-1.2305,0.0,0.0,0.0,0.0,0.0,0.0,0.0,-1.2305,-1.2338,-1.2746,-1.3021,-1.214,-1.1292,-1.0396,-0.937,-0.8265,-0.7411,-0.757,-0.7712,-0.7814,-0.7821,-0.7936,-0.8038,-0.8038,-0.9019,-0.9608,-0.8333,-0.9217,-0.9721,-0.8734,-0.858,-0.869,-0.8886,-0.8933,-0.8937,-0.894,-0.8937,-0.9047,-0.9047,-1.0241,-1.1105,-1.1214,-1.2512,-1.3372,-1.3372,-1.5974,-1.7077,-1.6017,-1.729,-1.8364,-1.8918,-1.8938,-1.9085,-1.9366,-1.9366,-1.9366,-1.9366,-1.9366,-1.9366,-1.9366,-1.9366,-1.9205,-1.8945,-1.8931,-1.8584,-1.807,-1.8056,-1.7856,-1.7582,-1.7582,-1.7582,-1.7582,0.0,0.0,0.0,0.0,0.0,0.0,0.0,0.0,0.0,0.0,0.0,0.0,0.0,0.0,0.0,0.0,0.0,0.0,0.0,0.0,0.0,0.0,0.0,0.0,0.0,0.0,0.0,0.0,0.0,-1.2305,-1.2305,-1.2305,-1.2305,0.0,-1.2305,-1.2305,-1.2305,-1.2305,-1.2305,-1.2305,0.0,-1.2305,-1.2305,0.0,0.0,0.0,0.0,0.0,0.0,0.0,-1.2305,-1.2385,-1.2839,-1.3086,-1.3061,-1.2439,-1.1423,-1.0396,-0.937,-0.8265,-0.7434,-0.7692,-0.7784,-0.7841,-0.7957,-0.8011,-0.8038,-0.8038,-0.9019,-0.9903,-0.9509,-1.0583,-1.1053,-0.9998,-0.984,-0.9696,-0.8848,-0.9836,-1.0131,-0.9047,-0.9919,-1.0566,-1.0566,-1.0891,-1.1542,-1.262,-1.3048,-1.3804,-1.477,-1.5821,-1.6736,-1.7482,-1.8242,-1.8771,-1.8925,-1.9145,-1.9292,-1.9366,-1.9366,-1.9366,-1.9366,-1.9366,-1.9366,-1.9366,-1.9366,-1.9325,-1.9239,-1.9018,-1.8711,-1.8357,-1.813,-1.7856,-1.7582,-1.7582,-1.7582,-1.7582,0.0,0.0,0.0,0.0,0.0,0.0,0.0,0.0,0.0,0.0,0.0,0.0,0.0,0.0,0.0,0.0,0.0,0.0,0.0,0.0,0.0,0.0,0.0,0.0,0.0,0.0,0.0,0.0,0.0,0.0,0.0,-1.2305,-1.2305,-1.2305,-1.2305,-1.2305,-1.2305,0.0,0.0,0.0,0.0,0.0,0.0,0.0,0.0,0.0,0.0,0.0,0.0,0.0,0.0,-1.1795,-1.2857,-1.3213,-1.3074,-1.2524,-1.1466,-1.0415,-0.9474,-0.8379,-0.7543,-0.7838,-0.7913,-0.8031,-0.8704,-0.8924,-0.9019,-0.9604,-1.0774,-1.1551,-1.0974,-1.1463,-1.1526,-1.0431,-1.042,-1.0297,-0.9743,-1.045,-1.0781,-0.9915,-1.0566,-1.1105,-1.1105,-1.2295,-1.3372,-1.4126,-1.4234,-1.4556,-1.531,-1.6325,-1.7207,-1.8237,-1.8684,-1.8985,-1.9118,-1.9285,-1.9366,-1.9366,-1.9366,-1.9366,-1.9366,-1.9366,-1.9366,-1.9366,-1.9366,-1.9366,-1.9352,-1.9185,-1.8871,-1.8477,-1.8303,-1.7969,-1.7582,-1.7582,-1.7582,-1.7582,0.0,0.0,0.0,0.0,0.0,0.0,0.0,0.0,0.0,0.0,0.0,0.0,0.0,0.0,0.0,0.0,0.0,0.0,0.0,0.0,0.0,0.0,0.0,0.0,0.0,0.0,0.0,0.0,0.0,0.0,0.0,0.0,0.0,0.0,0.0,0.0,0.0,0.0,0.0,0.0,0.0,0.0,0.0,0.0,0.0,0.0,0.0,0.0,0.0,0.0,-1.1694,-1.1259,-1.2694,-1.3213,-1.3074,-1.2524,-1.1466,-1.0445,-0.9518,-0.8426,-0.7672,-0.7967,-0.8038,-0.8333,-0.9706,-0.9998,-1.0382,-1.1614,-1.2956,-1.3442,-1.2287,-1.2287,-1.197,-1.0893,-1.099,-1.1187,-1.1177,-1.1375,-1.1511,-1.1428,-1.1538,-1.1647,-1.1647,-1.3906,-1.5524,-1.563,-1.5743,-1.5755,-1.569,-1.727,-1.8263,-1.8597,-1.8851,-1.9105,-1.9366,-1.9366,-1.9366,-1.9366,-1.9366,-1.9366,-1.9366,-1.9366,-1.9366,-1.9366,-1.9366,-1.9366,-1.9366,-1.9366,-1.9018,-1.849,-1.849,-1.8123,-1.7582,-1.7582,-1.7582,-1.7582,0.0,0.0,0.0,0.0,0.0,0.0,0.0,0.0,0.0,0.0,0.0,0.0,0.0,0.0,0.0,0.0,0.0,0.0,0.0,0.0,0.0,0.0,0.0,0.0,0.0,0.0,0.0,0.0,0.0,0.0,0.0,0.0,0.0,0.0,0.0,0.0,0.0,0.0,0.0,0.0,0.0,0.0,0.0,0.0,0.0,0.0,0.0,0.0,0.0,0.0,-1.215,-1.2175,-1.2941,-1.3213,-1.3074,-1.2524,-1.1466,-1.0445,-0.9518,-0.8426,-0.7672,-0.7967,-0.8038,-0.8333,-0.9706,-0.9998,-1.0342,-1.1316,-1.2603,-1.3461,-1.318,-1.4042,-1.4415,-1.3414,-1.3369,-1.3211,-1.2417,-1.3477,-1.4017,-1.3028,-1.3911,-1.4663,-1.4663,-1.5091,-1.5956,-1.7147,-1.7252,-1.7364,-1.7512,-1.8141,-1.8664,-1.9199,-1.9265,-1.9319,-1.9366,-1.9366,-1.9366,-1.9366,-1.9366,-1.9366,-1.9366,-1.9366,-1.9366,-1.9366,-1.9366,-1.9366,-1.9366,-1.9366,-1.9018,-1.849,-1.849,-1.8123,-1.7582,-1.7582,-1.7582,-1.7582,0.0,0.0,0.0,0.0,0.0,0.0,0.0,0.0,0.0,0.0,0.0,0.0,0.0,0.0,0.0,0.0,0.0,0.0,0.0,0.0,0.0,0.0,0.0,0.0,0.0,0.0,-1.4838,-1.419,0.0,0.0,0.0,-1.2305,-1.2305,-1.2305,0.0,0.0,0.0,0.0,0.0,0.0,0.0,0.0,0.0,0.0,0.0,0.0,0.0,0.0,0.0,0.0,-1.2305,-1.2378,-1.2826,-1.308,-1.3134,-1.3042,-1.2234,-1.1289,-1.0296,-0.9292,-0.8448,-0.86,-0.866,-0.9136,-1.1119,-1.1596,-1.1937,-1.3038,-1.3854,-1.4232,-1.4232,-1.4345,-1.4198,-1.375,-1.4002,-1.405,-1.379,-1.4453,-1.4815,-1.4421,-1.499,-1.5417,-1.5417,-1.6062,-1.6823,-1.7582,-1.7582,-1.7716,-1.8029,-1.847,-1.8918,-1.9352,-1.9366,-1.9366,-1.9366,-1.9366,-1.9366,-1.9366,-1.9366,-1.9366,-1.9366,-1.9366,-1.9366,-1.9366,-1.9366,-1.9366,-1.9366,-1.9366,-1.9018,-1.849,-1.849,-1.8123,-1.7582,-1.7582,-1.7582,-1.7582,0.0,0.0,0.0,0.0,0.0,0.0,0.0,0.0,0.0,0.0,0.0,0.0,0.0,0.0,0.0,0.0,0.0,0.0,0.0,0.0,0.0,0.0,0.0,0.0,0.0,0.0,0.0,-1.3531,-1.3585,0.0,0.0,0.0,0.0,0.0,-1.2305,-1.2305,-1.2305,0.0,0.0,0.0,0.0,-1.2305,0.0,0.0,0.0,0.0,0.0,0.0,0.0,0.0,-1.2305,-1.2345,-1.2579,-1.2866,-1.3193,-1.3614,-1.2989,-1.2054,-1.1404,-1.0319,-0.947,-0.9662,-0.9709,-1.0265,-1.2467,-1.3012,-1.3369,-1.4602,-1.487,-1.487,-1.487,-1.421,-1.3644,-1.3851,-1.422,-1.4722,-1.5105,-1.5342,-1.5493,-1.5813,-1.5849,-1.5849,-1.5849,-1.6929,-1.7582,-1.7582,-1.7702,-1.7883,-1.813,-1.8698,-1.9125,-1.9359,-1.9366,-1.9366,-1.9366,-1.9366,-1.9366,-1.9366,-1.9366,-1.9366,-1.9366,-1.9366,-1.9366,-1.9366,-1.9366,-1.9366,-1.9366,-1.9366,-1.9018,-1.849,-1.849,-1.8123,-1.7582,-1.7582,-1.7582,-1.7582,0.0,0.0,0.0,0.0,0.0,0.0,0.0,0.0,0.0,0.0,0.0,0.0,0.0,0.0,0.0,0.0,0.0,0.0,0.0,0.0,0.0,0.0,0.0,0.0,0.0,0.0,0.0,-1.4413,-1.37,0.0,0.0,0.0,0.0,0.0,0.0,-1.2305,-1.2305,-1.2305,0.0,0.0,0.0,0.0,0.0,0.0,0.0,0.0,0.0,0.0,0.0,0.0,0.0,-1.2305,-1.2338,-1.2552,-1.303,-1.3801,-1.3008,-1.2009,-1.2325,-1.1572,-1.0731,-1.0851,-1.09,-1.1268,-1.2649,-1.3012,-1.3315,-1.4346,-1.4563,-1.4563,-1.4563,-1.4495,-1.4592,-1.512,-1.5252,-1.5569,-1.6388,-1.652,-1.6744,-1.7298,-1.7364,-1.7364,-1.7364,-1.7477,-1.7582,-1.7582,-1.8096,-1.8424,-1.845,-1.9011,-1.9339,-1.9366,-1.9366,-1.9366,-1.9366,-1.9366,-1.9366,-1.9366,-1.9366,-1.9366,-1.9366,-1.9366,-1.9366,-1.9366,-1.9366,-1.9366,-1.9366,-1.9366,-1.9018,-1.849,-1.849,-1.8123,-1.7582,-1.7582,-1.7582,-1.7582,0.0,0.0,0.0,0.0,0.0,0.0,0.0,0.0,0.0,0.0,0.0,0.0,0.0,0.0,0.0,0.0,0.0,0.0,0.0,0.0,0.0,0.0,0.0,0.0,0.0,0.0,-1.4251,-1.3103,-1.3126,0.0,0.0,0.0,0.0,0.0,0.0,-1.2305,-1.2305,-1.2305,0.0,0.0,0.0,0.0,0.0,0.0,0.0,0.0,0.0,0.0,-1.2305,-1.2305,0.0,0.0,-1.2512,-1.2525,0.0,0.0,-1.3385,-1.309,-1.2605,-1.2048,-1.1723,-1.1817,-1.1839,-1.2108,-1.3361,-1.3629,-1.3777,-1.4196,-1.4262,-1.4262,-1.4262,-1.4549,-1.4863,-1.5097,-1.5431,0.0,-1.6366,-1.6593,-1.686,-1.7275,-1.7475,-1.7582,-1.7582,-1.7582,-1.7582,-1.7582,-1.8143,-1.849,-1.849,-1.9052,-1.9366,-1.9366,-1.9366,-1.9366,-1.9366,-1.9366,-1.9366,-1.9366,-1.9366,-1.9366,-1.9366,-1.9366,-1.9366,-1.9366,-1.9366,-1.9366,-1.9366,-1.9366,-1.9018,-1.849,-1.849,-1.8123,-1.7582,-1.7582,-1.7582,-1.7582,0.0,0.0,0.0,0.0,0.0,0.0,0.0,0.0,0.0,0.0,0.0,0.0,0.0,0.0,0.0,0.0,0.0,0.0,0.0,0.0,0.0,0.0,0.0,0.0,0.0,0.0,0.0,-1.2572,-1.2729,-1.252,0.0,0.0,-1.2218,-1.2305,0.0,0.0,0.0,0.0,0.0,0.0,0.0,0.0,0.0,0.0,0.0,0.0,0.0,0.0,0.0,0.0,0.0,0.0,0.0,0.0,0.0,0.0,-1.3574,-1.3695,-1.2983,-1.2851,-1.2851,-1.2851,-1.2851,-1.3027,-1.3906,-1.4088,-1.4088,-1.4088,-1.4088,-1.4088,-1.4088,-1.4496,-1.4863,0.0,0.0,-1.5838,-1.6219,-1.652,-1.6814,-1.7114,-1.7408,-1.7582,-1.7582,-1.7582,-1.7582,-1.7582,-1.8063,-1.8397,-1.8484,-1.8965,-1.9279,-1.9366,-1.9366,-1.9366,-1.9366,-1.9366,-1.9366,-1.9366,-1.9366,-1.9366,-1.9366,-1.9366,-1.9366,-1.9366,-1.9366,-1.9366,-1.9366,-1.9366,-1.9018,-1.849,-1.849,-1.8123,-1.7582,-1.7582,-1.7582,-1.7582,0.0,0.0,0.0,0.0,0.0,0.0,0.0,0.0,0.0,0.0,0.0,0.0,0.0,0.0,0.0,0.0,0.0,0.0,0.0,0.0,0.0,0.0,0.0,0.0,0.0,0.0,0.0,0.0,0.0,-1.2076,-1.187,-1.187,-1.2031,-1.2305,0.0,0.0,0.0,0.0,0.0,0.0,0.0,0.0,0.0,0.0,0.0,0.0,0.0,0.0,0.0,0.0,0.0,0.0,0.0,0.0,0.0,0.0,-1.344,-1.3347,-1.3928,-1.4088,-1.4088,-1.4088,-1.4088,-1.4088,-1.4088,-1.4088,-1.4088,-1.4088,-1.4088,-1.4088,-1.4088,-1.4322,-1.4623,-1.4917,-1.5211,0.0,-1.6192,-1.652,-1.6814,-1.7114,-1.7408,-1.7582,-1.7582,-1.7582,-1.7582,-1.7582,-1.7876,-1.8183,-1.8477,-1.8771,-1.9065,-1.9359,-1.9366,-1.9366,-1.9366,-1.9366,-1.9366,-1.9366,-1.9366,-1.9366,-1.9366,-1.9366,-1.9366,-1.9366,-1.9366,-1.9366,-1.9366,-1.9366,-1.9018,-1.849,-1.849,-1.8123,-1.7582,-1.7582,-1.7582,-1.7582,0.0,0.0,0.0,0.0,0.0,0.0,0.0,0.0,0.0,0.0,0.0,0.0,0.0,0.0,0.0,0.0,0.0,0.0,0.0,0.0,0.0,0.0,0.0,0.0,0.0,0.0,0.0,0.0,0.0,0.0,0.0,-1.2059,-1.2024,-1.2305,-1.2305,-1.2305,0.0,0.0,0.0,0.0,0.0,0.0,-1.2305,0.0,0.0,0.0,0.0,0.0,0.0,0.0,0.0,0.0,0.0,0.0,0.0,0.0,0.0,0.0,-1.3734,-1.3935,-1.4088,-1.4088,-1.4088,-1.4088,-1.4088,-1.4088,-1.4088,-1.4088,-1.4088,-1.4088,-1.4088,-1.4489,-1.4856,-1.495,-1.5378,-1.5758,-1.5945,-1.6393,-1.674,-1.6834,-1.7281,-1.7582,-1.7582,-1.7582,-1.7582,-1.7582,-1.7869,-1.8176,-1.8477,-1.8764,-1.9058,-1.9359,-1.9366,-1.9366,-1.9366,-1.9366,-1.9366,-1.9366,-1.9366,-1.9366,-1.9366,-1.9366,-1.9366,-1.9366,-1.9366,-1.9366,-1.9366,-1.9366,-1.9018,-1.849,-1.849,-1.8123,-1.7582,-1.7582,-1.7582,-1.7582,0.0,0.0,0.0,0.0,0.0,0.0,0.0,0.0,0.0,0.0,0.0,0.0,0.0,0.0,0.0,0.0,0.0,0.0,0.0,0.0,0.0,0.0,0.0,0.0,0.0,0.0,0.0,0.0,0.0,0.0,0.0,0.0,0.0,-1.2305,-1.2305,-1.2305,0.0,0.0,0.0,0.0,0.0,0.0,-1.2305,0.0,0.0,0.0,0.0,0.0,0.0,0.0,0.0,0.0,0.0,0.0,0.0,0.0,-1.3006,-1.35,0.0,-1.3861,-1.4088,-1.4088,-1.4088,-1.4088,-1.4088,-1.4088,-1.4088,-1.4088,-1.4088,-1.4088,-1.4088,-1.4569,-1.4963,-1.4963,-1.5451,-1.5832,-1.5832,-1.6339,-1.6787,-1.7007,-1.7361,-1.7582,-1.7582,-1.7582,-1.7582,-1.7582,-1.7762,-1.805,-1.847,-1.8664,-1.8951,-1.9352,-1.9366,-1.9366,-1.9366,-1.9366,-1.9366,-1.9366,-1.9366,-1.9366,-1.9366,-1.9366,-1.9366,-1.9366,-1.9366,-1.9366,0.0,-1.9245,-1.8918,-1.8477,-1.837,-1.8023,-1.7582,-1.7582,-1.7582,-1.7582,0.0,0.0,0.0,0.0,0.0,0.0,0.0,0.0,0.0,0.0,0.0,0.0,0.0,0.0,0.0,0.0,0.0,0.0,0.0,0.0,0.0,0.0,0.0,0.0,0.0,0.0,0.0,0.0,-1.3667,-1.3219,-1.2788,0.0,0.0,0.0,0.0,0.0,0.0,0.0,0.0,0.0,0.0,0.0,0.0,0.0,0.0,0.0,0.0,0.0,0.0,0.0,0.0,0.0,0.0,0.0,0.0,0.0,0.0,0.0,0.0,-1.3861,-1.4088,-1.4088,-1.4088,-1.4088,-1.4088,0.0,0.0,-1.4088,-1.4088,-1.4088,-1.4088,-1.4569,-1.4963,-1.4963,-1.5451,-1.5832,-1.5832,-1.6339,-1.6927,-1.7515,-1.7582,-1.7582,-1.7582,-1.7582,-1.7582,-1.7582,-1.7582,-1.7842,-1.843,-1.8477,-1.8751,-1.9319,-1.9359,-1.9366,-1.9366,-1.9366,-1.9366,-1.9366,-1.9366,-1.9366,-1.9366,-1.9366,-1.9366,-1.9366,-1.9366,-1.9359,-1.9319,-1.9038,-1.8738,-1.843,-1.8156,-1.7856,-1.7582,-1.7582,-1.7582,-1.7582,0.0,0.0,0.0,0.0,0.0,0.0,0.0,0.0,0.0,0.0,0.0,0.0,0.0,0.0,0.0,0.0,0.0,0.0,0.0,0.0,0.0,0.0,0.0,0.0,0.0,0.0,0.0,-1.5108,-1.3977,-1.3469,-1.3568,-1.2416,0.0,0.0,0.0,0.0,0.0,0.0,0.0,0.0,0.0,0.0,0.0,0.0,0.0,0.0,-1.2305,-1.2305,0.0,0.0,0.0,0.0,0.0,0.0,0.0,0.0,-1.2913,-1.3273,-1.3567,0.0,-1.4088,-1.4088,-1.4088,-1.4088,0.0,0.0,0.0,0.0,0.0,0.0,0.0,0.0,-1.4963,-1.4963,-1.5451,-1.5832,-1.5832,-1.6339,-1.6927,-1.7515,-1.7582,-1.7582,-1.7582,-1.7582,-1.7582,-1.7582,-1.7582,-1.7749,-1.813,-1.837,-1.8657,-1.9018,-1.9252,-1.9366,-1.9366,-1.9366,-1.9366,-1.9366,-1.9366,-1.9366,-1.9366,-1.9366,-1.9366,-1.9366,-1.9366,-1.9239,-1.9025,-1.8951,-1.8617,-1.8143,-1.807,-1.7856,-1.7582,-1.7582,-1.7582,-1.7582,0.0,0.0,0.0,0.0,0.0,0.0,0.0,0.0,0.0,0.0,0.0,0.0,0.0,0.0,0.0,0.0,0.0,0.0,0.0,0.0,0.0,0.0,0.0,0.0,0.0,0.0,0.0,0.0,0.0,-1.3844,0.0,0.0,0.0,0.0,0.0,0.0,0.0,0.0,0.0,0.0,-1.2305,0.0,0.0,0.0,0.0,0.0,-1.2305,-1.2305,0.0,-1.2305,-1.2305,-1.2305,0.0,0.0,0.0,0.0,-1.2966,-1.3273,-1.3567,-1.3861,-1.4088,-1.4088,-1.4088,-1.4088,-1.4088,0.0,0.0,0.0,0.0,0.0,0.0,0.0,-1.501,-1.5137,-1.5538,-1.5925,-1.6192,-1.6627,-1.7074,-1.7528,-1.7582,-1.7582,-1.7582,-1.7582,-1.7582,-1.7582,-1.7582,-1.7716,-1.8029,-1.8196,-1.8424,-1.8718,-1.9011,-1.9232,-1.9366,-1.9366,-1.9366,-1.9366,-1.9366,-1.9366,-1.9366,-1.9366,-1.9366,-1.9359,-1.9225,-1.9072,-1.8905,-1.8631,-1.8337,-1.8029,-1.7889,-1.7736,-1.7582,-1.7582,-1.7582,-1.7582,0.0,0.0,0.0,0.0,0.0,0.0,0.0,0.0,0.0,0.0,0.0,0.0,0.0,0.0,0.0,0.0,0.0,0.0,0.0,0.0,0.0,0.0,0.0,0.0,0.0,0.0,0.0,0.0,0.0,0.0,0.0,0.0,0.0,0.0,0.0,0.0,0.0,0.0,-1.2305,-1.2305,-1.2305,0.0,0.0,0.0,0.0,0.0,0.0,0.0,0.0,-1.2305,-1.2305,-1.2305,-1.2305,0.0,0.0,0.0,0.0,0.0,-1.3621,-1.3895,-1.4088,-1.4088,-1.4088,-1.4088,-1.4088,0.0,0.0,0.0,0.0,0.0,0.0,-1.4763,-1.5057,-1.5351,-1.5678,-1.6086,-1.6627,-1.6961,-1.7255,-1.7549,-1.7582,-1.7582,-1.7582,-1.7582,-1.7582,-1.7582,-1.7582,-1.7695,-1.7963,-1.8023,-1.8163,-1.8417,-1.8704,-1.8978,-1.9232,-1.9325,-1.9366,-1.9366,-1.9366,-1.9366,-1.9366,-1.9366,-1.9339,-1.9285,-1.9032,-1.8871,-1.8751,-1.825,-1.8016,-1.7949,-1.7689,-1.7582,-1.7582,-1.7582,-1.7582,-1.7582,0.0,0.0,0.0,0.0,0.0,0.0,0.0,0.0,0.0,0.0,0.0,0.0,0.0,0.0,0.0,0.0,0.0,0.0,0.0,0.0,0.0,0.0,0.0,0.0,0.0,0.0,0.0,0.0,0.0,0.0,-1.449,-1.3014,-1.2305,0.0,0.0,0.0,0.0,-1.2305,-1.2305,-1.2305,-1.2305,0.0,0.0,0.0,0.0,0.0,0.0,0.0,0.0,-1.2305,-1.2305,-1.2305,-1.2305,0.0,0.0,0.0,0.0,0.0,-1.3868,-1.4055,-1.4088,-1.4088,-1.4088,-1.4088,-1.4088,0.0,0.0,0.0,0.0,0.0,0.0,-1.4763,-1.5057,-1.5351,-1.5852,-1.6319,-1.666,-1.6961,-1.7255,-1.7549,-1.7582,-1.7582,-1.7582,-1.7582,-1.7582,-1.7582,-1.7582,-1.7602,-1.7649,-1.7903,-1.807,-1.8116,-1.8404,-1.8577,-1.8624,-1.9118,-1.9366,-1.9366,-1.9366,-1.9366,-1.9366,-1.9366,-1.9232,-1.8991,-1.8945,-1.8644,-1.8176,-1.8083,-1.7896,-1.7649,-1.7602,-1.7582,-1.7582,-1.7582,-1.7582,-1.7582,0.0,0.0,0.0,0.0,0.0,0.0,0.0,0.0,0.0,0.0,0.0,0.0,0.0,0.0,0.0,0.0,0.0,0.0,0.0,0.0,0.0,0.0,0.0,0.0,0.0,0.0,0.0,0.0,0.0,-1.4372,-1.4002,-1.2882,-1.2305,-1.2305,0.0,0.0,0.0,-1.2305,-1.2305,-1.2305,0.0,0.0,0.0,0.0,0.0,0.0,0.0,0.0,0.0,0.0,-1.2305,-1.2305,-1.2305,0.0,0.0,0.0,0.0,0.0,-1.3968,-1.4088,-1.4088,-1.4088,-1.4088,-1.4088,-1.4088,0.0,0.0,0.0,0.0,0.0,0.0,-1.487,-1.511,-1.5558,-1.6126,-1.6553,-1.6687,-1.7094,-1.7435,-1.7569,-1.7582,-1.7582,-1.7582,-1.7582,-1.7582,-1.7582,-1.7582,-1.7582,-1.7582,-1.7716,-1.7796,-1.7796,-1.809,-1.825,-1.825,-1.8677,-1.8891,-1.8891,-1.8891,-1.8891,-1.8891,-1.8891,-1.8818,-1.8684,-1.8517,-1.8297,-1.8029,-1.7862,-1.7709,-1.7582,-1.7582,-1.7582,-1.7582,-1.7582,-1.7582,-1.7582,0.0,0.0,0.0,0.0,0.0,0.0,0.0,0.0,0.0,0.0,0.0,0.0,0.0,0.0,0.0,0.0,0.0,0.0,0.0,0.0,0.0,0.0,0.0,0.0,0.0,0.0,0.0,-1.6386,-1.5223,-1.419,-1.3382,-1.2666,-1.2305,0.0,0.0,0.0,0.0,-1.2305,-1.2305,-1.2305,0.0,0.0,0.0,0.0,0.0,0.0,0.0,0.0,0.0,0.0,0.0,0.0,0.0,0.0,0.0,-1.312,-1.3414,-1.3707,-1.4008,-1.4088,-1.4088,-1.4088,0.0,-1.4088,-1.4088,-1.4088,0.0,0.0,0.0,0.0,0.0,-1.5077,-1.5311,-1.5758,-1.6319,-1.6707,-1.6707,-1.7215,-1.7582,-1.7582,-1.7582,-1.7582,-1.7582,-1.7582,-1.7582,-1.7582,-1.7582,-1.7582,-1.7582,-1.7582,-1.7582,-1.7582,-1.7816,-1.7943,-1.7943,-1.8163,-1.835,-1.849,-1.849,-1.849,-1.849,-1.849,-1.8457,-1.837,-1.8143,-1.8003,-1.7916,-1.7682,-1.7582,-1.7582,-1.7582,-1.7582,-1.7582,-1.7582,-1.7582,-1.7582,0.0,0.0,0.0,0.0,0.0,0.0,0.0,0.0,0.0,0.0,0.0,0.0,0.0,0.0,0.0,0.0,0.0,0.0,0.0,0.0,0.0,0.0,0.0,0.0,0.0,-1.7314,-1.7539,-1.7823,-1.6044,-1.4212,-1.2372,-1.2305,-1.2305,-1.2305,0.0,0.0,0.0,-1.2305,-1.2305,-1.2305,-1.2305,0.0,0.0,0.0,0.0,0.0,0.0,0.0,0.0,0.0,0.0,0.0,0.0,0.0,-1.2882,-1.312,-1.3414,-1.3707,-1.4008,-1.4088,-1.4088,-1.4088,-1.4088,0.0,-1.4088,-1.4088,0.0,-1.4088,0.0,0.0,-1.4903,-1.5404,-1.5785,-1.5818,-1.6319,-1.6707,-1.6707,-1.7215,-1.7582,-1.7582,-1.7582,-1.7582,-1.7582,-1.7582,-1.7582,-1.7582,-1.7582,-1.7582,-1.7582,-1.7582,-1.7582,-1.7582,-1.7602,-1.7615,-1.7615,-1.7635,-1.7929,-1.849,-1.849,-1.849,-1.849,-1.849,-1.8337,-1.8076,-1.8056,-1.7883,-1.7615,-1.7595,-1.7582,-1.7582,-1.7582,-1.7582,-1.7582,-1.7582,-1.7582,-1.7582,0.0,0.0,0.0,0.0,0.0,0.0,0.0,0.0,0.0,0.0,0.0,0.0,0.0,0.0,0.0,0.0,0.0,0.0,0.0,0.0,0.0,0.0,0.0,-1.75,-1.7764,-1.7773,-1.7562,-1.7139,-1.5799,-1.4522,-1.3171,-1.3171,0.0,0.0,0.0,0.0,0.0,-1.2305,-1.2305,-1.2305,-1.2305,-1.2305,0.0,0.0,0.0,0.0,0.0,0.0,0.0,0.0,-1.2305,-1.2338,0.0,0.0,-1.3093,-1.3394,-1.3687,-1.3941,-1.4055,-1.4088,-1.4088,-1.4088,-1.4088,0.0,0.0,-1.4088,-1.4135,-1.4315,-1.4442,0.0,-1.5144,-1.5558,-1.5885,-1.6072,-1.6446,-1.6767,-1.6954,-1.7328,-1.7582,-1.7582,-1.7582,-1.7582,-1.7582,-1.7582,-1.7582,-1.7582,-1.7582,-1.7582,-1.7582,-1.7582,-1.7582,-1.7582,-1.7582,-1.7582,-1.7582,-1.7582,-1.7695,-1.7929,-1.7929,-1.7929,-1.7929,-1.7929,-1.7862,-1.7756,-1.7756,-1.7689,-1.7582,-1.7582,-1.7582,-1.7582,-1.7582,-1.7582,-1.7582,-1.7582,-1.7582,-1.7582,0.0,0.0,0.0,0.0,0.0,0.0,0.0,0.0,0.0,0.0,0.0,0.0,0.0,0.0,0.0,0.0,0.0,0.0,0.0,0.0,0.0,0.0,0.0,-1.7715,-1.8008,-1.8008,-1.7716,-1.707,-1.5799,-1.4665,-1.3673,0.0,0.0,0.0,0.0,0.0,0.0,0.0,-1.2305,-1.2305,-1.2305,-1.2305,0.0,0.0,0.0,0.0,0.0,0.0,0.0,0.0,0.0,0.0,0.0,0.0,0.0,0.0,-1.3854,-1.4088,-1.4088,-1.4088,-1.4088,-1.4088,0.0,0.0,-1.4088,-1.4088,-1.4168,-1.4456,-1.4663,-1.495,-1.5444,-1.5698,-1.5925,-1.6226,-1.652,-1.6807,-1.7108,-1.7402,-1.7582,-1.7582,-1.7582,-1.7582,-1.7582,-1.7582,-1.7582,-1.7582,-1.7582,-1.7582,-1.7582,-1.7582,-1.7582,-1.7582,-1.7582,-1.7582,-1.7582,-1.7582,-1.7582,-1.7582,-1.7582,-1.7582,-1.7582,-1.7582,-1.7582,-1.7582,-1.7582,-1.7582,-1.7582,-1.7582,-1.7582,-1.7582,-1.7582,-1.7582,-1.7582,-1.7582,-1.7582,-1.7582,0.0,0.0,0.0,0.0,0.0,0.0,0.0,0.0,0.0,0.0,0.0,0.0,0.0,0.0,0.0,0.0,0.0,0.0,0.0,0.0,0.0,0.0,0.0,-1.8008,-1.8008,-1.8008,-1.8008,-1.8008,-1.6088,-1.4665,-1.3673,-1.2732,0.0,0.0,0.0,0.0,0.0,0.0,-1.2305,-1.2305,-1.2305,-1.2305,-1.2305,0.0,0.0,0.0,0.0,0.0,0.0,0.0,-1.2498,0.0,0.0,0.0,0.0,0.0,-1.3854,-1.4088,-1.4088,-1.4088,-1.4088,0.0,0.0,0.0,-1.4088,-1.4088,-1.4175,-1.4469,-1.4997,-1.5484,-1.5772,-1.5832,-1.5925,-1.6226,-1.652,-1.6807,-1.7114,-1.7402,-1.7582,-1.7582,-1.7582,-1.7582,-1.7582,-1.7582,-1.7582,-1.7582,-1.7582,-1.7582,-1.7582,-1.7582,-1.7582,-1.7582,-1.7582,-1.7582,-1.7582,-1.7582,-1.7582,-1.7582,-1.7582,-1.7582,-1.7582,-1.7582,-1.7582,-1.7582,-1.7582,-1.7582,-1.7582,-1.7582,-1.7582,-1.7582,-1.7582,-1.7582,-1.7582,-1.7582,-1.7582,-1.7582,0.0,0.0,0.0,0.0,0.0,0.0,0.0,0.0,0.0,0.0,0.0,0.0,0.0,0.0,0.0,0.0,0.0,0.0,0.0,0.0,0.0,0.0,0.0,0.0,0.0,0.0,-1.7001,-1.7001,-1.6428,-1.5296,0.0,0.0,0.0,-1.2305,0.0,0.0,0.0,0.0,0.0,-1.2305,-1.2305,-1.2305,-1.2305,0.0,0.0,0.0,0.0,0.0,0.0,0.0,0.0,0.0,0.0,0.0,0.0,-1.3895,-1.4015,-1.4088,-1.4088,-1.4088,0.0,-1.4088,0.0,0.0,0.0,-1.4249,0.0,0.0,-1.5438,-1.5732,-1.5812,-1.5832,-1.5992,-1.6493,-1.6647,-1.6881,-1.7382,-1.7528,-1.7582,-1.7582,-1.7582,-1.7582,-1.7582,-1.7582,-1.7582,-1.7582,-1.7582,-1.7582,-1.7582,-1.7582,-1.7582,-1.7582,-1.7582,-1.7582,-1.7582,-1.7582,-1.7582,-1.7582,-1.7582,-1.7582,-1.7582,-1.7582,-1.7582,-1.7582,-1.7582,-1.7582,-1.7582,-1.7582,-1.7582,-1.7582,-1.7582,-1.7582,-1.7582,-1.7582,-1.7582,-1.7582,0.0,0.0,0.0,0.0,0.0,0.0,0.0,0.0,0.0,0.0,0.0,0.0,0.0,0.0,0.0,0.0,0.0,0.0,0.0,0.0,0.0,0.0,0.0,0.0,0.0,-1.7432,-1.6991,0.0,0.0,0.0,0.0,0.0,0.0,-1.2305,0.0,-1.2305,0.0,0.0,0.0,-1.2305,-1.2305,-1.2305,-1.2305,0.0,0.0,0.0,0.0,0.0,0.0,0.0,0.0,0.0,0.0,0.0,0.0,-1.4035,-1.4088,-1.4088,-1.4088,-1.4088,0.0,-1.4088,-1.4088,-1.4115,-1.4229,0.0,0.0,-1.515,-1.5545,-1.5832,-1.5832,-1.5832,-1.6025,-1.6613,-1.6707,-1.6907,-1.7502,-1.7582,-1.7582,-1.7582,-1.7582,-1.7582,-1.7582,-1.7582,-1.7582,-1.7582,-1.7582,-1.7582,-1.7582,-1.7582,-1.7582,-1.7582,-1.7582,-1.7582,-1.7582,-1.7582,-1.7582,-1.7582,-1.7582,-1.7582,-1.7582,-1.7582,-1.7582,-1.7582,-1.7582,-1.7582,-1.7582,-1.7582,-1.7582,-1.7582,-1.7582,-1.7582,-1.7582,-1.7582,-1.7582,-1.7582,0.0,0.0,0.0,0.0,0.0,0.0,0.0,0.0,0.0,0.0,0.0,0.0,0.0,0.0,0.0,0.0,0.0,0.0,0.0,0.0,0.0,0.0,0.0,0.0,0.0,0.0,0.0,0.0,0.0,0.0,0.0,0.0,-1.2305,-1.2305,0.0,-1.2305,0.0,0.0,0.0,-1.2305,-1.2305,-1.2305,-1.2305,-1.2305,0.0,0.0,0.0,0.0,0.0,0.0,0.0,0.0,0.0,0.0,-1.4088,-1.4088,-1.4088,-1.4088,-1.4088,0.0,0.0,-1.4088,-1.4088,0.0,-1.4422,-1.473,-1.497,-1.4997,-1.5444,-1.5832,-1.5832,-1.5832,-1.6012,-1.6573,-1.6687,-1.6901,-1.7462,-1.7562,-1.7582,-1.7582,-1.7582,-1.7582,-1.7582,-1.7582,-1.7582,-1.7582,-1.7582,-1.7582,-1.7582,-1.7582,-1.7582,-1.7582,-1.7582,-1.7582,-1.7582,-1.7582,-1.7582,-1.7582,-1.7582,-1.7582,-1.7582,-1.7582,-1.7582,-1.7582,-1.7582,-1.7582,-1.7582,-1.7582,-1.7582,-1.7582,-1.7582,-1.7582,-1.7582,-1.7582,-1.7582,-1.7582,0.0,0.0,0.0,0.0,0.0,0.0,0.0,0.0,0.0,0.0,0.0,0.0,0.0,0.0,0.0,0.0,0.0,0.0,0.0,0.0,0.0,0.0,0.0,0.0,0.0,0.0,0.0,0.0,0.0,0.0,0.0,0.0,0.0,-1.2305,0.0,-1.2305,0.0,0.0,0.0,-1.2305,-1.2305,-1.2305,-1.2305,-1.2305,-1.2445,0.0,0.0,0.0,0.0,0.0,0.0,0.0,-1.3559,-1.3848,-1.4088,-1.4088,-1.4088,-1.4088,-1.4088,-1.4088,0.0,0.0,-1.4088,-1.4108,-1.4168,-1.4589,-1.503,-1.5257,-1.5585,-1.5832,-1.5832,-1.5832,-1.5945,-1.6306,-1.656,-1.6834,-1.7194,-1.7442,-1.7582,-1.7582,-1.7582,-1.7582,-1.7582,-1.7582,-1.7582,-1.7582,-1.7582,-1.7582,-1.7582,-1.7582,-1.7582,-1.7582,-1.7582,-1.7582,-1.7582,-1.7582,-1.7582,-1.7582,-1.7582,-1.7582,-1.7582,-1.7582,-1.7582,-1.7582,-1.7582,-1.7582,-1.7582,-1.7582,-1.7582,-1.7582,-1.7582,-1.7582,-1.7582,-1.7582,-1.7582,-1.7582,0.0,0.0,0.0,0.0,0.0,0.0,0.0,0.0,0.0,0.0,0.0,0.0,0.0,0.0,0.0,0.0,0.0,0.0,0.0,0.0,0.0,0.0,0.0,0.0,0.0,0.0,0.0,0.0,0.0,0.0,0.0,0.0,0.0,-1.2305,0.0,-1.2305,0.0,0.0,0.0,0.0,-1.2305,-1.2385,-1.2512,-1.2512,-1.2705,-1.2966,-1.2966,0.0,0.0,0.0,0.0,0.0,0.0,0.0,-1.4088,-1.4088,-1.4088,-1.4088,-1.4088,0.0,0.0,-1.4088,0.0,-1.4088,-1.4088,-1.4543,-1.501,-1.5157,-1.5531,-1.5832,-1.5832,-1.5832,-1.5925,-1.6226,-1.64,-1.6653,-1.7088,-1.7281,-1.7428,-1.7562,-1.7582,-1.7582,-1.7582,-1.7582,-1.7582,-1.7582,-1.7582,-1.7582,-1.7582,-1.7582,-1.7582,-1.7582,-1.7582,-1.7582,-1.7582,-1.7582,-1.7582,-1.7582,-1.7582,-1.7582,-1.7582,-1.7582,-1.7582,-1.7582,-1.7582,-1.7582,-1.7582,-1.7582,-1.7582,-1.7582,-1.7582,-1.7582,-1.7582,-1.7582,-1.7582,-1.7582,0.0,0.0,0.0,0.0,0.0,0.0,0.0,0.0,0.0,0.0,0.0,0.0,0.0,0.0,0.0,0.0,0.0,0.0,0.0,0.0,0.0,0.0,0.0,0.0,0.0,0.0,0.0,0.0,0.0,0.0,0.0,0.0,0.0,-1.2305,0.0,0.0,0.0,0.0,0.0,0.0,0.0,0.0,-1.2903,-1.2903,-1.3019,-1.3287,-1.3287,-1.3474,-1.3721,-1.3721,0.0,0.0,0.0,0.0,-1.4088,-1.4088,-1.4088,-1.4088,-1.4088,0.0,-1.4088,-1.4088,-1.4088,0.0,-1.4088,-1.4502,-1.4903,-1.495,-1.5424,-1.5832,-1.5832,-1.5832,-1.5912,-1.6152,-1.6239,-1.644,-1.6927,-1.7081,-1.7241,-1.7475,-1.7555,-1.7582,-1.7582,-1.7582,-1.7582,-1.7582,-1.7582,-1.7582,-1.7582,-1.7582,-1.7582,-1.7582,-1.7582,-1.7582,-1.7582,-1.7582,-1.7582,-1.7582,-1.7582,-1.7582,-1.7582,-1.7582,-1.7582,-1.7582,-1.7582,-1.7582,-1.7582,-1.7582,-1.7582,-1.7582,-1.7582,-1.7582,-1.7582,-1.7582,-1.7582,-1.7582,0.0,0.0,0.0,0.0,0.0,0.0,0.0,0.0,0.0,0.0,0.0,0.0,0.0,0.0,0.0,0.0,0.0,0.0,-1.8008,0.0,0.0,-1.8008,-1.8008,0.0,0.0,0.0,0.0,0.0,0.0,0.0,0.0,0.0,0.0,0.0,0.0,0.0,0.0,0.0,0.0,0.0,0.0,0.0,0.0,-1.3153,-1.3327,-1.3587,-1.3587,-1.3774,-1.4028,-1.4028,-1.4055,0.0,0.0,0.0,-1.4088,-1.4088,-1.4088,-1.4088,0.0,0.0,-1.4088,0.0,-1.4088,-1.4088,0.0,-1.4342,-1.4656,-1.491,-1.5424,-1.5832,-1.5832,-1.5832,-1.5845,-1.5879,-1.6106,-1.6299,-1.638,-1.6827,-1.7161,-1.7201,-1.7428,-1.7582,-1.7582,-1.7582,-1.7582,-1.7582,-1.7582,-1.7582,-1.7582,-1.7582,-1.7582,-1.7582,-1.7582,-1.7582,-1.7582,-1.7582,-1.7582,-1.7582,-1.7582,-1.7582,-1.7582,-1.7582,-1.7582,-1.7582,-1.7582,-1.7582,-1.7582,-1.7582,-1.7582,-1.7582,-1.7582,-1.7582,-1.7582,-1.7582,-1.7582,-1.7582,0.0,0.0,0.0,0.0,0.0,0.0,0.0,0.0,0.0,0.0,0.0,0.0,0.0,0.0,0.0,-1.8008,-1.8008,-1.8008,-1.8008,-1.8008,-1.8008,-1.8008,-1.8008,0.0,0.0,0.0,0.0,0.0,0.0,0.0,0.0,-1.4019,-1.3091,0.0,0.0,0.0,0.0,0.0,0.0,0.0,0.0,0.0,0.0,0.0,-1.3634,-1.3895,-1.3895,-1.3975,-1.4088,-1.4088,-1.4088,-1.4088,-1.4088,0.0,0.0,0.0,-1.4088,0.0,-1.4088,-1.4088,-1.4088,0.0,-1.4088,-1.4088,-1.4088,-1.4309,-1.4556,-1.4689,-1.5184,-1.5638,-1.5798,-1.5832,-1.5832,-1.5832,-1.5939,-1.6086,-1.6253,-1.6493,-1.672,-1.6881,-1.7014,-1.7154,-1.7321,-1.7341,-1.7408,-1.7569,-1.7582,-1.7582,-1.7582,-1.7582,-1.7582,-1.7582,-1.7582,-1.7582,-1.7582,-1.7582,-1.7582,-1.7582,-1.7582,-1.7582,-1.7582,-1.7582,-1.7582,-1.7582,-1.7582,-1.7582,-1.7582,-1.7582,-1.7582,-1.7582,-1.7582,-1.7582,-1.7582,-1.7582,-1.7582,-1.7582,0.0,0.0,0.0,0.0,0.0,0.0,0.0,0.0,0.0,0.0,0.0,0.0,0.0,0.0,0.0,0.0,-1.8008,-1.8008,-1.8008,-1.8008,-1.8008,-1.8008,-1.8008,-1.8008,-1.8008,0.0,0.0,0.0,0.0,0.0,-1.6219,-1.4522,-1.3673,0.0,-1.2732,0.0,0.0,0.0,0.0,0.0,0.0,0.0,0.0,0.0,-1.3895,-1.4088,-1.4088,-1.4088,-1.4088,-1.4088,-1.4088,-1.4088,-1.4088,-1.4088,0.0,0.0,0.0,0.0,0.0,0.0,-1.4088,-1.4088,-1.4088,-1.4088,-1.4088,-1.4255,-1.4429,-1.4502,-1.487,-1.5284,-1.5651,-1.5778,-1.5832,-1.5832,-1.5832,-1.5905,-1.6126,-1.6226,-1.6353,-1.6567,-1.666,-1.6794,-1.7014,-1.7041,-1.7128,-1.7341,-1.7361,-1.7395,-1.7468,-1.7475,-1.7508,-1.7582,-1.7582,-1.7582,-1.7582,-1.7582,-1.7582,-1.7582,-1.7582,-1.7582,-1.7582,-1.7582,-1.7582,-1.7582,-1.7582,-1.7582,-1.7582,-1.7582,-1.7582,-1.7582,-1.7582,-1.7582,-1.7582,-1.7582,-1.7582,-1.7582,0.0,0.0,0.0,0.0,0.0,0.0,0.0,0.0,0.0,0.0,0.0,0.0,-1.8008,-1.8008,-1.8008,-1.8008,-1.8008,-1.8008,-1.8008,-1.8008,-1.8008,-1.8008,-1.8008,0.0,-1.8008,0.0,0.0,0.0,0.0,0.0,-1.5234,-1.4171,-1.3673,-1.3673,-1.2732,-1.2458,-1.2802,0.0,0.0,0.0,0.0,0.0,0.0,0.0,-1.4075,-1.4088,-1.4088,-1.4088,-1.4088,-1.4088,-1.4088,-1.4088,-1.4088,-1.4088,-1.4088,0.0,0.0,0.0,0.0,-1.4088,0.0,-1.4088,-1.4088,-1.4088,-1.4088,-1.4095,-1.4188,-1.4462,-1.4543,-1.4736,-1.5311,-1.5645,-1.5832,-1.5832,-1.5832,-1.5832,-1.5852,-1.6092,-1.6279,-1.6293,-1.654,-1.6714,-1.6727,-1.6727,-1.6734,-1.6747,-1.6747,-1.6874,-1.7154,-1.7174,-1.7295,-1.7575,-1.7582,-1.7582,-1.7582,-1.7582,-1.7582,-1.7582,-1.7582,-1.7582,-1.7582,-1.7582,-1.7582,-1.7582,-1.7582,-1.7582,-1.7582,-1.7582,-1.7582,-1.7582,-1.7582,-1.7582,-1.7582,-1.7582,-1.7582,-1.7582,0.0,0.0,0.0,0.0,0.0,0.0,0.0,0.0,0.0,0.0,0.0,0.0,0.0,-1.8008,-1.8008,-1.8008,-1.8008,-1.8008,-1.8008,-1.8008,-1.8008,-1.8008,-1.8008,-1.8008,-1.8008,0.0,0.0,0.0,0.0,-1.6715,-1.6941,-1.5376,-1.4784,-1.4854,-1.3322,-1.2721,-1.2849,-1.316,0.0,0.0,0.0,0.0,0.0,0.0,0.0,-1.4088,-1.4088,-1.4088,-1.4088,-1.4088,-1.4088,-1.4088,-1.4088,-1.4088,-1.4088,-1.4088,-1.4088,0.0,0.0,0.0,0.0,-1.4088,-1.4088,-1.4088,-1.4088,-1.4088,-1.4115,-1.4222,-1.4389,-1.4583,-1.4796,-1.5231,-1.5611,-1.5798,-1.5832,-1.5832,-1.5832,-1.5919,-1.5985,-1.5985,-1.6079,-1.6219,-1.6406,-1.6426,-1.6506,-1.6693,-1.6707,-1.6754,-1.6854,-1.6867,-1.6914,-1.7014,-1.7021,-1.7114,-1.7301,-1.7488,-1.7582,-1.7582,-1.7582,-1.7582,-1.7582,-1.7582,-1.7582,-1.7582,-1.7582,-1.7582,-1.7582,-1.7582,-1.7582,-1.7582,-1.7582,-1.7582,-1.7582,-1.7582,-1.7582,-1.7582,0.0,0.0,0.0,0.0,0.0,0.0,0.0,0.0,0.0,0.0,0.0,0.0,0.0,0.0,-1.8008,-1.8008,-1.8008,-1.8008,-1.8008,-1.8008,-1.8008,-1.8008,-1.8008,-1.8008,-1.8008,0.0,0.0,0.0,0.0,0.0,0.0,-1.6067,-1.5316,-1.5284,-1.4132,-1.3423,0.0,0.0,0.0,-1.4282,0.0,0.0,-1.4573,0.0,-1.4088,-1.4088,-1.4088,-1.4088,-1.4088,-1.4088,-1.4088,-1.4088,-1.4088,-1.4088,-1.4088,-1.4088,-1.4088,0.0,-1.4088,0.0,0.0,0.0,-1.4088,-1.4088,-1.4088,-1.4088,-1.4088,-1.4088,-1.4242,-1.4402,-1.4502,-1.4836,-1.5231,-1.5618,-1.5765,-1.5832,-1.5832,-1.5832,-1.5832,-1.5832,-1.5832,-1.5905,-1.6106,-1.6126,-1.6206,-1.6393,-1.6413,-1.6453,-1.6553,-1.656,-1.6607,-1.67,-1.6707,-1.68,-1.7001,-1.7295,-1.7442,-1.7442,-1.7535,-1.7582,-1.7582,-1.7582,-1.7582,-1.7582,-1.7582,-1.7582,-1.7582,-1.7582,-1.7582,-1.7582,-1.7582,-1.7582,-1.7582,-1.7582,-1.7582,-1.7582,0.0,0.0,0.0,0.0,0.0,0.0,0.0,0.0,0.0,0.0,0.0,0.0,0.0,0.0,0.0,-1.8008,-1.8008,-1.8008,-1.8008,-1.8008,-1.8008,-1.8008,-1.8008,-1.8008,-1.8008,0.0,0.0,0.0,0.0,0.0,0.0,0.0,-1.5383,0.0,-1.5227,-1.475,-1.3818,0.0,-1.5493,-1.5696,0.0,-1.5613,-1.5538,-1.4489,-1.4088,-1.4088,-1.4088,-1.4088,-1.4088,-1.4088,-1.4088,-1.4088,-1.4088,-1.4088,-1.4088,-1.4088,-1.4088,0.0,0.0,0.0,0.0,-1.4088,-1.4088,-1.4088,-1.4088,-1.4088,-1.4088,-1.4088,-1.4088,-1.4175,-1.4456,-1.4509,-1.4703,-1.5277,-1.5611,-1.5805,-1.5812,-1.5812,-1.5818,-1.5832,-1.5832,-1.5832,-1.5832,-1.5832,-1.5832,-1.5832,-1.5832,-1.5952,-1.6246,-1.6259,-1.6386,-1.6667,-1.6687,-1.6693,-1.6693,-1.6987,-1.7237,-1.7141,-1.7428,-1.7569,-1.7569,-1.7582,-1.7582,-1.7582,-1.7582,-1.7582,-1.7582,-1.7582,-1.7582,-1.7582,-1.7582,-1.7582,-1.7582,-1.7582,-1.7582,-1.7582,0.0,0.0,0.0,0.0,0.0,0.0,0.0,0.0,0.0,0.0,0.0,0.0,0.0,-1.8008,-1.8008,-1.8008,-1.8008,-1.8008,-1.8008,-1.8008,-1.8008,-1.8008,-1.8008,-1.8008,-1.8008,0.0,0.0,0.0,0.0,0.0,0.0,0.0,0.0,0.0,-1.745,-1.7017,-1.6223,-1.5815,0.0,-1.5613,-1.4894,-1.4573,-1.4489,-1.425,-1.4088,-1.4088,-1.4088,-1.4088,-1.4088,-1.4088,-1.4088,-1.4088,-1.4088,-1.4088,0.0,-1.4088,-1.4088,-1.4088,-1.4088,0.0,0.0,0.0,0.0,0.0,-1.4088,-1.4088,-1.4088,-1.4088,-1.4088,-1.4115,-1.4195,-1.4382,-1.4576,-1.4736,-1.501,-1.5277,-1.5484,-1.5518,-1.5591,-1.5805,-1.5832,-1.5832,-1.5832,-1.5832,-1.5832,-1.5832,-1.5832,-1.5865,-1.5945,-1.5952,-1.5985,-1.6072,-1.6279,-1.6393,-1.6393,-1.668,-1.6827,-1.6834,-1.7128,-1.7268,-1.7275,-1.7482,-1.7582,-1.7582,-1.7582,-1.7582,-1.7582,-1.7582,-1.7582,-1.7582,-1.7582,-1.7582,-1.7582,-1.7582,-1.7582,-1.7582,0.0,0.0,0.0,0.0,0.0,0.0,0.0,0.0,0.0,0.0,0.0,0.0,0.0,0.0,-1.8008,-1.8008,-1.8008,-1.8086,-1.8262,-1.8271,-1.8359,-1.8535,-1.8545,-1.8545,-1.8545,0.0,0.0,0.0,0.0,0.0,0.0,0.0,0.0,0.0,0.0,0.0,0.0,0.0,0.0,0.0,-1.522,-1.4734,-1.4734,-1.425,-1.4088,-1.4088,-1.4088,-1.4168,-1.4249,-1.4128,-1.4168,-1.4269,-1.4269,-1.4269,-1.4269,-1.4269,-1.4182,0.0,0.0,0.0,-1.4088,-1.4088,0.0,0.0,-1.4088,-1.4088,-1.4088,-1.4088,-1.4088,-1.4088,-1.4088,-1.4222,-1.4342,-1.4342,-1.4482,-1.4743,-1.5157,-1.5217,-1.5277,-1.5444,-1.5578,-1.5651,-1.5651,-1.5758,-1.5832,-1.5832,-1.5832,-1.5832,-1.5832,-1.5832,-1.5832,-1.5832,-1.5999,-1.6086,-1.6086,-1.638,-1.6526,-1.6526,-1.682,-1.7027,-1.7257,-1.7328,-1.7468,-1.7582,-1.7582,-1.7582,-1.7582,-1.7582,-1.7582,-1.7582,-1.7582,-1.7582,-1.7582,-1.7582,-1.7582,-1.7582,0.0,0.0,0.0,0.0,0.0,0.0,0.0,0.0,0.0,0.0,0.0,0.0,0.0,0.0,-1.8105,-1.8144,-1.8144,-1.8311,-1.8682,-1.8711,-1.8877,-1.9268,-1.9287,-1.9287,-1.9287,0.0,0.0,0.0,0.0,0.0,0.0,0.0,0.0,0.0,0.0,0.0,0.0,0.0,0.0,-1.7415,-1.6191,-1.5696,-1.5621,-1.4496,-1.4088,-1.4088,-1.4088,-1.4255,-1.4436,-1.4208,-1.4329,-1.4569,-1.4569,-1.4569,-1.4569,-1.4569,-1.4389,0.0,0.0,0.0,0.0,-1.4188,-1.4188,0.0,-1.4188,-1.4162,-1.4135,-1.4135,-1.4108,-1.4088,-1.4088,-1.4088,-1.4088,-1.4088,-1.4088,-1.4282,-1.4836,-1.4917,-1.493,-1.4963,-1.519,-1.5351,-1.5351,-1.5578,-1.5732,-1.5732,-1.5765,-1.5798,-1.5832,-1.5832,-1.5832,-1.5832,-1.5832,-1.5832,-1.5832,-1.6092,-1.6226,-1.6226,-1.652,-1.6794,-1.7054,-1.7121,-1.7288,-1.7535,-1.7569,-1.7582,-1.7582,-1.7582,-1.7582,-1.7582,-1.7582,-1.7582,-1.7582,-1.7582,-1.7582,-1.7582,-2.3078,0.0,0.0,0.0,0.0,0.0,0.0,0.0,0.0,0.0,0.0,0.0,0.0,0.0,-1.8652,-1.9004,-1.9043,-1.9072,-1.916,-1.916,-1.9199,-1.9287,-1.9287,-1.9287,-1.9287,-1.9287,0.0,0.0,0.0,0.0,0.0,0.0,0.0,0.0,0.0,0.0,0.0,0.0,-1.8877,-1.847,-1.6519,-1.5696,-1.5621,-1.4496,-1.4088,-1.4088,-1.4088,-1.4122,-1.4202,-1.4376,-1.4629,-1.4877,-1.4877,-1.4877,-1.4877,-1.4877,-1.4836,-1.479,-1.479,-1.479,-1.479,-1.479,-1.479,0.0,-1.479,-1.4609,-1.4436,-1.4436,-1.4249,-1.4088,-1.4088,-1.4088,-1.4088,-1.4088,-1.4088,-1.4208,-1.4556,-1.4603,-1.4696,-1.4937,-1.5017,-1.505,-1.505,-1.5104,-1.5137,-1.5137,-1.5351,-1.5585,-1.5818,-1.5832,-1.5832,-1.5832,-1.5832,-1.5832,-1.5832,-1.5885,-1.5912,-1.5919,-1.6213,-1.6386,-1.646,-1.6934,-1.7181,-1.7248,-1.7482,-1.7582,-1.7582,-1.7582,-1.7582,-1.7582,-1.7582,-1.7582,-1.7582,-1.7582,-1.7582,-1.7582,-2.3078,0.0,0.0,0.0,0.0,0.0,0.0,0.0,0.0,0.0,0.0,0.0,0.0,0.0,0.0,-1.9268,-1.9287,-1.9375,-1.959,-1.96,-1.9697,-1.9912,-1.9922,-1.9922,-1.9922,-1.9922,0.0,0.0,0.0,0.0,0.0,0.0,0.0,0.0,0.0,0.0,0.0,0.0,-1.9766,-1.9599,-1.6838,-1.5696,-1.5621,-1.4496,-1.4175,-1.4302,-1.4302,-1.4402,-1.4569,-1.4863,-1.5057,-1.5177,-1.5177,-1.5177,-1.5177,-1.5177,-1.5077,-1.4963,-1.4963,-1.4963,-1.4963,-1.4963,-1.4963,0.0,0.0,-1.4736,-1.4522,-1.4522,-1.4289,-1.4088,-1.4088,-1.4088,-1.4088,-1.4088,-1.4088,-1.4135,-1.4282,-1.4302,-1.4355,-1.4509,-1.4656,-1.4743,-1.4743,-1.4877,-1.4963,-1.4963,-1.5097,-1.5304,-1.5598,-1.5611,-1.5678,-1.5825,-1.5832,-1.5832,-1.5832,-1.5832,-1.5832,-1.5832,-1.5979,-1.6126,-1.6286,-1.658,-1.6874,-1.7257,-1.7301,-1.7448,-1.7582,-1.7582,-1.7582,-1.7582,-1.7582,-1.7582,-1.7582,-1.7582,-1.7582,-1.7582,-2.3115,0.0,0.0,0.0,0.0,0.0,0.0,0.0,0.0,0.0,0.0,0.0,0.0,0.0,-1.9443,0.0,-1.9531,-1.9678,-2.0019,-2.0039,-2.0195,-2.0547,-2.0566,-2.0566,-2.0566,-2.0566,-2.0566,0.0,0.0,0.0,0.0,0.0,0.0,0.0,0.0,0.0,0.0,0.0,-2.0644,-2.0333,-1.7638,-1.6503,-1.6374,-1.5387,-1.507,-1.528,-1.5026,-1.5313,-1.5784,-1.5494,-1.5616,-1.5756,-1.557,-1.5478,-1.5478,-1.5478,-1.5311,-1.513,-1.513,-1.513,-1.513,-1.513,-1.513,-1.513,0.0,0.0,0.0,-1.4616,-1.4376,-1.4155,-1.4095,-1.4088,-1.4068,-1.4008,-1.4048,-1.4068,-1.4008,-1.4048,-1.4088,-1.4088,-1.4295,-1.4436,-1.4436,-1.4656,-1.4816,-1.4877,-1.4877,-1.5003,-1.5297,-1.5364,-1.5504,-1.5738,-1.5798,-1.5832,-1.5832,-1.5832,-1.5832,-1.5832,-1.5832,-1.5952,-1.6186,-1.6246,-1.6533,-1.6987,-1.7101,-1.7281,-1.7502,-1.7562,-1.7582,-1.7582,-1.7582,-1.7582,-1.7582,-1.7582,-1.7582,-1.7582,-2.3265,-2.3078,0.0,0.0,0.0,0.0,0.0,0.0,0.0,0.0,0.0,0.0,-2.123,-2.0346,-2.0,-2.0391,-2.042,-2.0439,-2.0488,-2.0498,-2.0508,-2.0566,-2.0566,-2.0566,-2.0566,-2.0566,-2.0566,-2.0566,0.0,0.0,0.0,0.0,0.0,0.0,-2.0566,0.0,0.0,0.0,-2.0928,-2.0547,-1.9953,-1.9436,-1.9088,-1.8337,-1.8145,-1.8005,-1.6885,-1.7451,-1.8289,-1.6099,-1.6302,-1.7267,-1.6149,-1.5778,-1.5778,-1.5778,-1.5758,-1.5732,-1.5732,-1.5732,-1.5732,-1.5732,-1.5732,-1.5732,-1.5732,0.0,-1.5224,-1.4963,0.0,-1.4396,-1.4135,0.0,0.0,-1.3734,-1.3915,-1.3995,-1.3734,-1.3921,-1.4088,-1.4088,-1.4115,-1.4135,-1.4135,-1.4168,-1.4295,-1.4549,-1.4569,-1.4703,-1.4997,-1.5257,-1.5411,-1.5444,-1.5698,-1.5832,-1.5832,-1.5832,-1.5832,-1.5832,-1.5832,-1.5845,-1.5885,-1.6152,-1.6313,-1.64,-1.6921,-1.7271,-1.7215,-1.7475,-1.7582,-1.7582,-1.7582,-1.7582,-1.7582,-1.7582,-1.7582,-1.7582,-2.4205,-2.4117,0.0,0.0,0.0,0.0,0.0,0.0,0.0,0.0,0.0,-2.2886,-2.184,-2.1381,-2.0943,-2.0624,-2.0566,-2.0566,-2.0566,-2.0566,-2.0566,-2.0566,-2.0566,-2.0566,-2.0566,-2.0566,-2.0566,-2.0566,-2.0566,0.0,0.0,0.0,0.0,0.0,-2.0566,0.0,-2.0596,-2.1045,-2.1123,-2.0946,-2.1368,-2.1428,-2.109,-1.9298,-1.8278,-1.7783,-1.7454,-1.7256,-1.7014,-1.6012,-1.6101,-1.648,-1.6015,-1.5832,-1.5832,-1.5832,-1.5832,-1.5832,-1.5832,-1.6386,-1.6763,-1.6015,-1.6386,-1.6669,-1.6015,-1.5605,-1.5311,-1.5023,0.0,0.0,0.0,0.0,0.0,0.0,-1.4008,-1.4041,-1.3915,-1.4008,-1.4088,-1.4088,-1.4088,-1.4088,-1.4088,-1.4088,-1.4135,-1.4262,-1.4269,-1.4396,-1.4689,-1.4823,-1.497,-1.5137,-1.5424,-1.5578,-1.5578,-1.5745,-1.5832,-1.5832,-1.5832,-1.5832,-1.5832,-1.5959,-1.6112,-1.6293,-1.6714,-1.6987,-1.7174,-1.7462,-1.7582,-1.7582,-1.7582,-1.7582,-1.7582,-1.7582,-1.7582,-1.7582,-2.5272,0.0,0.0,0.0,0.0,0.0,0.0,0.0,-2.5132,-2.4893,-2.4584,-2.3931,-2.2595,-2.2178,-2.1593,-2.0712,-2.0566,-2.0566,-2.0566,-2.0566,-2.0566,-2.0566,-2.0566,-2.0566,-2.0566,-2.0566,-2.0566,-2.0566,0.0,0.0,0.0,0.0,0.0,0.0,0.0,-2.0752,-2.0781,-2.1348,-2.1523,-2.1484,-2.2344,-2.2685,-2.2465,-2.0571,-1.9397,-1.8856,-1.8676,-1.8311,-1.7662,-1.7023,-1.7016,-1.7203,-1.6567,-1.6292,-1.6292,-1.592,-1.5832,-1.5832,-1.5832,-1.648,-1.6943,-1.6015,-1.648,-1.6943,-1.6015,-1.5665,-1.5411,-1.5037,-1.4796,0.0,0.0,0.0,-1.4062,-1.3981,0.0,-1.4055,-1.3975,-1.4035,-1.4088,-1.4088,-1.4088,-1.4088,-1.4088,-1.4088,-1.4088,-1.4088,-1.4088,-1.4175,-1.4389,-1.4476,-1.4623,-1.4836,-1.5204,-1.5398,-1.5398,-1.5685,-1.5832,-1.5832,-1.5832,-1.5832,-1.5832,-1.5832,-1.5945,-1.6166,-1.646,-1.6754,-1.7048,-1.7341,-1.7508,-1.7582,-1.7582,-1.7582,-1.7582,-1.7582,-1.7582,-1.7582,-2.6483,-2.5548,0.0,0.0,0.0,0.0,0.0,-2.605,-2.6414,-2.6427,-2.5557,-2.4624,-2.3588,-2.2553,-2.1593,-2.0712,-2.0566,-2.0566,-2.0566,-2.0566,-2.0566,-2.0566,-2.0566,-2.0566,-2.0566,-2.0566,-2.0566,-2.0566,0.0,0.0,0.0,0.0,0.0,0.0,0.0,-2.1211,-2.1269,-2.2109,-2.2236,-2.1934,-2.2783,-2.3115,-2.3028,-2.3008,-2.2921,-2.2755,-2.1569,-2.1943,-2.2501,-2.0133,-2.0124,-2.0755,-1.8411,-1.7598,-1.7412,-1.6204,-1.5832,-1.5832,-1.5832,-1.5832,-1.5825,-1.5832,-1.5832,-1.5825,-1.5832,-1.5818,-1.5651,-1.5084,-1.4957,-1.4776,-1.4195,-1.4088,-1.3995,-1.3707,-1.3901,0.0,0.0,-1.3908,-1.4088,-1.4088,-1.4088,-1.4088,-1.4088,-1.4088,-1.4088,-1.4088,-1.4088,-1.4088,-1.4102,-1.4369,-1.4522,-1.4536,-1.509,-1.5398,-1.5398,-1.5685,-1.5832,-1.5832,-1.5832,-1.5832,-1.5832,-1.5832,-1.5832,-1.5858,-1.6159,-1.6453,-1.674,-1.7041,-1.7328,-1.7582,-1.7582,-1.7582,-1.7582,-1.7582,-1.7582,-1.7582,-2.6533,0.0,0.0,0.0,0.0,-2.5963,-2.6138,-2.6395,-2.6533,-2.6533,-2.6164,-2.5581,-2.4636,-2.4192,-2.3305,-2.1669,-2.1517,-2.1221,-2.0644,-2.0566,-2.0566,-2.0566,-2.0566,-2.0566,-2.0566,-2.0566,-2.0566,-2.0566,-2.0566,0.0,0.0,0.0,0.0,0.0,0.0,-2.167,-2.1699,-2.2275,-2.2432,-2.2344,-2.291,-2.3135,-2.3135,-2.3135,-2.2589,-2.1845,-2.1471,-2.1033,-2.0584,-1.977,-1.9761,-1.9943,-1.9131,-1.8864,-1.8772,-1.8395,-1.7669,-1.7037,-1.7037,-1.7037,-1.685,-1.6015,-1.6386,-1.685,-1.6015,-1.5832,-1.5718,-1.5331,-1.5097,-1.4843,-1.4442,-1.4215,-1.4055,-1.3955,-1.4021,-1.4048,0.0,-1.4021,-1.4088,-1.4088,-1.4088,-1.4088,-1.4088,-1.4088,-1.4088,-1.4088,-1.4088,-1.4088,-1.4088,-1.4182,-1.4235,-1.4235,-1.4616,-1.491,-1.511,-1.5398,-1.5638,-1.5832,-1.5832,-1.5832,-1.5832,-1.5832,-1.5832,-1.5845,-1.6146,-1.644,-1.6727,-1.7027,-1.7321,-1.7582,-1.7582,-1.7582,-1.7582,-1.7582,-1.7582,-1.7582,-2.6533,0.0,0.0,-2.6533,-2.6533,-2.6533,-2.6533,-2.6533,-2.6596,-2.6798,-2.6753,-2.6454,-2.5672,-2.5248,-2.4351,-2.2674,-2.2154,-2.1716,-2.1115,-2.1035,-2.0967,-2.081,-2.0801,-2.0732,-2.0566,-2.0723,-2.0801,-2.0801,-2.0957,-2.1035,0.0,0.0,0.0,0.0,0.0,-2.2109,-2.2139,-2.2559,-2.2734,-2.2754,-2.3027,-2.3135,-2.3135,-2.3135,-2.2589,-2.1943,-2.1943,-2.14,-2.0773,-2.0773,-2.0773,-2.0674,-2.0305,-2.0124,-2.0034,-1.9588,-1.8956,-1.8319,-1.8319,-1.8319,-1.8133,-1.7296,-1.7762,-1.8048,-1.6756,-1.648,-1.6303,-1.555,-1.5164,-1.487,-1.4576,-1.4282,-1.4088,-1.4088,-1.4088,-1.4088,0.0,-1.4088,-1.4088,-1.4088,-1.4088,-1.4088,-1.4088,-1.4088,-1.4088,-1.4088,-1.4088,-1.4088,-1.4088,-1.4088,-1.4088,-1.4088,-1.4369,-1.4663,-1.4963,-1.5251,-1.5538,-1.5832,-1.5832,-1.5832,-1.5832,-1.5832,-1.5832,-1.5838,-1.6032,-1.6339,-1.672,-1.6914,-1.7228,-1.7582,-1.7582,-1.7582,-1.7582,-1.7582,-1.7582,-1.7582,-2.6533,-2.6533,-2.6533,-2.6533,-2.6533,-2.6533,-2.6559,-2.6571,-2.6703,-2.7256,-2.7318,-2.7207,-2.6704,-2.5754,-2.4759,-2.3732,-2.2737,-2.2122,-2.204,-2.204,-2.1781,-2.136,-2.126,-2.1074,-2.0635,-2.1045,-2.126,-2.126,-2.168,0.0,0.0,0.0,0.0,0.0,-2.2353,0.0,-2.2568,-2.2969,-2.3135,-2.3135,-2.3135,-2.3135,-2.3135,-2.3135,-2.3135,-2.3135,-2.3135,-2.3135,-2.3135,-2.3135,-2.3135,-2.2862,-2.1756,-2.1382,-2.1203,-2.0034,-1.967,-1.9588,-1.9588,-1.9588,-1.9497,-1.9497,-1.9497,-1.9222,-1.8048,-1.7785,-1.7416,-1.5927,-1.5352,-1.5048,-1.4677,-1.4374,-1.4166,-1.4088,-1.4088,-1.4088,-1.4088,-1.4088,-1.4088,-1.4088,-1.4173,-1.4166,-1.4088,-1.4088,-1.4088,-1.4088,-1.4088,-1.4088,-1.4088,-1.4088,-1.4088,-1.4088,-1.4355,-1.4649,-1.4963,-1.5237,-1.5524,-1.5832,-1.5832,-1.5832,-1.5832,-1.5832,-1.5832,-1.5832,-1.5832,-1.6159,-1.6707,-1.6707,-1.7054,-1.7582,-1.7582,-1.7582,-1.7582,-1.7582,-1.7582,-1.7582,-2.6533,-2.6533,-2.6533,-2.6533,-2.6533,-2.6603,-2.7005,-2.7067,-2.7268,-2.7821,-2.7896,-2.7861,-2.7693,-2.7484,-2.6926,-2.5896,-2.5512,-2.5071,-2.4388,-2.3594,-2.306,-2.2936,-2.2179,-2.166,-2.1553,-2.166,-2.1719,-2.1719,-2.1836,0.0,-2.1894,0.0,0.0,0.0,0.0,-2.2978,-2.2988,-2.3096,-2.3135,-2.3135,-2.3135,-2.3135,-2.3135,-2.3135,-2.3135,-2.3135,-2.3135,-2.3135,-2.3135,-2.3135,-2.3135,-2.3047,-2.2765,-2.2677,-2.2589,-2.2227,-2.1578,-2.0845,-2.0845,-2.0215,-1.9497,-1.9497,-1.9497,-1.9405,-1.9139,-1.9039,-1.8924,-1.8561,-1.7974,-1.7265,-1.6403,-1.5675,-1.5061,-1.425,-1.4088,-1.4088,-1.4088,-1.4088,-1.4088,-1.4088,-1.4817,-1.4977,-1.4166,-1.4088,-1.4088,-1.4088,-1.4088,-1.4088,-1.4088,-1.4088,-1.4088,-1.4088,-1.4162,-1.4442,-1.4957,-1.5037,-1.5331,-1.5832,-1.5832,-1.5832,-1.5832,-1.5832,-1.5832,-1.5832,-1.5832,-1.6159,-1.6707,-1.6707,-1.7054,-1.7582,-1.7582,-1.7582,-1.7582,-1.7582,-1.7582,-1.7582,-2.6533,-2.6653,-2.6816,-2.6816,-2.7017,-2.7205,-2.7268,-2.7494,-2.7846,-2.8398,-2.8461,-2.8561,-2.8812,-2.8424,-2.7855,-2.7293,-2.6816,-2.6357,-2.5814,-2.5161,-2.474,-2.4523,-2.39,-2.3491,-2.3384,-2.3094,-2.2877,-2.2877,-2.2587,0.0,-2.2441,0.0,0.0,0.0,0.0,-2.3135,-2.3135,-2.3135,-2.3135,-2.3135,-2.3135,-2.3135,0.0,-2.3135,-2.3135,-2.3135,-2.3135,-2.3135,-2.3135,-2.3135,-2.3135,-2.3135,-2.3135,-2.3135,-2.3135,-2.3135,-2.2589,-2.212,-2.212,-2.1578,-2.1042,-2.1042,-2.1042,-2.0953,-2.0395,-2.0305,-2.0124,-1.9588,-1.9043,-1.8431,-1.766,-1.6676,-1.554,-1.4271,-1.4088,-1.4088,-1.4088,-1.4088,-1.4088,-1.4088,-1.465,-1.4734,-1.4166,-1.4985,-1.5151,-1.4173,-1.4489,-1.4573,-1.4173,-1.4088,-1.4088,-1.4088,-1.4088,-1.4309,-1.4763,-1.4897,-1.519,-1.5645,-1.5765,-1.5832,-1.5832,-1.5832,-1.5832,-1.5832,-1.5832,-1.6159,-1.6707,-1.6707,-1.7054,-1.7582,-1.7582,-1.7582,-1.7582,-1.7582,-1.7582,-1.7582,-2.6747,-2.7055,-2.7394,-2.7394,-2.7846,-2.8047,-2.757,-2.7908,-2.8411,-2.8963,-2.9038,-2.9239,-2.9741,-2.8998,-2.8419,-2.8347,-2.7522,-2.7044,-2.6976,-2.6801,-2.6526,-2.6086,-2.5822,-2.5472,-2.5139,-2.4573,-2.421,-2.4044,-2.3533,-2.3222,0.0,0.0,0.0,0.0,0.0,0.0,0.0,-2.3135,-2.3135,-2.3135,-2.3135,-2.3135,-2.3135,-2.3135,-2.3135,-2.3135,-2.3135,-2.3135,-2.3135,-2.3135,-2.3135,-2.3135,-2.3135,-2.3135,-2.3135,-2.3135,-2.3135,-2.3135,-2.3135,-2.3135,-2.3135,-2.3135,-2.3135,-2.2862,-2.1756,-2.1569,-2.1203,-2.0223,-1.9745,-1.938,-1.874,-1.739,-1.5948,-1.453,-1.4334,-1.4328,-1.4496,-1.4412,-1.4334,-1.4334,-1.4412,0.0,-1.4173,-1.5801,-1.6124,-1.425,-1.4977,-1.5054,-1.4173,-1.4088,-1.4088,-1.4088,-1.4088,-1.4229,-1.4516,-1.4816,-1.511,-1.5398,-1.5691,-1.5832,-1.5832,-1.5832,-1.5832,-1.5832,-1.5832,-1.6159,-1.6707,-1.6707,-1.7054,-1.7582,-1.7582,-1.7582,-1.7582,-1.7582,-1.7582,-1.7582,-2.7821,-2.7896,-2.7959,-2.7959,-2.8411,-2.875,-2.8649,-2.8725,-2.8988,-2.9566,-2.9641,-2.9679,-2.9779,-3.0024,-2.994,-2.9571,-2.9707,-2.969,-2.9246,-2.8359,-2.7808,-2.7714,-2.5986,-2.4966,-2.4881,-2.4714,-2.4258,-2.3278,-2.4084,-2.4049,0.0,0.0,0.0,0.0,0.0,0.0,-2.3135,-2.3135,-2.3135,-2.3135,-2.3135,-2.3135,-2.3135,-2.3135,-2.3135,-2.3135,-2.3135,-2.3135,-2.3135,-2.3135,-2.3135,-2.3135,-2.3135,-2.3135,-2.3135,-2.3135,-2.3135,-2.3135,-2.3135,-2.3135,-2.3135,-2.3135,-2.3135,-2.3047,-2.2862,-2.2775,-2.2677,-2.2501,-2.2178,-2.1494,-2.0108,-1.8371,-1.6754,-1.5628,-1.5462,-1.5703,-1.6609,-1.5951,-1.5462,-1.5462,-1.6198,-1.6041,-1.425,-1.4412,-1.4496,-1.4173,-1.425,-1.4334,-1.4088,-1.4088,-1.4088,-1.4088,-1.4088,-1.4229,-1.4516,-1.4816,-1.511,-1.5398,-1.5691,-1.5832,-1.5832,-1.5832,-1.5832,-1.5832,-1.5832,-1.6159,-1.6707,-1.6707,-1.7054,-1.7582,-1.7582,-1.7582,-1.7582,-1.7582,-1.7582,-1.7582,-2.8109,-2.8335,-2.8536,-2.8536,-2.9001,-2.9478,-2.9754,-2.9804,-2.9905,-3.0181,-3.0218,-3.0319,-3.0595,-3.0859,-3.0909,-3.0645,-3.0871,-3.0796,-3.0256,-2.9695,-2.923,-2.9028,-2.7947,-2.7371,-2.7371,-2.6295,-2.5389,-2.4893,-2.4221,-2.3637,-2.3135,-2.3135,0.0,0.0,0.0,-2.3135,-2.3135,-2.3135,-2.3135,-2.3135,-2.3135,-2.3135,-2.3135,-2.3135,-2.3135,-2.3135,-2.3135,-2.3135,-2.3135,-2.3135,-2.3135,-2.3135,-2.3135,-2.3135,-2.3135,-2.3135,-2.3135,-2.3135,-2.3135,-2.3135,-2.3135,-2.3135,-2.3135,-2.3135,-2.3135,-2.3135,-2.3135,-2.3135,-2.2978,-2.2274,-2.0492,-1.8815,-1.7392,-1.6632,-1.6026,-1.6108,-1.718,-1.6846,-1.6519,-1.6519,-1.7009,-1.6854,-1.5876,-1.522,-1.4894,-1.4894,-1.4894,-1.5137,-1.5711,-1.522,-1.4894,-1.4894,-1.4894,-1.4796,-1.4516,-1.4816,-1.511,-1.5398,-1.5691,-1.5832,-1.5832,-1.5832,-1.5832,-1.5832,-1.5832,-1.6159,-1.6727,-1.7034,-1.7328,-1.7582,-1.7582,-1.7582,-1.7582,-1.7582,-1.7582,-1.7582,-2.8461,-2.8812,-2.9151,-2.9264,-2.9666,-3.0143,-3.0696,-3.0783,-3.0783,-3.0783,-3.0783,-3.0934,-3.1348,-3.1499,-3.1524,-3.1399,-3.1499,-3.1336,-3.0821,-3.067,-3.0419,-2.9993,-2.9608,-2.9443,-2.9443,-2.7706,-2.6719,-2.6483,-2.4723,-2.3674,-2.3335,-2.3183,-2.3135,-2.3135,-2.3135,-2.3135,-2.3135,-2.3135,-2.3135,-2.3135,-2.3135,-2.3135,-2.3135,-2.3135,-2.3135,-2.3135,-2.3135,-2.3135,-2.3135,-2.3135,-2.3135,-2.3135,-2.3135,-2.3135,-2.3135,-2.3135,-2.3135,-2.3135,-2.3135,-2.3135,-2.3135,-2.3135,-2.3135,-2.3135,-2.3135,-2.3135,-2.3135,-2.3135,-2.3066,-2.2409,-2.051,-1.9388,-1.8343,-1.7481,-1.6756,-1.6675,-1.7577,-1.7666,-1.7666,-1.7666,-1.7423,-1.7342,-1.7342,-1.6116,-1.5538,-1.6026,-1.5861,-1.6108,-1.6927,-1.6191,-1.5696,-1.5696,-1.5455,-1.5043,-1.4516,-1.4816,-1.511,-1.5398,-1.5691,-1.5832,-1.5832,-1.5832,-1.5832,-1.5832,-1.5899,-1.6259,-1.684,-1.7368,-1.7582,-1.7582,-1.7582,-1.7582,-1.7582,-1.7582,-1.7582,-1.7582,-2.9628,-2.9679,-2.9867,-3.0369,-3.0507,-3.0721,-3.1235,-3.1323,-3.1323,-3.1323,-3.1323,-3.1336,-3.1386,-3.1838,-3.1938,-3.1436,-3.1851,-3.1901,-3.1348,-3.0871,-3.0595,-3.0545,-2.9102,-2.8255,-2.8255,-2.8096,-2.7441,-2.6483,-2.6307,-2.5507,-2.4116,-2.3371,-2.3135,-2.3135,-2.3135,-2.3135,-2.3135,-2.3135,-2.3135,-2.3135,-2.3135,-2.3135,-2.3135,-2.3135,-2.3135,-2.3135,-2.3135,-2.3135,-2.3135,-2.3135,-2.3135,-2.3135,-2.3135,-2.3135,-2.3135,-2.3135,-2.3135,-2.3135,-2.3135,-2.3135,-2.3135,-2.3135,-2.3135,-2.3135,-2.3135,-2.3135,-2.3135,-2.3135,-2.2832,-2.2063,-2.0455,-2.0576,-2.0093,-1.7725,-1.8069,-1.8718,-1.8798,-1.8877,-1.8877,-1.8877,-1.7908,-1.7342,-1.7342,-1.547,-1.5068,-1.7009,-1.6273,-1.5779,-1.5861,-1.5779,-1.5696,-1.5696,-1.4734,-1.4307,-1.4516,-1.4816,-1.511,-1.5398,-1.5691,-1.5832,-1.5832,-1.5832,-1.5832,-1.5845,-1.6112,-1.6567,-1.7134,-1.7455,-1.7582,-1.7582,-1.7582,-1.7582,-1.7582,-1.7582,-1.7582,-1.7582,-3.0746,-3.0746,-3.0821,-3.1035,-3.1085,-3.126,-3.18,-3.1888,-3.2001,-3.2353,-3.2102,-3.2014,-3.2365,-3.2604,-3.2641,-3.2416,-3.2604,-3.2491,-3.1913,-3.1687,-3.1286,-3.0645,-2.9973,-2.9438,-2.9118,-2.8426,-2.7936,-2.7441,-2.613,-2.5198,-2.4525,-2.3557,-2.3135,-2.3135,-2.3135,-2.3135,-2.3135,-2.3135,-2.3135,-2.3135,-2.3135,-2.3135,-2.3135,-2.3135,-2.3135,-2.3135,-2.3135,-2.3135,-2.3135,-2.3135,-2.3135,-2.3135,-2.3135,-2.3135,-2.3135,-2.3135,-2.3135,-2.3135,-2.3135,-2.3135,-2.3135,-2.3135,-2.3135,-2.3135,-2.3135,-2.3135,-2.3135,-2.3135,-2.3008,-2.2582,-2.1703,-2.1024,-2.0365,-1.9714,-1.9279,-1.9204,-1.9844,-1.9923,-1.9923,-1.9923,-1.9599,-1.9274,-1.9274,-1.7334,-1.669,-1.823,-1.6116,-1.5304,-1.6601,-1.6026,-1.5696,-1.5696,-1.5296,-1.4972,-1.4783,-1.4903,-1.5197,-1.5658,-1.5772,-1.5832,-1.5832,-1.5832,-1.5925,-1.6112,-1.6406,-1.6767,-1.7174,-1.7462,-1.7582,-1.7582,-1.7582,-1.7582,-1.7582,-1.7582,-1.7582,-1.7582,-3.1386,-3.1386,-3.1436,-3.1599,-3.1637,-3.1813,-3.2378,-3.2466,-3.2616,-3.3018,-3.2717,-3.2616,-3.3031,-3.3081,-3.3081,-3.3081,-3.3081,-3.2905,-3.2491,-3.2303,-3.18,-3.0884,-3.0696,-3.0357,-2.9804,-2.9028,-2.8597,-2.8597,-2.6685,-2.571,-2.5568,-2.4101,-2.3517,-2.3551,-2.3212,-2.3135,-2.3135,-2.3135,-2.3135,-2.3135,-2.3135,-2.3135,-2.3135,-2.3135,-2.3135,-2.3135,-2.3135,-2.3135,-2.3135,-2.3135,-2.3135,-2.3135,-2.3135,-2.3135,-2.3135,-2.3135,-2.3135,-2.3135,-2.3135,-2.3135,-2.3135,-2.3135,-2.3135,-2.3135,-2.3135,-2.3135,-2.3135,-2.3135,-2.3135,-2.3008,-2.2588,-2.1541,-2.0689,-2.0714,-2.0038,-1.9599,-2.0079,-2.0401,-2.0566,-2.0566,-2.0323,-2.0245,-2.0566,-1.863,-1.7747,-1.8877,-1.6527,-1.5876,-1.7658,-1.6764,-1.6191,-1.6191,-1.5959,-1.5533,-1.5046,-1.505,-1.5337,-1.5832,-1.5832,-1.5832,-1.5832,-1.5832,-1.6039,-1.6413,-1.6613,-1.6921,-1.7295,-1.7502,-1.7582,-1.7582,-1.7582,-1.7582,-1.7582,-1.7582,-1.7582,-1.7582,-3.1386,-3.1386,-3.1562,-3.2102,-3.2202,-3.239,-3.298,-3.3068,-3.3068,-3.3081,-3.3068,-3.3068,-3.3081,-3.3081,-3.3081,-3.3081,-3.3081,-3.3081,-3.3068,-3.2528,-3.1964,-3.1399,-3.0884,-3.0357,-2.9804,-2.9792,-2.9792,-2.9792,-2.8597,-2.7834,-2.7412,-2.5249,-2.4367,-2.4702,-2.3637,-2.3135,-2.3135,-2.3135,-2.3135,-2.3135,-2.3135,-2.3135,-2.3135,-2.3135,-2.3135,-2.3135,-2.3135,-2.3135,-2.3135,-2.3135,-2.3135,-2.3135,-2.3135,-2.3135,-2.3135,-2.3135,-2.3135,-2.3135,-2.3135,-2.3135,-2.3135,-2.3135,-2.3135,-2.3135,-2.3135,-2.3135,-2.3135,-2.3135,-2.3135,-2.3008,-2.2588,-2.2168,-2.139,-1.9861,-2.0188,-2.0245,-1.9204,-1.9923,-2.0566,-2.0566,-1.9678,-1.9441,-2.0489,-1.863,-1.7747,-1.8877,-1.7908,-1.7738,-1.8957,-1.7908,-1.7261,-1.7261,-1.6514,-1.5749,-1.5053,-1.5251,-1.5538,-1.5832,-1.5832,-1.5832,-1.5832,-1.5832,-1.6146,-1.67,-1.6707,-1.7041,-1.7582,-1.7582,-1.7582,-1.7582,-1.7582,-1.7582,-1.7582,-1.7582,-1.7582,-1.7582,-3.2541,-3.2541,-3.2591,-3.2767,-3.2805,-3.2867,-3.3056,-3.3081,-3.3081,-3.3081,-3.3081,-3.3081,-3.3081,-3.3081,-3.3081,-3.3081,-3.3081,-3.3081,-3.3081,-3.2905,-3.2378,-3.1436,-3.1235,-3.0721,-2.9817,-2.9792,-2.9792,-2.9792,-2.8688,-2.7681,-2.6806,-2.6073,-2.5832,-2.588,-2.4798,-2.4296,-2.4211,-2.3474,-2.3135,-2.3135,-2.3135,-2.3135,-2.3135,-2.3135,-2.3135,-2.3135,-2.3135,-2.3135,-2.3135,-2.3135,-2.3135,-2.3135,-2.3135,-2.3135,-2.3135,-2.3135,-2.3135,-2.3135,-2.3135,-2.3135,-2.3135,-2.3135,-2.3135,-2.3135,-2.3135,-2.3135,-2.3135,-2.3135,-2.3135,-2.3096,-2.2959,-2.2363,-2.1753,-2.1269,-2.0876,-2.0479,-2.0157,-2.0401,-2.0566,-2.0566,-2.0323,-2.0245,-2.0566,-1.9274,-1.863,-1.8957,-1.7245,-1.6683,-1.7738,-1.7504,-1.7342,-1.7342,-1.6514,-1.6088,-1.608,-1.5602,-1.5538,-1.5832,-1.5832,-1.5832,-1.5838,-1.6039,-1.6346,-1.6714,-1.6921,-1.7228,-1.7582,-1.7582,-1.7582,-1.7582,-1.7582,-1.7582,-1.7582,-1.7582,-1.7582,-1.7582,-3.3081,-3.3081,-3.3081,-3.3081,-3.3081,-3.3081,-3.3081,-3.3081,-3.3081,-3.3081,-3.3081,-3.3081,-3.3081,-3.3081,-3.3081,-3.3081,-3.3081,-3.3081,-3.3081,-3.3081,-3.2667,-3.1738,-3.1499,-3.0984,-3.0118,-2.9892,-2.9792,-2.9792,-2.9106,-2.8359,-2.7718,-2.729,-2.7128,-2.7035,-2.5462,-2.4787,-2.4702,-2.3551,-2.3135,-2.3135,-2.3135,-2.3135,-2.3135,-2.3135,-2.3135,-2.3135,-2.3135,-2.3135,-2.3135,-2.3135,-2.3135,-2.3135,-2.3135,-2.3135,-2.3135,-2.3135,-2.3135,-2.3135,-2.3135,-2.3135,-2.3135,-2.3135,-2.3135,-2.3135,-2.3135,-2.3135,-2.3135,-2.3135,-2.3135,-2.3135,-2.3135,-2.2578,-2.207,-2.1914,-2.1289,-2.0762,-2.0586,-2.0566,-2.0566,-2.0566,-2.0566,-2.0566,-2.0566,-2.0001,-1.9599,-1.9599,-1.8292,-1.7811,-1.8461,-1.7738,-1.7563,-1.8186,-1.7787,-1.729,-1.6854,-1.6485,-1.6106,-1.5832,-1.5832,-1.5832,-1.5838,-1.6139,-1.6433,-1.672,-1.7021,-1.7315,-1.7582,-1.7582,-1.7582,-1.7582,-1.7582,-1.7582,-1.7582,-1.7582,-1.7582,-1.7582,-3.3081,-3.3081,-3.3081,-3.3081,-3.3081,-3.3081,-3.3081,-3.3081,-3.3081,-3.3081,-3.3081,-3.3081,-3.3081,-3.3081,-3.3081,-3.3081,-3.3081,-3.3081,-3.3081,-3.3081,-3.2817,-3.224,-3.1687,-3.1148,-3.062,-3.0068,-2.9792,-2.9792,-2.9792,-2.9792,-2.9792,-2.8688,-2.8255,-2.8096,-2.5953,-2.4957,-2.4872,-2.3637,-2.3135,-2.3135,-2.3135,-2.3135,-2.3135,-2.3135,-2.3135,-2.3135,-2.3135,-2.3135,-2.3135,-2.3135,-2.3135,-2.3135,-2.3135,-2.3135,-2.3135,-2.3135,-2.3135,-2.3135,-2.3135,-2.3135,-2.3135,-2.3135,-2.3135,-2.3135,-2.3135,-2.3135,-2.3135,-2.3135,-2.3135,-2.3135,-2.3135,-2.2793,-2.2373,-2.1953,-2.1523,-2.1074,-2.0625,-2.0566,-2.0566,-2.0566,-2.0566,-2.0566,-2.0566,-2.0566,-2.0566,-2.0479,-2.0508,-2.0528,-2.0528,-1.8612,-1.8203,-1.9698,-1.994,-1.9204,-1.7334,-1.7604,-1.7037,-1.5832,-1.5832,-1.5832,-1.5838,-1.6159,-1.6446,-1.6727,-1.7041,-1.7335,-1.7582,-1.7582,-1.7582,-1.7582,-1.7582,-1.7582,-1.7582,-1.7582,-1.7582,-1.7582,-3.3081,-3.3081,-3.3081,-3.3081,-3.3081,-3.3081,-3.3081,-3.3081,-3.3081,-3.3081,-3.3081,-3.3081,-3.3081,-3.3081,-3.3081,-3.3081,-3.3081,-3.3081,-3.3081,-3.3081,-3.2817,-3.224,-3.1687,-3.1148,-3.062,-3.0068,-2.9792,-2.9792,-2.9792,-2.9792,-2.9792,-2.9534,-2.9365,-2.9287,-2.7046,-2.6141,-2.5975,-2.3973,-2.3135,-2.3135,-2.3135,-2.3135,-2.3135,-2.3135,-2.3135,-2.3135,-2.3135,-2.3135,-2.3135,-2.3135,-2.3135,-2.3135,-2.3135,-2.3135,-2.3135,-2.3135,-2.3135,-2.3135,-2.3135,-2.3135,-2.3135,-2.3135,-2.3135,-2.3135,-2.3135,-2.3135,-2.3135,-2.3135,-2.3135,-2.3135,-2.3135,-2.2793,-2.2373,-2.1953,-2.1523,-2.1074,-2.0625,-2.0566,-2.0566,-2.0566,-2.0566,-2.0566,-2.0566,-2.0566,-2.0245,-1.9441,-1.9638,-1.9813,-1.9813,-1.9596,-1.9925,-2.0818,-2.0651,-1.9826,-1.841,-1.7972,-1.7037,-1.5832,-1.5832,-1.5832,-1.5845,-1.6366,-1.664,-1.6734,-1.7255,-1.7515,-1.7582,-1.7582,-1.7582,-1.7582,-1.7582,-1.7582,-1.7582,-1.7582,-1.7582,-1.7582,-3.324,-3.3081,-3.3081,-3.3081,-3.3081,-3.3081,-3.3081,-3.3081,-3.3081,-3.3081,-3.3081,-3.3081,-3.3081,-3.3081,-3.3081,-3.3081,-3.3081,-3.3081,-3.3081,-3.3081,-3.293,-3.2616,-3.1825,-3.126,-3.0972,-3.0193,-2.9792,-2.9792,-2.9792,-2.9792,-2.9792,-2.9792,-2.9792,-2.9702,-2.8039,-2.6964,-2.6389,-2.4638,-2.3551,-2.3135,-2.3135,-2.3135,-2.3135,-2.3135,-2.3135,-2.3135,-2.3135,-2.3135,-2.3135,-2.3135,-2.3135,-2.3135,-2.3135,-2.3135,-2.3135,-2.3135,-2.3135,-2.3135,-2.3135,-2.3135,-2.3135,-2.3135,-2.3135,-2.3135,-2.3135,-2.3135,-2.3135,-2.3135,-2.3135,-2.3135,-2.3135,-2.2949,-2.2656,-2.2236,-2.1973,-2.167,-2.123,-2.1172,-2.1172,-2.1172,-2.1172,-2.1172,-2.1172,-2.1172,-2.0922,-2.0339,-2.0545,-2.0667,-2.0667,-2.1053,-2.1436,-2.1744,-2.1646,-2.098,-1.9987,-1.8409,-1.7318,-1.6662,-1.6662,-1.6739,-1.6982,-1.8035,-1.8243,-1.7823,-1.8295,-1.8199,-1.7582,-1.7582,-1.7582,-1.7582,-1.7582,-1.7582,-1.7582,-1.7582,-1.7582,-1.7582,-3.3556,-3.324,-3.3081,-3.3081,-3.3081,-3.3081,-3.3081,-3.3081,-3.3081,-3.3081,-3.3081,-3.3081,-3.3081,-3.3081,-3.3081,-3.3081,-3.3081,-3.3081,-3.3081,-3.3081,-3.3081,-3.3081,-3.2001,-3.1386,-3.1386,-3.0344,-2.9792,-2.9792,-2.9792,-2.9792,-2.9792,-2.9792,-2.9792,-2.9792,-2.8597,-2.7602,-2.6637,-2.5378,-2.4211,-2.3299,-2.3135,-2.3135,-2.3135,-2.3135,-2.3135,-2.3135,-2.3135,-2.3135,-2.3135,-2.3135,-2.3135,-2.3135,-2.3135,-2.3135,-2.3135,-2.3135,-2.3135,-2.3135,-2.3135,-2.3135,-2.3135,-2.3135,-2.3135,-2.3135,-2.3135,-2.3135,-2.3135,-2.3135,-2.3135,-2.3135,-2.3135,-2.3135,-2.2998,-2.2578,-2.251,-2.2363,-2.1943,-2.1885,-2.1885,-2.1885,-2.1885,-2.1885,-2.1885,-2.1885,-2.1885,-2.1885,-2.1943,-2.1982,-2.1982,-2.2383,-2.2607,-2.2607,-2.2607,-2.214,-2.1293,-1.9139,-1.7956,-1.7956,-1.7956,-1.8224,-1.8647,-1.9934,-2.0093,-1.9164,-1.9485,-1.8812,-1.7582,-1.7582,-1.7582,-1.7582,-1.7582,-1.7582,-1.7582,-1.7786,-1.7891,-1.7891,-3.4511,-3.3713,-3.3081,-3.3081,-3.3081,-3.3081,-3.3081,-3.3081,-3.3081,-3.3081,-3.3081,-3.3081,-3.3081,-3.3081,-3.3081,-3.3081,-3.3081,-3.3081,-3.3081,-3.3081,-3.3081,-3.3081,-3.2001,-3.1386,-3.1386,-3.0344,-2.9792,-2.9792,-2.9792,-2.9792,-2.9792,-2.9792,-2.9792,-2.9792,-2.8597,-2.8016,-2.7683,-2.5703,-2.4702,-2.4457,-2.3474,-2.3135,-2.3135,-2.3135,-2.3135,-2.3135,-2.3135,-2.3135,-2.3135,-2.3135,-2.3135,-2.3135,-2.3135,-2.3135,-2.3135,-2.3135,-2.3135,-2.3135,-2.3135,-2.3135,-2.3135,-2.3135,-2.3135,-2.3135,-2.3135,-2.3135,-2.3135,-2.3135,-2.3135,-2.3135,-2.3135,-2.3135,-2.2998,-2.2578,-2.251,-2.2363,-2.1943,-2.1885,-2.1885,-2.1885,-2.1885,-2.1885,-2.1885,-2.1885,-2.1885,-2.1885,-2.2217,-2.2412,-2.2412,-2.2812,-2.3047,-2.3047,-2.3047,-2.2425,-2.1293,-1.9943,-1.9222,-1.9222,-1.9222,-1.941,-1.9845,-2.0404,-2.0093,-1.9164,-1.9485,-1.8812,-1.7582,-1.7582,-1.7582,-1.7582,-1.7582,-1.7582,-1.7793,-1.8916,-1.9324,-1.942,-3.491,-3.4275,-3.3797,-3.324,-3.3081,-3.3081,-3.3081,-3.3081,-3.3081,-3.3081,-3.3081,-3.3081,-3.3081,-3.3081,-3.3081,-3.3081,-3.3081,-3.3081,-3.3081,-3.3081,-3.3081,-3.3081,-3.2277,-3.1562,-3.0984,-3.0193,-2.9792,-2.9792,-2.9792,-2.9792,-2.9792,-2.9792,-2.9792,-2.9792,-2.9275,-2.8688,-2.8004,-2.7012,-2.5859,-2.4787,-2.4211,-2.3627,-2.3135,-2.3135,-2.3135,-2.3135,-2.3135,-2.3135,-2.3135,-2.3135,-2.3135,-2.3135,-2.3135,-2.3135,-2.3135,-2.3135,-2.3135,-2.3135,-2.3135,-2.3135,-2.3135,-2.3135,-2.3135,-2.3135,-2.3135,-2.3135,-2.3135,-2.3135,-2.3135,-2.3135,-2.3135,-2.3135,-2.3076,-2.2881,-2.2852,-2.2783,-2.2588,-2.2559,-2.2559,-2.2559,-2.2559,-2.2559,-2.2559,-2.2559,-2.2559,-2.2559,-2.2744,-2.2852,-2.2852,-2.3037,-2.3135,-2.3135,-2.3135,-2.2862,-2.2306,-2.1033,-2.0486,-2.0486,-2.0711,-2.1107,-2.1482,-2.2533,-2.2143,-2.0514,-2.0672,-1.9517,-1.7582,-1.7582,-1.7996,-1.8715,-1.8715,-1.9109,-1.9922,-2.0531,-2.0743,-2.0845,-3.5695,-3.5061,-3.4428,-3.3641,-3.324,-3.3081,-3.3081,-3.3081,-3.3081,-3.3081,-3.3081,-3.3081,-3.3081,-3.3081,-3.3081,-3.3081,-3.3081,-3.3081,-3.3081,-3.3081,-3.3081,-3.3081,-3.2403,-3.1574,-3.0633,-3.0068,-2.9792,-2.9792,-2.9792,-2.9792,-2.9792,-2.9792,-2.9792,-2.9792,-2.9792,-2.9275,-2.8518,-2.8176,-2.7093,-2.5535,-2.5041,-2.4296,-2.3464,-2.3464,-2.3299,-2.3135,-2.3387,-2.3299,-2.3135,-2.3135,-2.3135,-2.3135,-2.3135,-2.3135,-2.3135,-2.3135,-2.3135,-2.3135,-2.3135,-2.3135,-2.3135,-2.3135,-2.3135,-2.3135,-2.3135,-2.3135,-2.3135,-2.3135,-2.3135,-2.3135,-2.3135,-2.3135,-2.3135,-2.3135,-2.3135,-2.3135,-2.3135,-2.3135,-2.3135,-2.3135,-2.3135,-2.3135,-2.3135,-2.3135,-2.3135,-2.3135,-2.3135,-2.3135,-2.3135,-2.3135,-2.3135,-2.3135,-2.3135,-2.3135,-2.3135,-2.2217,-2.1747,-2.1756,-2.2189,-2.2603,-2.3093,-2.4477,-2.4003,-2.2156,-2.2156,-2.0837,-1.8499,-1.8499,-1.9117,-2.0135,-2.0135,-2.0735,-2.1752,-2.2055,-2.2156,-2.2257,-3.7601,-3.6015,-3.4664,-3.4581,-3.3797,-3.3081,-3.3081,-3.3081,-3.3081,-3.3081,-3.3081,-3.3081,-3.3081,-3.3081,-3.3081,-3.3081,-3.3081,-3.3081,-3.3081,-3.3081,-3.3081,-3.3081,-3.2026,-3.1185,-3.062,-3.0068,-2.9792,-2.9792,-2.9792,-2.9792,-2.9792,-2.9792,-2.9792,-2.9792,-2.9792,-2.9792,-2.9624,-2.8518,-2.8016,-2.7671,-2.5608,-2.4787,-2.4702,-2.4702,-2.4049,-2.3222,-2.4296,-2.3963,-2.3135,-2.3135,-2.3135,-2.3135,-2.3135,-2.3135,-2.3135,-2.3135,-2.3135,-2.3135,-2.3135,-2.3135,-2.3135,-2.3135,-2.3135,-2.3135,-2.3135,-2.3135,-2.3135,-2.3135,-2.3135,-2.3135,-2.3135,-2.3135,-2.3135,-2.3135,-2.3135,-2.3135,-2.3135,-2.3135,-2.3135,-2.3135,-2.3135,-2.3135,-2.3135,-2.3135,-2.3135,-2.3135,-2.3135,-2.3135,-2.3135,-2.3135,-2.3135,-2.3135,-2.3135,-2.3135,-2.3135,-2.3047,-2.296,-2.296,-2.3396,-2.3913,-2.4331,-2.4863,-2.4506,-2.3583,-2.3583,-2.2767,-2.1448,-2.1448,-2.1448,-2.155,-2.155,-2.1651,-2.1853,-2.3076,-2.3583,-2.3692,-3.7919,-3.7204,-3.6253,-3.491,-3.4345,-3.3869,-3.324,-3.3081,-3.3081,-3.3081,-3.3081,-3.3081,-3.3081,-3.3081,-3.3081,-3.3081,-3.3081,-3.3081,-3.3081,-3.3081,-3.3081,-3.3081,-3.2001,-3.1298,-3.1097,-3.0231,-2.9792,-2.9792,-2.9792,-2.9792,-2.9792,-2.9792,-2.9792,-2.9792,-2.9792,-2.9792,-2.9792,-2.9365,-2.8767,-2.8004,-2.7186,-2.6449,-2.588,-2.588,-2.5557,-2.5305,-2.5724,-2.5136,-2.4125,-2.4125,-2.3714,-2.3135,-2.3135,-2.3135,-2.3135,-2.3135,-2.3135,-2.3135,-2.3135,-2.3135,-2.3135,-2.3135,-2.3135,-2.3135,-2.3135,-2.3135,-2.3135,-2.3135,-2.3135,-2.3135,-2.3135,-2.3135,-2.3135,-2.3135,-2.3135,-2.3135,-2.3135,-2.3135,-2.3135,-2.3135,-2.3135,-2.3135,-2.3135,-2.3135,-2.3135,-2.3135,-2.3135,-2.3135,-2.3135,-2.3135,-2.3135,-2.3135,-2.3135,-2.3135,-2.3135,-2.3135,-2.3135,-2.3144,-2.3848,-2.4258,-2.4443,-2.5156,-2.4859,-2.3692,-2.3692,-2.2968,-2.1752,-2.1752,-2.2156,-2.2968,-2.2968,-2.3484,-2.4205,-2.4716,-2.4922,-2.502,-3.8472,-3.7994,-3.7357,-3.5935,-3.5142,-3.4428,-3.3713,-3.3313,-3.3081,-3.3081,-3.3081,-3.3081,-3.3081,-3.3081,-3.3081,-3.3081,-3.3081,-3.3081,-3.3081,-3.3081,-3.3081,-3.3081,-3.2001,-3.1386,-3.1386,-3.0344,-2.9792,-2.9792,-2.9792,-2.9792,-2.9792,-2.9792,-2.9792,-2.9792,-2.9792,-2.9792,-2.9792,-2.9792,-2.9365,-2.8597,-2.8255,-2.7683,-2.6964,-2.6964,-2.6801,-2.6565,-2.6883,-2.6295,-2.5294,-2.4957,-2.4296,-2.3551,-2.3222,-2.3135,-2.3135,-2.3135,-2.3135,-2.3135,-2.3135,-2.3135,-2.3135,-2.3135,-2.3135,-2.3135,-2.3135,-2.3135,-2.3135,-2.3135,-2.3135,-2.3135,-2.3135,-2.3135,-2.3135,-2.3135,-2.3135,-2.3135,-2.3135,-2.3135,-2.3135,-2.3135,-2.3135,-2.3135,-2.3135,-2.3135,-2.3135,-2.3135,-2.3135,-2.3135,-2.3135,-2.3135,-2.3135,-2.3135,-2.3135,-2.3135,-2.3135,-2.3135,-2.3213,-2.335,-2.4072,-2.4492,-2.4648,-2.5391,-2.5226,-2.4304,-2.4304,-2.3791,-2.2968,-2.2968,-2.3484,-2.4304,-2.4304,-2.4913,-2.5742,-2.5742,-2.5742,-2.5742,-3.9424,-3.8546,-3.7829,-3.7829,-3.6094,-3.4746,-3.4664,-3.3797,-3.3081,-3.3081,-3.3081,-3.3081,-3.3081,-3.3081,-3.3081,-3.3081,-3.3081,-3.3081,-3.3081,-3.3081,-3.3081,-3.3081,-3.2001,-3.1386,-3.1386,-3.0344,-2.9792,-2.9792,-2.9792,-2.9792,-2.9792,-2.9792,-2.9792,-2.9792,-2.9792,-2.9792,-2.9792,-2.9792,-2.9792,-2.9702,-2.8597,-2.8084,-2.8084,-2.8084,-2.7452,-2.6648,-2.7763,-2.7441,-2.6307,-2.521,-2.4787,-2.4628,-2.3474,-2.3135,-2.3135,-2.3135,-2.3135,-2.3135,-2.3135,-2.3135,-2.3135,-2.3135,-2.3135,-2.3135,-2.3135,-2.3135,-2.3135,-2.3135,-2.3135,-2.3135,-2.3135,-2.3135,-2.3135,-2.3135,-2.3135,-2.3135,-2.3135,-2.3135,-2.3135,-2.3135,-2.3135,-2.3135,-2.3135,-2.3135,-2.3135,-2.3135,-2.3135,-2.3135,-2.3135,-2.3135,-2.3135,-2.3135,-2.3135,-2.3135,-2.3135,-2.3135,-2.3359,-2.3799,-2.4219,-2.4648,-2.5088,-2.5527,-2.5742,-2.5742,-2.5742,-2.5742,-2.5742,-2.5742,-2.5742,-2.5742,-2.5742,-2.5742,-2.5742,-2.5742,-2.5742,-2.5742,-3.9424,-3.9104,-3.8708,-3.7919,-3.6632,-3.5507,-3.4828,-3.3797,-3.3081,-3.3081,-3.3081,-3.3081,-3.3081,-3.3081,-3.3081,-3.3081,-3.3081,-3.3081,-3.3081,-3.3081,-3.3081,-3.3081,-3.2001,-3.1386,-3.1386,-3.0344,-2.9792,-2.9792,-2.9792,-2.9792,-2.9792,-2.9792,-2.9792,-2.9792,-2.9792,-2.9792,-2.9792,-2.9792,-2.9792,-2.9792,-2.9443,-2.9275,-2.9275,-2.9275,-2.9118,-2.887,-2.9197,-2.8609,-2.7441,-2.6378,-2.5462,-2.4628,-2.3474,-2.3135,-2.3135,-2.3135,-2.3135,-2.3135,-2.3135,-2.3135,-2.3135,-2.3135,-2.3135,-2.3135,-2.3135,-2.3135,-2.3135,-2.3135,-2.3135,-2.3135,-2.3135,-2.3135,-2.3135,-2.3135,-2.3135,-2.3135,-2.3135,-2.3135,-2.3135,-2.3135,-2.3135,-2.3135,-2.3135,-2.3135,-2.3135,-2.3135,-2.3135,-2.3135,-2.3135,-2.3135,-2.3135,-2.3135,-2.3135,-2.3135,-2.3135,-2.3135,-2.3359,-2.3799,-2.4219,-2.4648,-2.5088,-2.5527,-2.5742,-2.5742,-2.5742,-2.5742,-2.5742,-2.5742,-2.5742,-2.5742,-2.5742,-2.5742,-2.5742,-2.5742,-2.5742,-2.5742,-3.9424,-3.9424,-3.9177,-3.8546,-3.7572,-3.6462,-3.544,-3.4428,-3.3556,-3.3154,-3.3081,-3.3081,-3.3081,-3.3081,-3.3081,-3.3081,-3.3081,-3.3081,-3.3081,-3.3081,-3.3081,-3.3081,-3.2202,-3.1612,-3.1399,-3.0557,-3.0018,-2.9792,-2.9792,-2.9792,-2.9792,-2.9792,-2.9792,-2.9792,-2.9792,-2.9792,-2.9792,-2.9792,-2.9792,-2.9792,-2.9792,-2.9792,-2.9792,-2.9792,-2.9792,-2.9792,-2.9792,-2.9365,-2.8597,-2.7533,-2.6119,-2.4628,-2.3474,-2.3135,-2.3135,-2.3135,-2.3135,-2.3135,-2.3135,-2.3135,-2.3135,-2.3135,-2.3135,-2.3135,-2.3135,-2.3135,-2.3135,-2.3135,-2.3135,-2.3135,-2.3135,-2.3135,-2.3135,-2.3135,-2.3135,-2.3135,-2.3135,-2.3135,-2.3135,-2.3135,-2.3135,-2.3135,-2.3135,-2.3135,-2.3135,-2.3135,-2.3135,-2.3135,-2.3135,-2.3135,-2.3135,-2.3135,-2.3135,-2.3223,-2.3398,-2.3398,-2.3613,-2.4043,-2.4473,-2.4912,-2.5342,-2.5615,-2.5742,-2.5742,-2.5742,-2.5742,-2.5742,-2.5742,-2.5742,-2.5742,-2.5742,-2.5742,-2.5742,-2.5742,-2.5742,-2.5742,-3.9424,-3.9424,-3.9424,-3.9424,-3.8546,-3.751,-3.6526,-3.5521,-3.4511,-3.3471,-3.3313,-3.324,-3.324,-3.3154,-3.3081,-3.3081,-3.3081,-3.3081,-3.3081,-3.3081,-3.3081,-3.3081,-3.2566,-3.2039,-3.1474,-3.0909,-3.0369,-2.9867,-2.9817,-2.9792,-2.9792,-2.9792,-2.9792,-2.9792,-2.9792,-2.9792,-2.9792,-2.9792,-2.9792,-2.9792,-2.9792,-2.9792,-2.9792,-2.9792,-2.9792,-2.9792,-2.9792,-2.9792,-2.9624,-2.8505,-2.6685,-2.4787,-2.3637,-2.3212,-2.3222,-2.3135,-2.3135,-2.3135,-2.3135,-2.3135,-2.3135,-2.3135,-2.3135,-2.3135,-2.3135,-2.3135,-2.3135,-2.3135,-2.3135,-2.3135,-2.3135,-2.3135,-2.3135,-2.3135,-2.3135,-2.3135,-2.3135,-2.3135,-2.3135,-2.3135,-2.3135,-2.3135,-2.3135,-2.3135,-2.3135,-2.3135,-2.3135,-2.3135,-2.3135,-2.3135,-2.3135,-2.3135,-2.3174,-2.3389,-2.3789,-2.3867,-2.4092,-2.4482,-2.4883,-2.5303,-2.5742,-2.5742,-2.5742,-2.5742,-2.5742,-2.5742,-2.5742,-2.5742,-2.5742,-2.5742,-2.5742,-2.5742,-2.5742,-2.5742,-2.5742,-2.5742,-3.9424,-3.9424,-3.9424,-3.9424,-3.8546,-3.7753,-3.751,-3.654,-3.5814,-3.5574,-3.4815,-3.4345,-3.4345,-3.3641,-3.3081,-3.3081,-3.3081,-3.3081,-3.3081,-3.3081,-3.3081,-3.3081,-3.2955,-3.2616,-3.2051,-3.111,-3.0557,-3.0432,-3.0005,-2.9792,-2.9792,-2.9792,-2.9792,-2.9792,-2.9792,-2.9792,-2.9792,-2.9792,-2.9792,-2.9792,-2.9792,-2.9792,-2.9792,-2.9792,-2.9792,-2.9792,-2.9792,-2.9792,-2.9624,-2.8505,-2.7197,-2.5975,-2.4798,-2.4457,-2.4296,-2.3387,-2.3135,-2.3135,-2.3135,-2.3135,-2.3135,-2.3135,-2.3135,-2.3135,-2.3135,-2.3135,-2.3135,-2.3135,-2.3135,-2.3135,-2.3135,-2.3135,-2.3135,-2.3135,-2.3135,-2.3135,-2.3135,-2.3135,-2.3135,-2.3135,-2.3135,-2.3135,-2.3135,-2.3135,-2.3135,-2.3135,-2.3135,-2.3135,-2.3135,-2.3135,-2.3135,-2.3135,-2.3467,-2.3691,-2.3789,-2.4463,-2.4834,-2.4922,-2.5019,-2.5303,-2.5742,-2.5742,-2.5742,-2.5742,-2.5742,-2.5742,-2.5742,-2.5742,-2.5742,-2.5742,-2.5742,-2.5742,-2.5742,-2.5742,-2.5742,-2.5742,-3.9424,-3.9424,-3.9424,-3.9424,-3.8943,-3.8383,-3.7904,-3.7343,-3.6774,-3.629,-3.5734,-3.5197,-3.4746,-3.4191,-3.3628,-3.3154,-3.3081,-3.3081,-3.3081,-3.3081,-3.3081,-3.3081,-3.3081,-3.293,-3.2629,-3.18,-3.1122,-3.062,-3.0331,-3.0043,-2.9792,-2.9792,-2.9792,-2.9792,-2.9792,-2.9792,-2.9792,-2.9792,-2.9792,-2.9792,-2.9792,-2.9792,-2.9792,-2.9792,-2.9792,-2.9792,-2.9792,-2.9792,-2.9624,-2.8505,-2.7763,-2.6953,-2.5284,-2.4787,-2.4542,-2.3464,-2.3135,-2.3135,-2.3135,-2.3135,-2.3135,-2.3135,-2.3135,-2.3135,-2.3135,-2.3135,-2.3135,-2.3135,-2.3135,-2.3135,-2.3135,-2.3135,-2.3135,-2.3135,-2.3135,-2.3135,-2.3135,-2.3135,-2.3135,-2.3135,-2.3135,-2.3135,-2.3135,-2.3135,-2.3135,-2.3135,-2.3135,-2.3135,-2.3135,-2.3135,-2.3232,-2.3437,-2.3672,-2.3984,-2.4394,-2.4844,-2.5176,-2.5391,-2.5391,-2.5508,-2.5742,-2.5742,-2.5742,-2.5742,-2.5742,-2.5742,-2.5742,-2.5742,-2.5742,-2.5742,-2.5742,-2.5742,-2.5742,-2.5742,-2.5742,-2.5742,-3.9424,-3.9424,-3.9424,-3.9424,-3.9424,-3.9104,-3.8234,-3.8069,-3.7738,-3.6838,-3.6604,-3.6146,-3.5292,-3.491,-3.4345,-3.3484,-3.324,-3.3081,-3.3081,-3.3081,-3.3081,-3.3081,-3.3081,-3.3081,-3.3081,-3.2604,-3.1876,-3.0884,-3.0708,-3.0382,-2.993,-2.9829,-2.9792,-2.9792,-2.9792,-2.9792,-2.9792,-2.9792,-2.9792,-2.9792,-2.9792,-2.9792,-2.9792,-2.9792,-2.9792,-2.9792,-2.9792,-2.9792,-2.9624,-2.8688,-2.8426,-2.8016,-2.6025,-2.5368,-2.5115,-2.4049,-2.3637,-2.3637,-2.3474,-2.3387,-2.3299,-2.3135,-2.3135,-2.3135,-2.3135,-2.3135,-2.3135,-2.3135,-2.3135,-2.3135,-2.3135,-2.3135,-2.3135,-2.3135,-2.3135,-2.3135,-2.3135,-2.3135,-2.3135,-2.3135,-2.3135,-2.3135,-2.3135,-2.3135,-2.3135,-2.3135,-2.3135,-2.3174,-2.3242,-2.3252,-2.3447,-2.3887,-2.3965,-2.4346,-2.5059,-2.5146,-2.5371,-2.5742,-2.5742,-2.5742,-2.5742,-2.5742,-2.5742,-2.5742,-2.5742,-2.5742,-2.5742,-2.5742,-2.5742,-2.5742,-2.5742,-2.5742,-2.5742,-2.5742,-2.5742,-2.5742,-3.9424,-3.9424,-3.9424,-3.9424,-3.9424,-3.9337,-3.9192,-3.9177,-3.9104,-3.9017,-3.8144,-3.751,-3.7434,-3.5775,-3.4664,-3.4511,-3.3641,-3.3081,-3.3081,-3.3081,-3.3081,-3.3081,-3.3081,-3.3081,-3.3081,-3.3006,-3.2641,-3.1989,-3.1072,-3.057,-3.0495,-3.0018,-2.9792,-2.9792,-2.9792,-2.9792,-2.9792,-2.9792,-2.9792,-2.9792,-2.9792,-2.9792,-2.9792,-2.9792,-2.9792,-2.9792,-2.9792,-2.9792,-2.9792,-2.9624,-2.9534,-2.9365,-2.8096,-2.7671,-2.7429,-2.6378,-2.6058,-2.5808,-2.4882,-2.4542,-2.4296,-2.3387,-2.3135,-2.3135,-2.3135,-2.3135,-2.3135,-2.3135,-2.3135,-2.3135,-2.3135,-2.3135,-2.3135,-2.3135,-2.3135,-2.3135,-2.3135,-2.3135,-2.3135,-2.3135,-2.3135,-2.3135,-2.3135,-2.3135,-2.3135,-2.3135,-2.3135,-2.3301,-2.3682,-2.3701,-2.3896,-2.4316,-2.4697,-2.4951,-2.5068,-2.5449,-2.5674,-2.5742,-2.5742,-2.5742,-2.5742,-2.5742,-2.5742,-2.5742,-2.5742,-2.5742,-2.5742,-2.5742,-2.5742,-2.5742,-2.5742,-2.5742,-2.5742,-2.5742,-2.5742,-2.5742,-3.9424,-3.9424,-3.9424,-3.9424,-3.9424,-3.9424,-3.9424,-3.9424,-3.9424,-3.9424,-3.9017,-3.8472,-3.7829,-3.6476,-3.5278,-3.4746,-3.4275,-3.3713,-3.3154,-3.3081,-3.3081,-3.3081,-3.3081,-3.3081,-3.3081,-3.3081,-3.2955,-3.2692,-3.1901,-3.1348,-3.1047,-3.0796,-3.0683,-3.0683,-3.0683,-3.0683,-3.0683,-3.0683,-3.0683,-3.0683,-3.0683,-3.0683,-3.0683,-3.0683,-3.0683,-3.0683,-3.0683,-3.0683,-3.0683,-3.0683,-3.0683,-3.0511,-2.941,-2.907,-2.8811,-2.7713,-2.7386,-2.729,-2.6766,-2.668,-2.6454,-2.568,-2.5444,-2.5209,-2.4272,-2.4049,-2.3887,-2.3222,-2.3135,-2.3135,-2.3135,-2.3135,-2.3135,-2.3135,-2.3135,-2.3135,-2.3135,-2.3135,-2.3135,-2.3135,-2.3135,-2.3135,-2.3135,-2.3135,-2.3135,-2.3135,-2.3359,-2.3584,-2.3779,-2.4014,-2.4336,-2.4766,-2.4971,-2.5195,-2.5439,-2.5635,-2.5742,-2.5742,-2.5742,-2.5742,-2.5742,-2.5742,-2.5742,-2.5742,-2.5742,-2.5742,-2.5742,-2.5742,-2.5742,-2.5742,-2.5742,-2.5742,-2.5742,-2.5742,-2.5742,-2.5742]},{"header":{"parameterUnit":"m.s-1","parameterCategory":1,"la1":30.6,"la2":28.766,"lo1":-90.7593,"lo2":-88.6598,"dy":0.0162,"dx":0.0183,"nx":116,"ny":114,"refTime":"2023-06-25T12:00:00:Z","depth":0,"parameterNumber":3,"parameterNumberName":"V-component_of_WINDS"},"data":[0.0,0.0,0.0,0.0,0.0,0.0,0.0,0.0,0.0,0.0,0.0,0.0,0.0,0.0,0.0,0.0,0.0,0.0,0.0,0.0,0.0,0.0,0.0,0.0,0.0,0.0,0.0,0.0,0.0,0.0,0.0,0.0,0.0,0.0,0.0,0.0,0.0,0.0,0.0,0.0,0.0,0.0,0.0,0.0,0.0,0.0,0.0,0.0,0.0,0.0,0.0,0.0,0.0,0.0,0.0,0.0,0.0,0.0,0.0,0.0,0.0,0.0,0.0,0.0,0.0,0.0,0.0,0.0,0.0,0.0,0.0,0.0,0.0,0.0,0.0,0.0,0.0,0.0,0.0,0.0,0.0,0.0,0.0,0.0,0.0,0.0,0.0,0.0,0.0,0.0,0.0,0.0,0.0,0.0,0.0,0.0,0.0,0.0,0.0,0.0,0.0,0.0,0.0,0.0,0.0,0.0,0.0,0.0,0.0,0.0,0.0,0.0,0.0,0.0,0.0,0.0,0.0,0.0,0.0,0.0,0.0,0.0,0.0,0.0,0.0,0.0,0.0,0.0,0.0,0.0,0.0,0.0,0.0,0.0,0.0,0.0,0.0,0.0,0.0,0.0,0.0,0.0,0.0,0.0,0.0,0.0,0.0,0.0,0.0,0.0,0.0,0.0,0.0,0.0,0.0,0.0,0.0,0.0,0.0,0.0,0.0,0.0,0.0,0.0,0.0,0.0,0.0,0.0,0.0,0.0,0.0,0.0,0.0,0.0,0.0,0.0,0.0,0.0,0.0,0.0,0.0,0.0,0.0,0.0,0.0,0.0,0.0,0.0,0.0,0.0,0.0,0.0,0.0,0.0,0.0,0.0,0.0,0.0,0.0,0.0,0.0,0.0,0.0,0.0,0.0,0.0,0.0,0.0,0.0,0.0,0.0,0.0,0.0,0.0,0.0,0.0,0.0,0.0,0.0,0.0,0.0,0.0,0.0,0.0,0.0,0.0,0.0,0.0,0.0,0.0,0.0,0.0,0.0,0.0,0.0,0.0,0.0,0.0,0.0,0.0,0.0,0.0,0.0,0.0,0.0,0.0,0.0,0.0,0.0,0.0,0.0,0.0,0.0,0.0,0.0,0.0,0.0,0.0,0.0,0.0,0.0,0.0,0.0,0.0,0.0,0.0,0.0,0.0,0.0,0.0,0.0,0.0,0.0,0.0,0.0,0.0,0.0,0.0,0.0,0.0,0.0,0.0,0.0,0.0,0.0,0.0,0.0,0.0,0.0,0.0,0.0,0.0,0.0,0.0,0.0,0.0,0.0,0.0,0.0,0.0,0.0,0.0,0.0,0.0,0.0,0.0,0.0,0.0,0.0,0.0,0.0,0.0,0.0,0.0,0.0,0.0,0.0,0.0,0.0,0.0,0.0,0.0,0.0,0.0,0.0,0.0,0.0,0.0,0.0,0.0,0.0,0.0,0.0,0.0,0.0,0.0,0.0,0.0,0.0,0.0,0.0,0.0,0.0,0.0,0.0,0.0,0.0,0.0,0.0,0.0,0.0,0.0,0.0,0.0,0.0,0.0,0.0,0.0,0.0,0.0,0.0,0.0,0.0,0.0,0.0,0.0,0.0,0.0,0.0,0.0,0.0,0.0,0.0,0.0,0.0,0.0,0.0,0.0,0.0,0.0,0.0,0.0,0.0,0.0,0.0,0.0,0.0,0.0,0.0,0.0,0.0,0.0,0.0,0.0,0.0,0.0,0.0,0.0,0.0,0.0,0.0,0.0,0.0,0.0,0.0,0.0,0.0,0.0,0.0,0.0,0.0,0.0,0.0,0.0,0.0,0.0,0.0,0.0,0.0,0.0,0.0,0.0,0.0,0.0,0.0,0.0,0.0,0.0,0.0,0.0,0.0,0.0,0.0,0.0,0.0,0.0,0.0,0.0,0.0,0.0,0.0,0.0,0.0,0.0,0.0,0.0,0.0,0.0,0.0,0.0,0.0,0.0,0.0,0.0,0.0,0.0,0.0,0.0,0.0,0.0,0.0,0.0,0.0,0.0,0.0,0.0,0.0,0.0,0.0,0.0,0.0,0.0,0.0,0.0,0.0,0.0,0.0,0.0,0.0,0.0,0.0,0.0,0.0,0.0,0.0,0.0,0.0,0.0,0.0,0.0,0.0,0.0,0.0,0.0,0.0,0.0,0.0,0.0,0.0,0.0,0.0,0.0,0.0,0.0,0.0,0.0,0.0,0.0,0.0,0.0,0.0,0.0,0.0,0.0,0.0,0.0,0.0,0.0,0.0,0.0,0.0,0.0,0.0,0.0,0.0,0.0,0.0,0.0,0.0,0.0,0.0,0.0,0.0,0.0,0.0,0.0,0.0,0.0,0.0,0.0,0.0,0.0,0.0,0.0,0.0,0.0,0.0,0.0,0.0,0.0,0.0,0.0,0.0,0.0,0.0,0.0,0.0,0.0,0.0,0.0,0.0,0.0,0.0,0.0,0.0,0.0,0.0,0.0,0.0,0.0,0.0,0.0,0.0,0.0,0.0,0.0,0.0,0.0,0.0,0.0,0.0,0.0,0.0,0.0,0.0,0.0,0.0,0.0,0.0,0.0,0.0,0.0,0.0,0.0,0.0,0.0,0.0,0.0,0.0,0.0,0.0,0.0,0.0,0.0,0.0,0.0,0.0,0.0,0.0,0.0,0.0,0.0,0.0,0.0,0.0,0.0,0.0,0.0,0.0,0.0,0.0,0.0,0.0,0.0,0.0,0.0,0.0,0.0,0.0,0.0,0.0,0.0,0.0,0.0,0.0,0.0,0.0,0.0,0.0,0.0,0.0,0.0,0.0,0.0,0.0,0.0,0.0,0.0,0.0,0.0,0.0,0.0,0.0,0.0,0.0,0.0,0.0,0.0,0.0,0.0,0.0,0.0,0.0,0.0,0.0,0.0,0.0,0.0,0.0,0.0,0.0,0.0,0.0,0.0,0.0,0.0,0.0,0.0,0.0,0.0,0.0,0.0,0.0,0.0,0.0,0.0,0.0,0.0,0.0,0.0,0.0,0.0,0.0,0.0,0.0,0.0,0.0,0.0,0.0,0.0,0.0,0.0,0.0,0.0,0.0,0.0,0.0,0.0,0.0,0.0,0.0,0.0,0.0,0.0,0.0,0.0,0.0,0.0,0.0,0.0,0.0,0.0,0.0,0.0,0.0,0.0,0.0,0.0,0.0,0.0,0.0,0.0,0.0,0.0,0.0,0.0,0.0,0.0,0.0,0.0,0.0,0.0,0.0,0.0,0.0,0.0,0.0,0.0,0.0,0.0,0.0,0.0,0.0,0.0,0.0,0.0,0.0,0.0,0.0,0.0,0.0,0.0,0.0,0.0,0.0,0.0,0.0,0.0,0.0,0.0,0.0,0.0,0.0,0.0,0.0,0.0,0.0,0.0,0.0,0.0,0.0,0.0,0.0,0.0,0.0,0.0,0.0,0.0,0.0,0.0,0.0,0.0,0.0,0.0,0.0,0.0,0.0,0.0,0.0,0.0,0.0,0.0,0.0,0.0,0.0,0.0,0.0,0.0,0.0,0.0,0.0,0.0,0.0,0.0,0.0,0.0,0.0,0.0,0.0,0.0,0.0,0.0,0.0,0.0,0.0,0.0,0.0,0.0,0.0,0.0,0.0,0.0,0.0,0.0,0.0,0.0,0.0,0.0,0.0,0.0,0.0,0.0,0.0,0.0,0.0,0.0,0.0,0.0,0.0,0.0,0.0,0.0,0.0,0.0,0.0,0.0,0.0,0.0,0.0,0.0,0.0,0.0,0.0,0.0,0.0,0.0,0.0,0.0,0.0,0.0,0.0,0.0,0.0,0.0,0.0,0.0,0.0,0.0,0.0,0.0,0.0,0.0,0.0,0.0,0.0,0.0,0.0,0.0,0.0,0.0,0.0,0.0,0.0,0.0,0.0,0.0,0.0,0.0,0.0,0.0,0.0,0.0,0.0,0.0,0.0,0.0,0.0,0.0,0.0,0.0,0.0,0.0,0.0,0.0,0.0,0.0,0.0,0.0,0.0,0.0,0.0,0.0,0.0,0.0,0.0,0.0,0.0,0.0,0.0,0.0,0.0,0.0,0.0,0.0,0.0,0.0,0.0,0.0,0.0,0.0,0.0,0.0,0.0,0.0,0.0,0.0,0.0,0.0,0.0,0.0,0.0,0.0,0.0,0.0,0.0,0.0,0.0,0.0,0.0,0.0,0.0,0.0,0.0,0.0,0.0,0.0,0.0,0.0,0.0,0.0,0.0,0.0,0.0,0.0,0.0,0.0,0.0,0.0,0.0,0.0,0.0,0.0,0.0,0.0,0.0,0.0,0.0,0.0,0.0,0.0,0.0,0.0,0.0,0.0,0.0,0.0,0.0,0.0,0.0,0.0,0.0,0.0,0.0,0.0,0.0,0.0,0.0,0.0,0.0,0.0,0.0,0.0,0.0,0.0,0.0,0.0,0.0,0.0,0.0,0.0,0.0,0.0,0.0,0.0,0.0,0.0,0.0,0.0,0.0,0.0,0.0,0.0,0.0,0.0,0.0,0.0,0.0,0.0,0.0,0.0,0.0,0.0,0.0,0.0,0.0,0.0,0.0,0.0,0.0,0.0,0.0,0.0,0.0,0.0,0.0,0.0,0.0,0.0,0.0,0.0,0.0,0.0,0.0,0.0,0.0,0.0,0.0,0.0,0.0,0.0,0.0,0.0,0.0,0.0,0.0,0.0,0.0,0.0,0.0,0.0,0.0,0.0,0.0,0.0,0.0,0.0,0.0,0.0,0.0,0.0,0.0,0.0,0.0,0.0,0.0,0.0,0.0,0.0,0.0,0.0,0.0,0.0,0.0,0.0,0.0,0.0,0.0,0.0,0.0,0.0,0.0,0.0,0.0,0.0,0.0,0.0,0.0,0.0,0.0,0.0,0.0,0.0,0.0,0.0,0.0,0.0,0.0,0.0,0.0,0.0,0.0,0.0,0.0,0.0,0.0,0.0,0.0,0.0,0.0,0.0,0.0,0.0,0.0,0.0,0.0,0.0,0.0,0.0,0.0,0.0,0.0,0.0,0.0,0.0,0.0,0.0,0.0,0.0,0.0,0.0,0.0,0.0,0.0,0.0,0.0,0.0,0.0,0.0,0.0,0.0,0.0,0.0,0.0,0.0,0.0,0.0,0.0,0.0,0.0,0.0,0.0,0.0,0.0,0.0,0.0,0.0,0.0,0.0,0.0,0.0,0.0,0.0,0.0,0.0,0.0,0.0,0.0,0.0,0.0,0.0,0.0,0.0,0.0,0.0,0.0,0.0,0.0,0.0,0.0,0.0,0.0,0.0,0.0,0.0,0.0,0.0,0.0,0.0,0.0,0.0,0.0,0.0,0.0,0.0,0.0,0.0,0.0,0.0,0.0,0.0,0.0,0.0,0.0,0.0,0.0,0.0,0.0,0.0,0.0,0.0,0.0,0.0,0.0,0.0,0.0,0.0,0.0,0.0,0.0,0.0,0.0,0.0,0.0,0.0,0.0,0.0,0.0,0.0,0.0,0.0,0.0,0.0,0.0,0.0,0.0,0.0,0.0,0.0,0.0,0.0,0.0,0.0,0.0,0.0,0.0,0.0,0.0,0.0,0.0,0.0,0.0,0.0,0.0,0.0,0.0,0.0,0.0,0.0,0.0,0.0,0.0,0.0,0.0,0.0,0.0,0.0,0.0,0.0,0.0,0.0,0.0,0.0,0.0,0.0,0.0,0.0,0.0,0.0,0.0,0.0,0.0,0.0,0.0,0.0,0.0,0.0,0.0,0.0,0.0,0.0,0.0,0.0,0.0,0.0,0.0,0.0,0.0,0.0,0.0,0.0,0.0,0.0,0.0,0.0,0.0,0.0,0.0,0.0,0.0,0.0,0.0,0.0,0.0,0.0,0.0,0.0,0.0,0.0,0.0,0.0,0.0,0.0,0.0,0.0,0.0,0.0,0.0,0.0,0.0,0.0,0.0,0.0,0.0,0.0,0.0,0.0,0.0,0.0,0.0,0.0,0.0,0.0,0.0,0.0,0.0,0.0,0.0,0.0,0.0,0.0,-3.4218,-3.4314,0.0,0.0,0.0,0.0,0.0,0.0,0.0,0.0,0.0,0.0,0.0,0.0,0.0,0.0,0.0,0.0,0.0,0.0,0.0,0.0,0.0,0.0,0.0,0.0,0.0,0.0,0.0,0.0,0.0,0.0,0.0,0.0,0.0,0.0,0.0,0.0,0.0,0.0,0.0,0.0,0.0,0.0,0.0,0.0,0.0,0.0,0.0,0.0,0.0,0.0,0.0,0.0,0.0,0.0,0.0,0.0,0.0,0.0,0.0,0.0,0.0,0.0,0.0,0.0,0.0,0.0,0.0,0.0,0.0,0.0,0.0,0.0,0.0,0.0,0.0,0.0,0.0,0.0,0.0,0.0,0.0,0.0,0.0,0.0,0.0,0.0,0.0,0.0,0.0,0.0,0.0,0.0,0.0,0.0,0.0,0.0,0.0,0.0,0.0,0.0,0.0,0.0,0.0,0.0,0.0,0.0,0.0,0.0,0.0,0.0,0.0,0.0,0.0,0.0,-3.5026,-3.5084,0.0,0.0,0.0,0.0,0.0,0.0,0.0,0.0,0.0,0.0,0.0,0.0,0.0,0.0,0.0,0.0,0.0,0.0,0.0,0.0,0.0,0.0,0.0,0.0,0.0,0.0,0.0,0.0,0.0,0.0,0.0,0.0,0.0,0.0,0.0,0.0,0.0,0.0,0.0,0.0,0.0,0.0,0.0,0.0,0.0,0.0,0.0,0.0,0.0,0.0,0.0,0.0,0.0,0.0,0.0,0.0,0.0,0.0,0.0,0.0,0.0,0.0,0.0,0.0,0.0,0.0,0.0,0.0,0.0,0.0,0.0,0.0,0.0,0.0,0.0,0.0,0.0,0.0,0.0,0.0,0.0,0.0,0.0,0.0,0.0,0.0,0.0,0.0,0.0,0.0,0.0,0.0,0.0,0.0,0.0,0.0,0.0,0.0,0.0,0.0,0.0,0.0,0.0,0.0,0.0,0.0,0.0,0.0,-3.5595,-3.5795,-3.5949,-3.5949,-3.5949,-3.5949,-3.5949,-3.5776,-3.5493,-3.5493,0.0,0.0,0.0,0.0,0.0,0.0,0.0,0.0,0.0,0.0,0.0,0.0,0.0,0.0,0.0,0.0,0.0,0.0,0.0,0.0,0.0,0.0,0.0,0.0,0.0,0.0,0.0,0.0,0.0,0.0,0.0,0.0,0.0,0.0,0.0,0.0,0.0,0.0,-3.1089,-3.1089,-3.1473,-3.2143,0.0,0.0,0.0,0.0,0.0,0.0,0.0,0.0,0.0,0.0,0.0,0.0,0.0,0.0,0.0,0.0,0.0,0.0,0.0,0.0,0.0,0.0,0.0,0.0,0.0,0.0,0.0,0.0,0.0,0.0,0.0,0.0,0.0,0.0,0.0,0.0,0.0,0.0,0.0,0.0,0.0,0.0,0.0,0.0,-3.2666,-3.2679,0.0,0.0,0.0,0.0,0.0,0.0,0.0,0.0,0.0,0.0,0.0,0.0,0.0,-3.4983,-3.5225,-3.5374,-3.5792,-3.6483,-3.6531,-3.6949,-3.7661,-3.7661,-3.7661,-3.7661,-3.7661,0.0,-3.5493,-3.5493,0.0,0.0,0.0,0.0,0.0,0.0,0.0,0.0,0.0,0.0,0.0,0.0,0.0,0.0,0.0,0.0,0.0,0.0,0.0,0.0,0.0,0.0,0.0,0.0,0.0,0.0,0.0,0.0,0.0,0.0,0.0,0.0,0.0,0.0,0.0,0.0,-3.0627,-3.1236,-3.221,-3.221,-3.2401,-3.2766,-3.2775,-3.2371,-3.1675,-3.1759,0.0,0.0,0.0,0.0,0.0,0.0,0.0,0.0,0.0,0.0,0.0,0.0,0.0,0.0,0.0,0.0,0.0,0.0,0.0,0.0,0.0,0.0,0.0,0.0,0.0,0.0,0.0,0.0,0.0,0.0,0.0,0.0,0.0,0.0,0.0,0.0,0.0,0.0,0.0,-3.2987,-3.3083,-3.3564,-3.3199,-3.3025,0.0,0.0,0.0,0.0,0.0,0.0,0.0,0.0,0.0,-3.5971,-3.599,-3.6285,-3.6911,-3.6911,-3.7084,-3.743,-3.743,-3.7623,-3.8027,-3.8507,-3.8719,-3.8757,-3.92,-3.8988,-3.8238,-3.7296,-3.6911,-3.6911,0.0,0.0,0.0,0.0,-3.6911,-3.6911,0.0,0.0,0.0,0.0,0.0,0.0,0.0,0.0,0.0,0.0,0.0,0.0,0.0,0.0,0.0,-2.8044,0.0,0.0,0.0,0.0,0.0,0.0,0.0,0.0,0.0,0.0,0.0,0.0,-3.1565,-3.2129,-3.3133,-3.3133,-3.3294,-3.3583,-3.4237,-3.3849,-3.2703,-3.2656,-3.2649,0.0,0.0,0.0,0.0,0.0,0.0,0.0,0.0,0.0,0.0,0.0,0.0,0.0,0.0,0.0,0.0,0.0,0.0,0.0,0.0,0.0,0.0,0.0,0.0,0.0,0.0,0.0,0.0,0.0,0.0,0.0,0.0,0.0,0.0,0.0,0.0,0.0,0.0,-3.3833,-3.3814,-3.4449,-3.3968,-3.3742,0.0,0.0,0.0,0.0,0.0,0.0,-3.5815,-3.6026,-3.6411,-3.7007,-3.7026,-3.745,-3.8315,-3.8334,-3.8546,-3.8969,-3.8969,-3.9084,-3.9335,-3.9969,-4.0258,-4.0315,-4.0912,-4.1162,-4.1027,-3.9335,-3.8642,-3.8642,-3.8642,-3.8642,-3.8642,-3.8642,-3.8642,-3.8642,0.0,0.0,0.0,0.0,0.0,0.0,0.0,0.0,0.0,0.0,0.0,0.0,0.0,0.0,-2.8883,-2.892,-2.892,-2.8957,0.0,0.0,0.0,0.0,0.0,0.0,0.0,0.0,0.0,-3.2147,-3.234,-3.2893,-3.3748,-3.3748,-3.4336,-3.5372,-3.543,-3.4936,-3.4153,-3.4713,-3.4937,-3.4883,0.0,0.0,0.0,0.0,0.0,0.0,0.0,0.0,0.0,0.0,0.0,0.0,0.0,0.0,0.0,0.0,0.0,0.0,0.0,0.0,0.0,0.0,0.0,0.0,0.0,0.0,0.0,0.0,0.0,0.0,0.0,0.0,0.0,0.0,0.0,0.0,0.0,0.0,0.0,-3.543,-3.5411,0.0,0.0,0.0,0.0,-3.5493,-3.6205,-3.6642,-3.6642,-3.743,-3.7892,-3.793,-3.793,-3.8354,-3.9219,-3.9219,-4.0027,-4.1623,-4.1623,-4.2047,-4.2835,-4.2893,-4.2912,-4.2912,-4.2951,-4.297,-4.2835,-4.1085,-4.0354,-4.0354,-4.0354,-4.0354,-4.0354,-4.0354,-4.0354,-4.0354,0.0,0.0,0.0,0.0,0.0,0.0,0.0,0.0,0.0,0.0,0.0,0.0,0.0,-2.8994,-2.8994,-2.8994,-2.8994,-2.8994,-2.8994,0.0,0.0,0.0,0.0,0.0,0.0,0.0,-3.2352,-3.3234,-3.3301,-3.3872,-3.4889,-3.4889,-3.511,-3.5493,-3.5493,-3.5225,-3.4799,-3.5005,-3.4999,-3.4793,-3.436,-3.4117,0.0,0.0,0.0,0.0,0.0,0.0,0.0,0.0,0.0,0.0,0.0,0.0,0.0,0.0,0.0,0.0,0.0,0.0,0.0,0.0,0.0,0.0,0.0,0.0,0.0,0.0,0.0,0.0,0.0,0.0,0.0,0.0,0.0,0.0,0.0,0.0,0.0,-3.5493,-3.5493,0.0,-3.6219,-3.6276,-3.6507,-3.7065,-3.7373,-3.7777,-3.8334,-3.8661,-3.9335,-4.0412,-4.045,-4.0854,-4.1739,-4.1739,-4.2047,-4.2643,-4.2643,-4.2797,-4.3124,-4.3643,-4.3874,-4.3893,-4.447,-4.4701,-4.4662,-4.4028,-4.3143,-4.2162,-4.2162,-4.2162,-4.2162,-4.2162,-4.2162,-4.2162,0.0,0.0,0.0,0.0,0.0,0.0,0.0,0.0,0.0,0.0,0.0,-2.8994,-2.8994,-2.8994,-2.8994,-2.8994,-2.8994,-2.8994,-2.8994,0.0,0.0,0.0,0.0,0.0,0.0,-3.2574,-3.3199,-3.4108,-3.4194,-3.4617,-3.5369,-3.5369,-3.5369,-3.5369,-3.5369,-3.5223,-3.4963,-3.4963,-3.4851,-3.4674,-3.4334,-3.4074,-3.3928,0.0,0.0,0.0,0.0,0.0,0.0,0.0,0.0,0.0,0.0,0.0,0.0,0.0,0.0,0.0,0.0,0.0,0.0,0.0,0.0,0.0,0.0,0.0,0.0,0.0,0.0,0.0,0.0,0.0,0.0,0.0,0.0,0.0,0.0,-3.5738,-3.5911,-3.5911,-3.6161,-3.6546,-3.7084,-3.7411,-3.7815,-3.8392,-3.8969,-3.9527,-4.0104,-4.0412,-4.1085,-4.22,-4.2098,-4.2501,-4.3508,-4.3672,-4.3979,-4.4393,-4.4662,-4.4797,-4.4797,-4.5207,-4.5381,-4.54,-4.5876,-4.6125,-4.6244,-4.6244,-4.5687,-4.4739,-4.4162,-4.3932,-4.3932,-4.3932,-4.3932,-4.3932,0.0,0.0,0.0,0.0,0.0,0.0,0.0,0.0,0.0,0.0,-2.8994,-2.8994,-2.8994,-2.8994,-2.8994,-2.8994,-2.8994,-2.8994,-2.8994,-2.9012,0.0,0.0,0.0,0.0,-3.3026,-3.4095,-3.4674,-3.4694,-3.4944,-3.5088,-3.5088,-3.5088,-3.5088,-3.5088,-3.5088,-3.4944,-3.4674,-3.4674,-3.4674,-3.4653,-3.4334,-3.42,-3.4171,0.0,0.0,0.0,0.0,0.0,0.0,0.0,0.0,0.0,0.0,0.0,0.0,0.0,0.0,0.0,0.0,0.0,0.0,0.0,0.0,0.0,0.0,0.0,0.0,0.0,0.0,0.0,0.0,0.0,0.0,0.0,0.0,0.0,-3.5545,-3.6219,-3.6719,-3.6738,-3.7507,-3.8046,-3.8084,-3.8873,-3.9392,-3.9411,-4.0912,-4.1854,-4.1893,-4.2701,-4.3181,-4.322,-4.2852,-4.3254,-4.4412,-4.4938,-4.5779,-4.6951,-4.774,-4.8105,-4.8087,-4.7687,-4.7514,-4.7491,-4.7167,-4.7219,-4.7514,-4.7514,-4.775,-4.7952,-4.6297,-4.5682,-4.5682,-4.5682,-4.5682,-4.5682,0.0,0.0,0.0,0.0,0.0,0.0,0.0,0.0,0.0,0.0,-2.8815,-2.8994,-2.8994,-2.8994,-2.8994,-2.8994,-2.8994,-2.8994,-2.8994,0.0,0.0,0.0,0.0,0.0,-3.3864,-3.3981,-3.4279,-3.4694,-3.4532,-3.4574,-3.4793,-3.4793,-3.4793,-3.4793,-3.4793,-3.4634,-3.4334,-3.4334,-3.4237,-3.4055,-3.4147,-3.4074,-3.3902,0.0,0.0,0.0,0.0,0.0,0.0,0.0,0.0,0.0,0.0,0.0,0.0,0.0,0.0,0.0,0.0,0.0,0.0,0.0,0.0,0.0,0.0,0.0,0.0,0.0,0.0,0.0,0.0,0.0,0.0,0.0,-3.6372,-3.6372,-3.6372,-3.6565,-3.693,-3.7565,-3.8411,-3.9161,-3.9758,-4.0604,-4.1373,-4.2008,-4.2489,-4.3008,-4.3585,-4.4432,-4.5201,-4.5836,-4.6301,-4.6704,-4.7048,-4.7185,-4.7434,-4.7778,-4.799,-4.8105,-4.8087,-4.7687,-4.7665,-4.7913,-4.7533,-4.7579,-4.7933,-4.7933,-4.7991,-4.8048,-4.7586,-4.7413,-4.7413,-4.7413,-4.7413,-4.7413,0.0,0.0,0.0,0.0,0.0,0.0,0.0,0.0,0.0,0.0,-2.8863,-2.8994,-2.8994,-2.8994,-2.8994,-2.8994,-2.8994,-2.9122,-2.9494,0.0,0.0,0.0,0.0,-3.3372,-3.4018,-3.3986,-3.4141,-3.4508,-3.4423,-3.4508,-3.4713,-3.5052,-3.5203,-3.5224,-3.5562,-3.5544,-3.5224,-3.4894,-3.4587,-3.4284,-3.4109,-3.3935,-3.3807,-3.3807,-3.3807,-3.3815,-3.3986,-3.4099,-3.42,-3.42,0.0,0.0,0.0,0.0,0.0,0.0,0.0,0.0,0.0,0.0,0.0,0.0,0.0,0.0,0.0,0.0,0.0,0.0,0.0,0.0,0.0,0.0,0.0,0.0,-3.7546,-3.7911,-3.8238,-3.8296,-3.8488,-3.8988,-4.0142,-4.1085,-4.1527,-4.2354,-4.3066,-4.3566,-4.4278,-4.4893,-4.5355,-4.6182,-4.6874,-4.7394,-4.7563,-4.7709,-4.7853,-4.7899,-4.8,-4.8159,-4.8522,-4.8694,-4.8671,-4.8268,-4.8196,-4.8397,-4.8004,-4.806,-4.8441,-4.8441,-4.8514,-4.8659,0.0,0.0,0.0,0.0,-4.8105,-4.8105,0.0,0.0,0.0,0.0,0.0,0.0,0.0,0.0,0.0,0.0,0.0,-2.8994,-2.8994,-2.8994,-2.8994,-2.8994,-2.8994,-2.936,0.0,0.0,0.0,-3.2742,-3.3421,-3.3815,-3.3842,-3.4043,-3.4171,-3.42,-3.4464,-3.4628,-3.4741,-3.5475,-3.5851,-3.5988,-3.6682,-3.6878,-3.6614,-3.5889,-3.5358,-3.4935,-3.4229,-3.388,-3.3807,-3.3807,-3.3807,-3.3788,-3.3842,-3.4012,-3.42,-3.4246,0.0,0.0,0.0,0.0,0.0,0.0,0.0,0.0,0.0,0.0,0.0,0.0,0.0,0.0,0.0,0.0,0.0,0.0,0.0,0.0,0.0,0.0,0.0,0.0,-3.8931,-3.9738,-4.0662,-4.0854,-4.0893,-4.0796,-4.2239,-4.3278,-4.3374,-4.4124,-4.4624,-4.472,-4.6163,-4.7048,-4.7048,-4.7817,0.0,0.0,0.0,-4.7484,-4.771,-4.7889,-4.8115,-4.8343,-4.9174,-4.9532,-4.9475,-4.9075,-4.8911,-4.8963,-4.8532,-4.8604,-4.8963,-4.8963,-4.9171,-4.9429,-4.8567,-4.826,-4.826,-4.826,-4.826,-4.826,0.0,0.0,0.0,0.0,0.0,0.0,0.0,0.0,0.0,-2.8905,-2.8994,-2.8994,-2.8994,-2.8994,-2.8994,-2.8994,-2.8994,-2.9622,0.0,0.0,-3.221,-3.3513,-3.3715,-3.3902,-3.4123,-3.3961,-3.3986,-3.42,-3.4062,-3.4305,-3.495,-3.5098,-3.5541,-3.6232,-3.6399,-3.6417,-3.6362,-3.6196,-3.568,-3.4972,-3.4825,-3.4394,-3.3807,-3.3807,-3.3807,-3.3815,-3.4043,-3.4171,-3.4223,-3.4508,-3.4653,-3.4694,-3.4694,0.0,0.0,0.0,0.0,0.0,0.0,0.0,0.0,0.0,0.0,0.0,0.0,0.0,0.0,0.0,0.0,0.0,0.0,0.0,0.0,-3.9758,-4.0162,-4.0796,-4.2374,-4.3162,-4.3316,-4.2662,-4.347,-4.4335,-4.5047,-4.5893,-4.6682,-4.7317,-4.7682,-4.7875,-4.7875,-4.8682,-4.9008,-4.8678,-4.921,-4.9378,-4.9117,-4.9451,-4.95,-4.9258,-4.9751,0.0,-4.9475,-4.9075,-4.9075,-4.9356,-4.8963,-4.9029,-4.9386,-4.9386,-4.9416,-4.9485,-4.9286,-4.9227,-4.9227,-4.9227,-4.9227,-4.928,0.0,0.0,0.0,0.0,0.0,0.0,0.0,0.0,0.0,0.0,-2.8994,-2.8994,-2.8994,-2.8994,-2.8994,-2.8994,-2.9384,0.0,0.0,-3.2008,-3.254,-3.3752,-3.3807,-3.385,-3.4012,-3.385,-3.3868,-3.4012,-3.3868,-3.4009,-3.4431,-3.5275,-3.5957,-3.6527,-3.7322,-3.772,-3.7683,-3.7248,-3.6528,-3.5624,-3.5174,-3.4523,-3.3807,-3.3807,-3.3876,-3.4012,-3.4012,-3.4093,-3.4246,-3.4572,-3.4774,-3.4926,-3.507,-3.5105,-3.5053,0.0,0.0,0.0,0.0,0.0,0.0,0.0,0.0,0.0,0.0,0.0,0.0,0.0,0.0,-3.7738,-3.9008,0.0,-3.9815,-4.1508,-4.2143,-4.2701,-4.3585,-4.4797,-4.5124,-4.3855,-4.4836,-4.5778,-4.6201,-4.7009,-4.7682,-4.8067,-4.8509,-4.8664,-4.8464,-4.9288,-4.9576,-4.9174,-4.9363,-4.9416,-4.9202,-4.9202,-4.9075,-4.8915,-4.9108,-4.9075,-4.8881,-4.8692,-4.8728,-4.8881,-4.8692,-4.8728,-4.8915,-4.8915,-4.8915,-4.8915,-4.8915,-4.9158,-4.9504,-4.9504,-4.9504,-4.9532,0.0,0.0,0.0,0.0,0.0,0.0,0.0,0.0,0.0,0.0,-2.8815,-2.8815,-2.8881,-2.8887,-2.8983,0.0,0.0,0.0,0.0,-3.2614,-3.2963,-3.3752,-3.3807,-3.3807,-3.3807,-3.3807,-3.3807,-3.3807,-3.3807,-3.388,-3.4064,-3.5422,-3.6344,-3.6917,-3.8218,-3.8794,-3.8757,-3.8106,-3.7137,-3.5991,-3.5265,-3.455,-3.3876,-3.3815,-3.3935,-3.4074,-3.3876,-3.3935,-3.4171,-3.4508,-3.4793,-3.507,-3.5354,-3.5446,-3.5398,-3.4926,-3.4926,0.0,0.0,0.0,0.0,0.0,0.0,0.0,0.0,-3.6949,-3.7199,-3.8065,-3.8373,-3.895,-4.0469,-4.0893,-4.1508,-4.3085,-4.3874,-4.4412,-4.4759,-4.6009,-4.6451,-4.5182,-4.6278,-4.7201,-4.7375,-4.7971,-4.8413,-4.8586,-4.926,-4.9507,-4.9194,-4.9754,-4.9924,-4.9504,-4.9108,-4.8863,-4.8779,-4.855,-4.8364,-4.8306,-4.8402,-4.8364,-4.8306,-4.8306,-4.8306,-4.8306,-4.8306,-4.8306,-4.8306,-4.8306,-4.8306,-4.8306,-4.8306,-4.8692,-4.9265,-4.9265,-4.9265,-4.9265,0.0,0.0,0.0,0.0,0.0,0.0,0.0,0.0,0.0,0.0,0.0,0.0,0.0,0.0,0.0,0.0,0.0,0.0,0.0,-3.2614,-3.2963,-3.3752,-3.3807,-3.3807,-3.3807,-3.3807,-3.3807,-3.3807,-3.3807,-3.4174,-3.4862,-3.5045,-3.5964,-3.7437,-3.7603,-3.7676,-3.7676,-3.7584,-3.6636,-3.5137,-3.5027,-3.4674,-3.4123,-3.3876,-3.3815,-3.3842,-3.3815,-3.3815,-3.3876,-3.4171,-3.4467,-3.4774,-3.507,-3.5304,-3.5446,-3.5138,0.0,-3.5034,-3.4734,-3.487,-3.5346,-3.6315,-3.6584,-3.6796,0.0,-3.7853,-3.8104,-3.8969,-3.9719,-4.0508,-4.1489,-4.2297,-4.3104,-4.4028,-4.4239,-4.4836,-4.6394,-4.6778,-4.7086,-4.7605,-4.7855,-4.8279,-4.9048,-4.9202,-4.9586,-5.0337,-5.0491,-5.0529,-5.049,-5.0256,-4.9924,-4.9504,-4.9108,-4.8728,-4.8364,-4.8692,-4.8657,-4.8306,-4.8657,-4.8657,-4.8306,-4.8306,-4.8306,-4.8306,-4.8306,-4.8306,-4.8306,-4.8306,-4.8306,-4.8306,-4.8306,-4.8364,-4.8421,-4.8421,-4.8421,-4.8495,0.0,0.0,0.0,0.0,0.0,0.0,0.0,0.0,0.0,0.0,0.0,0.0,0.0,0.0,0.0,0.0,0.0,0.0,-3.2504,-3.2614,-3.2963,-3.3752,-3.3807,-3.3807,-3.3807,-3.3807,-3.3807,-3.3807,-3.3807,-3.3972,-3.4321,-3.477,-3.5357,-3.6083,-3.6578,-3.6798,-3.6798,-3.6798,-3.6101,-3.499,-3.499,-3.4604,-3.3961,-3.3842,-3.3807,-3.3807,-3.3807,-3.3807,0.0,0.0,-3.4292,-3.4489,-3.4944,-3.507,-3.4999,-3.4908,-3.487,0.0,-3.5477,-3.6207,-3.6903,-3.7339,-3.7469,-3.768,-3.8565,-3.9123,-3.97,-4.0585,-4.1431,-4.2277,-4.3104,-4.3547,-4.4066,-4.4913,-4.547,-4.6067,-4.6797,-4.774,-4.849,-4.8817,-4.9298,-4.9548,-4.9413,-4.9856,-5.0298,-5.0664,-5.0483,-5.0249,-4.9999,-4.9617,-4.9234,-4.8813,-4.864,-4.8495,-4.8306,-4.8458,-4.8458,-4.8306,-4.8477,-4.844,-4.8306,-4.8306,-4.8306,-4.8306,-4.8306,-4.8306,-4.8306,-4.8306,-4.8306,-4.8306,-4.8306,-4.8306,-4.8306,-4.8306,-4.8306,-4.8326,0.0,0.0,0.0,0.0,0.0,0.0,0.0,0.0,0.0,0.0,0.0,0.0,0.0,0.0,0.0,0.0,0.0,0.0,0.0,-3.2816,-3.3201,-3.377,-3.3807,0.0,-3.3807,-3.3807,-3.3807,-3.3807,-3.3807,-3.3807,-3.3807,-3.4412,-3.477,-3.5027,-3.5661,-3.5936,-3.5936,-3.5936,-3.5459,-3.4688,-3.4688,-3.4321,-3.3807,-3.3807,-3.3807,-3.3807,-3.3807,-3.3807,0.0,0.0,-3.4147,-3.4269,-3.4716,-3.4793,-3.473,-3.4873,-3.5077,-3.5423,-3.6293,-3.7194,-3.7967,-3.8281,-3.8527,-3.8911,-3.9796,-4.0623,-4.1393,-4.2027,-4.2835,-4.3605,-4.4182,-4.4489,-4.4932,-4.5817,-4.649,-4.7067,-4.7528,-4.8625,-4.949,-4.9721,-5.0317,-5.0452,-4.9817,-5.0317,-5.0663,-5.0544,-5.0272,-4.9974,-4.9692,-4.9171,-4.8813,-4.864,-4.8439,-4.8416,-4.8655,-4.8655,-4.8765,-4.9003,-4.9003,-4.9003,-4.9003,-4.9003,-4.9003,-4.9003,-4.9003,-4.8857,-4.8655,-4.8655,-4.8526,-4.8306,-4.8306,-4.8306,-4.8306,-4.8306,-4.8306,-4.8306,0.0,0.0,0.0,0.0,0.0,0.0,0.0,0.0,0.0,0.0,0.0,0.0,0.0,0.0,0.0,0.0,0.0,0.0,0.0,-3.333,-3.377,-3.3807,-3.3807,-3.3807,-3.3807,-3.3807,-3.3807,-3.3807,-3.3807,-3.3807,-3.3807,-3.3825,-3.4266,-3.499,-3.5027,-3.5027,-3.5027,-3.5027,-3.4578,-3.3844,-3.3844,-3.3825,-3.3807,-3.3807,-3.3807,-3.3807,-3.3807,0.0,0.0,0.0,-3.3986,-3.42,-3.4223,-3.4445,0.0,-3.532,-3.6031,-3.6702,-3.7009,-3.7337,-3.7882,-3.8981,-3.9835,-4.0642,-4.1527,-4.2393,-4.3028,-4.3066,-4.3701,-4.4259,-4.4297,-4.4989,-4.5855,-4.6721,-4.6894,-4.7471,-4.9106,-4.9375,-4.9702,-5.0548,-5.0683,-5.0683,-5.0644,-5.0683,-5.0544,-5.0159,-5.0092,-5.0092,-5.0068,-4.9307,-4.9075,-4.9445,-4.8692,-4.871,-4.9536,-4.9536,-4.9939,-5.0729,-5.0729,-5.0729,-5.0729,-5.0729,-5.0729,-5.0729,-5.0729,-5.027,-4.9536,-4.9536,-4.9058,-4.8306,-4.8306,-4.8306,-4.8306,-4.8306,-4.8306,-4.8306,0.0,0.0,0.0,0.0,0.0,0.0,0.0,0.0,0.0,0.0,0.0,0.0,0.0,0.0,0.0,0.0,0.0,0.0,0.0,-3.2559,-3.3238,-3.377,-3.3807,-3.3807,-3.3807,-3.3807,-3.3807,-3.3807,-3.3807,-3.3807,-3.3807,-3.3807,-3.3935,-3.4211,-3.4211,-3.4211,-3.4211,-3.4211,-3.4045,-3.3807,-3.3807,-3.3807,-3.3807,-3.3807,-3.3807,-3.3807,0.0,0.0,0.0,0.0,0.0,0.0,-3.4147,-3.4513,-3.5062,-3.5808,-3.6882,-3.7845,-3.7958,-3.8728,-3.9756,-4.0723,-4.1162,-4.1585,-4.247,-4.3297,-4.3893,-4.3893,-4.4566,-4.5163,-4.5163,-4.5393,-4.5893,-4.6759,-4.7355,-4.8105,-4.924,-4.9894,-5.0356,-5.0664,-5.0702,-5.0702,-5.0702,-5.0702,-5.0624,-5.0504,-5.0249,-4.9974,-4.9719,-4.9202,-4.8847,-4.8692,-4.9011,-4.9297,-4.9591,-5.0123,-5.0527,-5.0802,-5.0802,-5.0802,-5.0802,-5.0802,-5.0802,-5.0802,-5.0802,-5.0655,-5.0343,-4.9811,-4.9426,-4.9095,-4.8526,-4.8306,-4.8306,-4.8306,-4.8306,-4.8306,0.0,0.0,0.0,0.0,0.0,0.0,0.0,0.0,0.0,0.0,0.0,0.0,0.0,0.0,0.0,0.0,0.0,0.0,0.0,0.0,-3.291,-3.3542,-3.3734,-3.3807,-3.3807,-3.3807,-3.3807,-3.3807,-3.3807,-3.3807,-3.3807,-3.3807,-3.3807,-3.3807,-3.3807,-3.3807,-3.3807,-3.3807,-3.3807,-3.3807,-3.3807,-3.3807,-3.3807,-3.3807,-3.3807,0.0,0.0,0.0,0.0,0.0,0.0,-3.3815,-3.3993,-3.4684,-3.5652,-3.6583,-3.7804,-3.8927,-3.934,-4.0177,-4.1162,-4.2047,-4.2489,-4.2835,-4.3393,-4.4162,-4.4759,-4.4759,-4.5111,-4.5476,-4.5586,-4.5495,-4.5841,-4.7125,-4.7759,-4.8509,-4.9702,-5.0337,-5.0702,-5.0702,-5.0702,-5.0702,-5.0702,-5.0565,-5.0483,-5.0483,-5.0116,-4.9773,-4.9504,-4.8996,-4.8751,-4.8938,-4.9377,-4.9866,-5.0435,-5.0967,-5.1371,-5.1665,-5.1665,-5.1665,-5.1665,-5.1665,-5.1665,-5.1665,-5.1665,-5.1499,-5.1187,-5.0655,-5.0105,-4.9517,-4.8967,-4.8563,-4.8306,-4.8306,-4.8306,-4.8306,0.0,0.0,0.0,0.0,0.0,0.0,0.0,0.0,0.0,0.0,0.0,0.0,0.0,0.0,0.0,0.0,0.0,0.0,0.0,0.0,0.0,-3.3076,-3.3532,-3.3762,-3.3734,-3.3762,-3.3762,-3.3762,-3.3788,-3.3807,-3.3807,-3.3807,-3.3807,-3.3807,-3.3807,-3.3807,-3.3807,-3.3807,-3.3807,-3.3807,-3.3807,-3.3807,-3.3807,-3.3807,0.0,0.0,0.0,0.0,0.0,0.0,0.0,-3.3807,-3.3899,-3.5018,-3.6517,-3.7642,-3.8739,-3.9838,-4.0993,-4.1549,-4.2027,-4.2931,-4.3739,-4.4316,-4.4355,-4.5009,-4.5586,-4.5586,-4.5342,-4.5201,-4.5513,-4.5302,-4.5736,-4.7703,-4.8048,-4.8664,-5.0394,-5.0664,-5.0683,-5.0702,-5.0683,-5.0663,-5.0663,-5.0336,-5.0092,-5.0068,-4.9719,-4.9475,-4.9475,-4.88,-4.8901,-5.0038,-4.9861,-5.0453,-5.1977,-5.2032,-5.2435,-5.3206,-5.3206,-5.3206,-5.3206,-5.3206,-5.3206,-5.3206,-5.3206,-5.2766,-5.205,-5.2013,-5.1059,-4.9646,-4.9609,-4.9058,-4.8306,-4.8306,-4.8306,-4.8306,0.0,0.0,0.0,0.0,0.0,0.0,0.0,0.0,0.0,0.0,0.0,0.0,0.0,0.0,0.0,0.0,0.0,0.0,0.0,0.0,0.0,0.0,0.0,0.0,0.0,0.0,0.0,0.0,0.0,-3.3807,-3.3807,-3.3807,-3.3807,0.0,-3.3807,-3.3807,-3.3807,-3.3807,-3.3807,-3.3807,0.0,-3.3807,-3.3807,0.0,0.0,0.0,0.0,0.0,0.0,0.0,-3.3807,-3.4027,-3.5275,-3.5954,-3.6628,-3.8284,-3.9189,-3.9838,-4.0993,-4.1549,-4.2162,-4.3624,-4.4143,-4.447,-4.5124,-4.5432,-4.5586,-4.5586,-4.5342,-4.5137,-4.5222,-4.4943,-4.5171,-4.6536,-4.7308,-4.8194,-4.9548,-5.0019,-5.0358,-5.0663,-5.044,-5.0249,-5.0249,-5.0159,-4.9993,-4.9692,-4.9561,-4.9356,-4.9075,-4.9424,-4.9658,-4.9711,-5.0809,-5.1573,-5.1995,-5.2601,-5.3004,-5.3206,-5.3206,-5.3206,-5.3206,-5.3206,-5.3206,-5.3206,-5.3206,-5.3096,-5.2858,-5.2252,-5.1408,-5.0435,-4.9811,-4.9058,-4.8306,-4.8306,-4.8306,-4.8306,0.0,0.0,0.0,0.0,0.0,0.0,0.0,0.0,0.0,0.0,0.0,0.0,0.0,0.0,0.0,0.0,0.0,0.0,0.0,0.0,0.0,0.0,0.0,0.0,0.0,0.0,0.0,0.0,0.0,0.0,0.0,-3.3807,-3.3807,-3.3807,-3.3807,-3.3807,-3.3807,0.0,0.0,0.0,0.0,0.0,0.0,0.0,0.0,0.0,0.0,0.0,0.0,0.0,0.0,-3.4257,-3.5809,-3.6303,-3.6665,-3.8544,-3.9339,-3.9913,-4.145,-4.2124,-4.2777,-4.4451,-4.4874,-4.4972,-4.5304,-4.5381,-4.5342,-4.5182,-4.4877,-4.4663,-4.4849,-4.4726,-4.4972,-4.61,-4.7003,-4.793,-4.8982,-4.9694,-5.0183,-5.0421,-5.0249,-5.0092,-5.0092,-4.9773,-4.9475,-4.9265,-4.9234,-4.9139,-4.893,-4.9507,-4.9972,-5.0105,-5.1334,-5.216,-5.2527,-5.2986,-5.3206,-5.3206,-5.3206,-5.3206,-5.3206,-5.3206,-5.3206,-5.3206,-5.3206,-5.3206,-5.317,-5.2711,-5.1848,-5.0765,-5.0288,-4.937,-4.8306,-4.8306,-4.8306,-4.8306,0.0,0.0,0.0,0.0,0.0,0.0,0.0,0.0,0.0,0.0,0.0,0.0,0.0,0.0,0.0,0.0,0.0,0.0,0.0,0.0,0.0,0.0,0.0,0.0,0.0,0.0,0.0,0.0,0.0,0.0,0.0,0.0,0.0,0.0,0.0,0.0,0.0,0.0,0.0,0.0,0.0,0.0,0.0,0.0,0.0,0.0,0.0,0.0,0.0,0.0,-3.3961,-3.4396,-3.5846,-3.6303,-3.6665,-3.8544,-3.9339,-4.0027,-4.2062,-4.2851,-4.3508,-4.5182,-4.5586,-4.5513,-4.518,-4.5096,-4.4969,-4.4506,-4.4093,-4.3968,-4.4304,-4.4304,-4.4674,-4.5813,-4.6673,-4.7509,-4.8414,-4.927,-4.986,-4.9999,-4.9974,-4.9949,-4.9949,-4.9307,-4.8863,-4.8829,-4.8813,-4.885,-4.9015,-4.9454,-5.0178,-5.1096,-5.1793,-5.2491,-5.3206,-5.3206,-5.3206,-5.3206,-5.3206,-5.3206,-5.3206,-5.3206,-5.3206,-5.3206,-5.3206,-5.3206,-5.3206,-5.3206,-5.2252,-5.0802,-5.0802,-4.9793,-4.8306,-4.8306,-4.8306,-4.8306,0.0,0.0,0.0,0.0,0.0,0.0,0.0,0.0,0.0,0.0,0.0,0.0,0.0,0.0,0.0,0.0,0.0,0.0,0.0,0.0,0.0,0.0,0.0,0.0,0.0,0.0,0.0,0.0,0.0,0.0,0.0,0.0,0.0,0.0,0.0,0.0,0.0,0.0,0.0,0.0,0.0,0.0,0.0,0.0,0.0,0.0,0.0,0.0,0.0,0.0,-3.3842,-3.4144,-3.5799,-3.6303,-3.6665,-3.8544,-3.9339,-4.0027,-4.2062,-4.2851,-4.3508,-4.5182,-4.5586,-4.5513,-4.518,-4.5096,-4.4798,-4.3756,-4.324,-4.3021,-4.3108,-4.2897,-4.3082,-4.4221,-4.5132,-4.6073,-4.7162,-4.7784,-4.8483,-4.9485,-4.9326,-4.9108,-4.9108,-4.8978,-4.8744,-4.8421,-4.8383,-4.8696,-4.9452,-5.0181,-5.1279,-5.2747,-5.2931,-5.3078,-5.3206,-5.3206,-5.3206,-5.3206,-5.3206,-5.3206,-5.3206,-5.3206,-5.3206,-5.3206,-5.3206,-5.3206,-5.3206,-5.3206,-5.2252,-5.0802,-5.0802,-4.9793,-4.8306,-4.8306,-4.8306,-4.8306,0.0,0.0,0.0,0.0,0.0,0.0,0.0,0.0,0.0,0.0,0.0,0.0,0.0,0.0,0.0,0.0,0.0,0.0,0.0,0.0,0.0,0.0,0.0,0.0,0.0,0.0,-3.1462,-3.225,0.0,0.0,0.0,-3.3807,-3.3807,-3.3807,0.0,0.0,0.0,0.0,0.0,0.0,0.0,0.0,0.0,0.0,0.0,0.0,0.0,0.0,0.0,0.0,-3.3807,-3.4009,-3.5238,-3.5936,-3.6581,-3.7876,-3.8801,-3.9695,-4.1294,-4.1912,-4.2469,-4.3733,-4.4039,-4.3923,-4.3383,-4.3278,-4.3043,-4.2314,-4.2013,-4.1927,-4.1927,-4.226,-4.2743,-4.3278,-4.4407,-4.5599,-4.6555,-4.7273,-4.8082,-4.9077,-4.9029,-4.8897,-4.8897,-4.8709,-4.8513,-4.8306,-4.8306,-4.8673,-4.9536,-5.0747,-5.1977,-5.317,-5.3206,-5.3206,-5.3206,-5.3206,-5.3206,-5.3206,-5.3206,-5.3206,-5.3206,-5.3206,-5.3206,-5.3206,-5.3206,-5.3206,-5.3206,-5.3206,-5.2252,-5.0802,-5.0802,-4.9793,-4.8306,-4.8306,-4.8306,-4.8306,0.0,0.0,0.0,0.0,0.0,0.0,0.0,0.0,0.0,0.0,0.0,0.0,0.0,0.0,0.0,0.0,0.0,0.0,0.0,0.0,0.0,0.0,0.0,0.0,0.0,0.0,0.0,-3.1876,-3.2595,0.0,0.0,0.0,0.0,0.0,-3.3807,-3.3807,-3.3807,0.0,0.0,0.0,0.0,-3.3807,0.0,0.0,0.0,0.0,0.0,0.0,0.0,0.0,-3.3807,-3.3917,-3.4559,-3.5349,-3.6248,-3.7404,-3.8266,-3.9122,-4.0434,-4.1007,-4.1431,-4.2269,-4.2479,-4.2348,-4.1753,-4.1586,-4.1452,-4.0951,-4.0855,-4.0855,-4.0855,-4.1564,-4.2307,-4.263,-4.3763,-4.4976,-4.6145,-4.6869,-4.7683,-4.8667,-4.8779,-4.8779,-4.8779,-4.8477,-4.8306,-4.8306,-4.8636,-4.9132,-4.9811,-5.1371,-5.2546,-5.3188,-5.3206,-5.3206,-5.3206,-5.3206,-5.3206,-5.3206,-5.3206,-5.3206,-5.3206,-5.3206,-5.3206,-5.3206,-5.3206,-5.3206,-5.3206,-5.3206,-5.2252,-5.0802,-5.0802,-4.9793,-4.8306,-4.8306,-4.8306,-4.8306,0.0,0.0,0.0,0.0,0.0,0.0,0.0,0.0,0.0,0.0,0.0,0.0,0.0,0.0,0.0,0.0,0.0,0.0,0.0,0.0,0.0,0.0,0.0,0.0,0.0,0.0,0.0,-3.1444,-3.1888,0.0,0.0,0.0,0.0,0.0,0.0,-3.3807,-3.3807,-3.3807,0.0,0.0,0.0,0.0,0.0,0.0,0.0,0.0,0.0,0.0,0.0,0.0,0.0,-3.3807,-3.3899,-3.4486,-3.5559,-3.7918,-3.8321,-3.838,-4.0,-4.0691,-4.1123,-4.1959,-4.2148,-4.2052,-4.1698,-4.1586,-4.1285,-4.0233,-4.001,-4.001,-4.001,-4.0097,-4.0643,-4.2114,-4.2481,-4.3364,-4.5643,-4.6011,-4.6636,-4.818,-4.8364,-4.8364,-4.8364,-4.8344,-4.8306,-4.8306,-4.9719,-5.0618,-5.0692,-5.2234,-5.3133,-5.3206,-5.3206,-5.3206,-5.3206,-5.3206,-5.3206,-5.3206,-5.3206,-5.3206,-5.3206,-5.3206,-5.3206,-5.3206,-5.3206,-5.3206,-5.3206,-5.3206,-5.2252,-5.0802,-5.0802,-4.9793,-4.8306,-4.8306,-4.8306,-4.8306,0.0,0.0,0.0,0.0,0.0,0.0,0.0,0.0,0.0,0.0,0.0,0.0,0.0,0.0,0.0,0.0,0.0,0.0,0.0,0.0,0.0,0.0,0.0,0.0,0.0,0.0,-2.9057,-3.0317,-3.1495,0.0,0.0,0.0,0.0,0.0,0.0,-3.3807,-3.3807,-3.3807,0.0,0.0,0.0,0.0,0.0,0.0,0.0,0.0,0.0,0.0,-3.3807,-3.3807,0.0,0.0,-3.4376,-3.4412,0.0,0.0,-3.7798,-3.8561,-3.9379,-3.9717,-3.9895,-4.0214,-4.0289,-4.0229,-3.9933,-3.9863,-3.973,-3.927,-3.9184,-3.9184,-3.9184,-3.9974,-4.0836,-4.1479,-4.2396,0.0,-4.4966,-4.559,-4.6324,-4.7462,-4.8012,-4.8306,-4.8306,-4.8306,-4.8306,-4.8306,-4.9848,-5.0802,-5.0802,-5.2344,-5.3206,-5.3206,-5.3206,-5.3206,-5.3206,-5.3206,-5.3206,-5.3206,-5.3206,-5.3206,-5.3206,-5.3206,-5.3206,-5.3206,-5.3206,-5.3206,-5.3206,-5.3206,-5.2252,-5.0802,-5.0802,-4.9793,-4.8306,-4.8306,-4.8306,-4.8306,0.0,0.0,0.0,0.0,0.0,0.0,0.0,0.0,0.0,0.0,0.0,0.0,0.0,0.0,0.0,0.0,0.0,0.0,0.0,0.0,0.0,0.0,0.0,0.0,0.0,0.0,0.0,-2.944,-3.073,-3.1783,0.0,0.0,-3.3568,-3.3807,0.0,0.0,0.0,0.0,0.0,0.0,0.0,0.0,0.0,0.0,0.0,0.0,0.0,0.0,0.0,0.0,0.0,0.0,0.0,0.0,0.0,0.0,-3.7294,-3.8143,-3.8803,-3.8971,-3.8971,-3.8971,-3.8971,-3.8933,-3.8732,-3.8707,-3.8707,-3.8707,-3.8707,-3.8707,-3.8707,-3.9827,-4.0836,0.0,0.0,-4.3516,-4.4562,-4.5388,-4.6195,-4.7021,-4.7829,-4.8306,-4.8306,-4.8306,-4.8306,-4.8306,-4.9627,-5.0545,-5.0784,-5.2105,-5.2968,-5.3206,-5.3206,-5.3206,-5.3206,-5.3206,-5.3206,-5.3206,-5.3206,-5.3206,-5.3206,-5.3206,-5.3206,-5.3206,-5.3206,-5.3206,-5.3206,-5.3206,-5.2252,-5.0802,-5.0802,-4.9793,-4.8306,-4.8306,-4.8306,-4.8306,0.0,0.0,0.0,0.0,0.0,0.0,0.0,0.0,0.0,0.0,0.0,0.0,0.0,0.0,0.0,0.0,0.0,0.0,0.0,0.0,0.0,0.0,0.0,0.0,0.0,0.0,0.0,0.0,0.0,-3.0656,-3.2614,-3.2614,-3.3054,-3.3807,0.0,0.0,0.0,0.0,0.0,0.0,0.0,0.0,0.0,0.0,0.0,0.0,0.0,0.0,0.0,0.0,0.0,0.0,0.0,0.0,0.0,0.0,-3.6927,-3.667,-3.8267,-3.8707,-3.8707,-3.8707,-3.8707,-3.8707,-3.8707,-3.8707,-3.8707,-3.8707,-3.8707,-3.8707,-3.8707,-3.935,-4.0175,-4.0983,-4.1791,0.0,-4.4488,-4.5388,-4.6195,-4.7021,-4.7829,-4.8306,-4.8306,-4.8306,-4.8306,-4.8306,-4.9114,-4.9958,-5.0765,-5.1573,-5.238,-5.3188,-5.3206,-5.3206,-5.3206,-5.3206,-5.3206,-5.3206,-5.3206,-5.3206,-5.3206,-5.3206,-5.3206,-5.3206,-5.3206,-5.3206,-5.3206,-5.3206,-5.2252,-5.0802,-5.0802,-4.9793,-4.8306,-4.8306,-4.8306,-4.8306,0.0,0.0,0.0,0.0,0.0,0.0,0.0,0.0,0.0,0.0,0.0,0.0,0.0,0.0,0.0,0.0,0.0,0.0,0.0,0.0,0.0,0.0,0.0,0.0,0.0,0.0,0.0,0.0,0.0,0.0,0.0,-3.2253,-3.3036,-3.3807,-3.3807,-3.3807,0.0,0.0,0.0,0.0,0.0,0.0,-3.3807,0.0,0.0,0.0,0.0,0.0,0.0,0.0,0.0,0.0,0.0,0.0,0.0,0.0,0.0,0.0,-3.7734,-3.8285,-3.8707,-3.8707,-3.8707,-3.8707,-3.8707,-3.8707,-3.8707,-3.8707,-3.8707,-3.8707,-3.8707,-3.9808,-4.0818,-4.1075,-4.2249,-4.3296,-4.3809,-4.5039,-4.5993,-4.625,-4.748,-4.8306,-4.8306,-4.8306,-4.8306,-4.8306,-4.9095,-4.9939,-5.0765,-5.1555,-5.2362,-5.3188,-5.3206,-5.3206,-5.3206,-5.3206,-5.3206,-5.3206,-5.3206,-5.3206,-5.3206,-5.3206,-5.3206,-5.3206,-5.3206,-5.3206,-5.3206,-5.3206,-5.2252,-5.0802,-5.0802,-4.9793,-4.8306,-4.8306,-4.8306,-4.8306,0.0,0.0,0.0,0.0,0.0,0.0,0.0,0.0,0.0,0.0,0.0,0.0,0.0,0.0,0.0,0.0,0.0,0.0,0.0,0.0,0.0,0.0,0.0,0.0,0.0,0.0,0.0,0.0,0.0,0.0,0.0,0.0,0.0,-3.3807,-3.3807,-3.3807,0.0,0.0,0.0,0.0,0.0,0.0,-3.3807,0.0,0.0,0.0,0.0,0.0,0.0,0.0,0.0,0.0,0.0,0.0,0.0,0.0,-3.5734,-3.7092,0.0,-3.8083,-3.8707,-3.8707,-3.8707,-3.8707,-3.8707,-3.8707,-3.8707,-3.8707,-3.8707,-3.8707,-3.8707,-4.0029,-4.1111,-4.1111,-4.2451,-4.3497,-4.3497,-4.4892,-4.6122,-4.6728,-4.77,-4.8306,-4.8306,-4.8306,-4.8306,-4.8306,-4.8802,-4.9591,-5.0747,-5.1279,-5.2068,-5.317,-5.3206,-5.3206,-5.3206,-5.3206,-5.3206,-5.3206,-5.3206,-5.3206,-5.3206,-5.3206,-5.3206,-5.3206,-5.3206,-5.3206,0.0,-5.2876,-5.1977,-5.0765,-5.0472,-4.9517,-4.8306,-4.8306,-4.8306,-4.8306,0.0,0.0,0.0,0.0,0.0,0.0,0.0,0.0,0.0,0.0,0.0,0.0,0.0,0.0,0.0,0.0,0.0,0.0,0.0,0.0,0.0,0.0,0.0,0.0,0.0,0.0,0.0,0.0,-2.8493,-2.969,-3.0874,0.0,0.0,0.0,0.0,0.0,0.0,0.0,0.0,0.0,0.0,0.0,0.0,0.0,0.0,0.0,0.0,0.0,0.0,0.0,0.0,0.0,0.0,0.0,0.0,0.0,0.0,0.0,0.0,-3.8083,-3.8707,-3.8707,-3.8707,-3.8707,-3.8707,0.0,0.0,-3.8707,-3.8707,-3.8707,-3.8707,-4.0029,-4.1111,-4.1111,-4.2451,-4.3497,-4.3497,-4.4892,-4.6507,-4.8122,-4.8306,-4.8306,-4.8306,-4.8306,-4.8306,-4.8306,-4.8306,-4.9022,-5.0637,-5.0765,-5.1518,-5.3078,-5.3188,-5.3206,-5.3206,-5.3206,-5.3206,-5.3206,-5.3206,-5.3206,-5.3206,-5.3206,-5.3206,-5.3206,-5.3206,-5.3188,-5.3078,-5.2307,-5.1481,-5.0637,-4.9884,-4.9058,-4.8306,-4.8306,-4.8306,-4.8306,0.0,0.0,0.0,0.0,0.0,0.0,0.0,0.0,0.0,0.0,0.0,0.0,0.0,0.0,0.0,0.0,0.0,0.0,0.0,0.0,0.0,0.0,0.0,0.0,0.0,0.0,0.0,-2.6841,-2.8343,-2.9556,-3.0475,-3.1928,0.0,0.0,0.0,0.0,0.0,0.0,0.0,0.0,0.0,0.0,0.0,0.0,0.0,0.0,-3.3807,-3.3807,0.0,0.0,0.0,0.0,0.0,0.0,0.0,0.0,-3.5477,-3.6468,-3.7276,0.0,-3.8707,-3.8707,-3.8707,-3.8707,0.0,0.0,0.0,0.0,0.0,0.0,0.0,0.0,-4.1111,-4.1111,-4.2451,-4.3497,-4.3497,-4.4892,-4.6507,-4.8122,-4.8306,-4.8306,-4.8306,-4.8306,-4.8306,-4.8306,-4.8306,-4.8765,-4.9811,-5.0472,-5.1261,-5.2252,-5.2894,-5.3206,-5.3206,-5.3206,-5.3206,-5.3206,-5.3206,-5.3206,-5.3206,-5.3206,-5.3206,-5.3206,-5.3206,-5.2858,-5.227,-5.2068,-5.1151,-4.9848,-4.9646,-4.9058,-4.8306,-4.8306,-4.8306,-4.8306,0.0,0.0,0.0,0.0,0.0,0.0,0.0,0.0,0.0,0.0,0.0,0.0,0.0,0.0,0.0,0.0,0.0,0.0,0.0,0.0,0.0,0.0,0.0,0.0,0.0,0.0,0.0,0.0,0.0,-3.0029,0.0,0.0,0.0,0.0,0.0,0.0,0.0,0.0,0.0,0.0,-3.3807,0.0,0.0,0.0,0.0,0.0,-3.3807,-3.3807,0.0,-3.3807,-3.3807,-3.3807,0.0,0.0,0.0,0.0,-3.5624,-3.6468,-3.7276,-3.8083,-3.8707,-3.8707,-3.8707,-3.8707,-3.8707,0.0,0.0,0.0,0.0,0.0,0.0,0.0,-4.124,-4.1589,-4.269,-4.3754,-4.4488,-4.5681,-4.6911,-4.8159,-4.8306,-4.8306,-4.8306,-4.8306,-4.8306,-4.8306,-4.8306,-4.8673,-4.9536,-4.9994,-5.0618,-5.1426,-5.2234,-5.2839,-5.3206,-5.3206,-5.3206,-5.3206,-5.3206,-5.3206,-5.3206,-5.3206,-5.3206,-5.3188,-5.2821,-5.2399,-5.194,-5.1187,-5.038,-4.9536,-4.915,-4.8728,-4.8306,-4.8306,-4.8306,-4.8306,0.0,0.0,0.0,0.0,0.0,0.0,0.0,0.0,0.0,0.0,0.0,0.0,0.0,0.0,0.0,0.0,0.0,0.0,0.0,0.0,0.0,0.0,0.0,0.0,0.0,0.0,0.0,0.0,0.0,0.0,0.0,0.0,0.0,0.0,0.0,0.0,0.0,0.0,-3.3807,-3.3807,-3.3807,0.0,0.0,0.0,0.0,0.0,0.0,0.0,0.0,-3.3807,-3.3807,-3.3807,-3.3807,0.0,0.0,0.0,0.0,0.0,-3.7422,-3.8175,-3.8707,-3.8707,-3.8707,-3.8707,-3.8707,0.0,0.0,0.0,0.0,0.0,0.0,-4.0561,-4.1368,-4.2176,-4.3075,-4.4195,-4.5681,-4.6599,-4.7407,-4.8214,-4.8306,-4.8306,-4.8306,-4.8306,-4.8306,-4.8306,-4.8306,-4.8618,-4.9352,-4.9517,-4.9903,-5.06,-5.1389,-5.2142,-5.2839,-5.3096,-5.3206,-5.3206,-5.3206,-5.3206,-5.3206,-5.3206,-5.3133,-5.2986,-5.2289,-5.1848,-5.1518,-5.0141,-4.9499,-4.9315,-4.86,-4.8306,-4.8306,-4.8306,-4.8306,-4.8306,0.0,0.0,0.0,0.0,0.0,0.0,0.0,0.0,0.0,0.0,0.0,0.0,0.0,0.0,0.0,0.0,0.0,0.0,0.0,0.0,0.0,0.0,0.0,0.0,0.0,0.0,0.0,0.0,0.0,0.0,-3.143,-3.3037,-3.3807,0.0,0.0,0.0,0.0,-3.3807,-3.3807,-3.3807,-3.3807,0.0,0.0,0.0,0.0,0.0,0.0,0.0,0.0,-3.3807,-3.3807,-3.3807,-3.3807,0.0,0.0,0.0,0.0,0.0,-3.8102,-3.8615,-3.8707,-3.8707,-3.8707,-3.8707,-3.8707,0.0,0.0,0.0,0.0,0.0,0.0,-4.0561,-4.1368,-4.2176,-4.3552,-4.4837,-4.5773,-4.6599,-4.7407,-4.8214,-4.8306,-4.8306,-4.8306,-4.8306,-4.8306,-4.8306,-4.8306,-4.8361,-4.8489,-4.9187,-4.9646,-4.9774,-5.0563,-5.1041,-5.1169,-5.2527,-5.3206,-5.3206,-5.3206,-5.3206,-5.3206,-5.3206,-5.2839,-5.2179,-5.205,-5.1224,-4.9939,-4.9682,-4.9169,-4.8489,-4.8361,-4.8306,-4.8306,-4.8306,-4.8306,-4.8306,0.0,0.0,0.0,0.0,0.0,0.0,0.0,0.0,0.0,0.0,0.0,0.0,0.0,0.0,0.0,0.0,0.0,0.0,0.0,0.0,0.0,0.0,0.0,0.0,0.0,0.0,0.0,0.0,0.0,-3.172,-3.2396,-3.334,-3.3807,-3.3807,0.0,0.0,0.0,-3.3807,-3.3807,-3.3807,0.0,0.0,0.0,0.0,0.0,0.0,0.0,0.0,0.0,0.0,-3.3807,-3.3807,-3.3807,0.0,0.0,0.0,0.0,0.0,-3.8377,-3.8707,-3.8707,-3.8707,-3.8707,-3.8707,-3.8707,0.0,0.0,0.0,0.0,0.0,0.0,-4.0855,-4.1515,-4.2745,-4.4305,-4.548,-4.5847,-4.6966,-4.7902,-4.8269,-4.8306,-4.8306,-4.8306,-4.8306,-4.8306,-4.8306,-4.8306,-4.8306,-4.8306,-4.8673,-4.8893,-4.8893,-4.9701,-5.0141,-5.0141,-5.1316,-5.1903,-5.1903,-5.1903,-5.1903,-5.1903,-5.1903,-5.1701,-5.1334,-5.0875,-5.027,-4.9536,-4.9077,-4.8655,-4.8306,-4.8306,-4.8306,-4.8306,-4.8306,-4.8306,-4.8306,0.0,0.0,0.0,0.0,0.0,0.0,0.0,0.0,0.0,0.0,0.0,0.0,0.0,0.0,0.0,0.0,0.0,0.0,0.0,0.0,0.0,0.0,0.0,0.0,0.0,0.0,0.0,-3.0817,-3.1386,-3.225,-3.3332,-3.3652,-3.3807,0.0,0.0,0.0,0.0,-3.3807,-3.3807,-3.3807,0.0,0.0,0.0,0.0,0.0,0.0,0.0,0.0,0.0,0.0,0.0,0.0,0.0,0.0,0.0,-3.6046,-3.6853,-3.7661,-3.8487,-3.8707,-3.8707,-3.8707,0.0,-3.8707,-3.8707,-3.8707,0.0,0.0,0.0,0.0,0.0,-4.1423,-4.2066,-4.3296,-4.4837,-4.5902,-4.5902,-4.7297,-4.8306,-4.8306,-4.8306,-4.8306,-4.8306,-4.8306,-4.8306,-4.8306,-4.8306,-4.8306,-4.8306,-4.8306,-4.8306,-4.8306,-4.8948,-4.9297,-4.9297,-4.9903,-5.0417,-5.0802,-5.0802,-5.0802,-5.0802,-5.0802,-5.071,-5.0472,-4.9848,-4.9462,-4.9224,-4.8581,-4.8306,-4.8306,-4.8306,-4.8306,-4.8306,-4.8306,-4.8306,-4.8306,0.0,0.0,0.0,0.0,0.0,0.0,0.0,0.0,0.0,0.0,0.0,0.0,0.0,0.0,0.0,0.0,0.0,0.0,0.0,0.0,0.0,0.0,0.0,0.0,0.0,-2.9989,-3.0378,-3.1184,-3.2004,-3.288,-3.3762,-3.3807,-3.3807,-3.3807,0.0,0.0,0.0,-3.3807,-3.3807,-3.3807,-3.3807,0.0,0.0,0.0,0.0,0.0,0.0,0.0,0.0,0.0,0.0,0.0,0.0,0.0,-3.5155,-3.6046,-3.6853,-3.7661,-3.8487,-3.8707,-3.8707,-3.8707,-3.8707,0.0,-3.8707,-3.8707,0.0,-3.8707,0.0,0.0,-4.0946,-4.2323,-4.3369,-4.3461,-4.4837,-4.5902,-4.5902,-4.7297,-4.8306,-4.8306,-4.8306,-4.8306,-4.8306,-4.8306,-4.8306,-4.8306,-4.8306,-4.8306,-4.8306,-4.8306,-4.8306,-4.8306,-4.8361,-4.8398,-4.8398,-4.8453,-4.926,-5.0802,-5.0802,-5.0802,-5.0802,-5.0802,-5.038,-4.9664,-4.9609,-4.9132,-4.8398,-4.8343,-4.8306,-4.8306,-4.8306,-4.8306,-4.8306,-4.8306,-4.8306,-4.8306,0.0,0.0,0.0,0.0,0.0,0.0,0.0,0.0,0.0,0.0,0.0,0.0,0.0,0.0,0.0,0.0,0.0,0.0,0.0,0.0,0.0,0.0,0.0,-3.0311,-3.0768,-3.0784,-3.104,-3.1565,-3.2213,-3.2809,-3.3437,-3.3437,0.0,0.0,0.0,0.0,0.0,-3.3807,-3.3807,-3.3807,-3.3807,-3.3807,0.0,0.0,0.0,0.0,0.0,0.0,0.0,0.0,-3.3807,-3.3899,0.0,0.0,-3.5973,-3.6798,-3.7606,-3.8303,-3.8615,-3.8707,-3.8707,-3.8707,-3.8707,0.0,0.0,-3.8707,-3.8836,-3.9331,-3.968,0.0,-4.1607,-4.2745,-4.3644,-4.4158,-4.5186,-4.6067,-4.6581,-4.7609,-4.8306,-4.8306,-4.8306,-4.8306,-4.8306,-4.8306,-4.8306,-4.8306,-4.8306,-4.8306,-4.8306,-4.8306,-4.8306,-4.8306,-4.8306,-4.8306,-4.8306,-4.8306,-4.8618,-4.926,-4.926,-4.926,-4.926,-4.926,-4.9077,-4.8783,-4.8783,-4.86,-4.8306,-4.8306,-4.8306,-4.8306,-4.8306,-4.8306,-4.8306,-4.8306,-4.8306,-4.8306,0.0,0.0,0.0,0.0,0.0,0.0,0.0,0.0,0.0,0.0,0.0,0.0,0.0,0.0,0.0,0.0,0.0,0.0,0.0,0.0,0.0,0.0,0.0,-3.0683,-3.119,-3.119,-3.1312,-3.1603,-3.2213,-3.2745,-3.3214,0.0,0.0,0.0,0.0,0.0,0.0,0.0,-3.3807,-3.3807,-3.3807,-3.3807,0.0,0.0,0.0,0.0,0.0,0.0,0.0,0.0,0.0,0.0,0.0,0.0,0.0,0.0,-3.8065,-3.8707,-3.8707,-3.8707,-3.8707,-3.8707,0.0,0.0,-3.8707,-3.8707,-3.8927,-3.9717,-4.0286,-4.1075,-4.2433,-4.313,-4.3754,-4.458,-4.5388,-4.6177,-4.7003,-4.781,-4.8306,-4.8306,-4.8306,-4.8306,-4.8306,-4.8306,-4.8306,-4.8306,-4.8306,-4.8306,-4.8306,-4.8306,-4.8306,-4.8306,-4.8306,-4.8306,-4.8306,-4.8306,-4.8306,-4.8306,-4.8306,-4.8306,-4.8306,-4.8306,-4.8306,-4.8306,-4.8306,-4.8306,-4.8306,-4.8306,-4.8306,-4.8306,-4.8306,-4.8306,-4.8306,-4.8306,-4.8306,-4.8306,0.0,0.0,0.0,0.0,0.0,0.0,0.0,0.0,0.0,0.0,0.0,0.0,0.0,0.0,0.0,0.0,0.0,0.0,0.0,0.0,0.0,0.0,0.0,-3.119,-3.119,-3.119,-3.119,-3.119,-3.2092,-3.2745,-3.3214,-3.3606,0.0,0.0,0.0,0.0,0.0,0.0,-3.3807,-3.3807,-3.3807,-3.3807,-3.3807,0.0,0.0,0.0,0.0,0.0,0.0,0.0,-3.4339,0.0,0.0,0.0,0.0,0.0,-3.8065,-3.8707,-3.8707,-3.8707,-3.8707,0.0,0.0,0.0,-3.8707,-3.8707,-3.8946,-3.9753,-4.1203,-4.2543,-4.3332,-4.3497,-4.3754,-4.458,-4.5388,-4.6177,-4.7021,-4.781,-4.8306,-4.8306,-4.8306,-4.8306,-4.8306,-4.8306,-4.8306,-4.8306,-4.8306,-4.8306,-4.8306,-4.8306,-4.8306,-4.8306,-4.8306,-4.8306,-4.8306,-4.8306,-4.8306,-4.8306,-4.8306,-4.8306,-4.8306,-4.8306,-4.8306,-4.8306,-4.8306,-4.8306,-4.8306,-4.8306,-4.8306,-4.8306,-4.8306,-4.8306,-4.8306,-4.8306,-4.8306,-4.8306,0.0,0.0,0.0,0.0,0.0,0.0,0.0,0.0,0.0,0.0,0.0,0.0,0.0,0.0,0.0,0.0,0.0,0.0,0.0,0.0,0.0,0.0,0.0,0.0,0.0,0.0,-3.164,-3.164,-3.1897,-3.2433,0.0,0.0,0.0,-3.3807,0.0,0.0,0.0,0.0,0.0,-3.3807,-3.3807,-3.3807,-3.3807,0.0,0.0,0.0,0.0,0.0,0.0,0.0,0.0,0.0,0.0,0.0,0.0,-3.8175,-3.8505,-3.8707,-3.8707,-3.8707,0.0,-3.8707,0.0,0.0,0.0,-3.9148,0.0,0.0,-4.2415,-4.3222,-4.3442,-4.3497,-4.3938,-4.5314,-4.5736,-4.6379,-4.7755,-4.8159,-4.8306,-4.8306,-4.8306,-4.8306,-4.8306,-4.8306,-4.8306,-4.8306,-4.8306,-4.8306,-4.8306,-4.8306,-4.8306,-4.8306,-4.8306,-4.8306,-4.8306,-4.8306,-4.8306,-4.8306,-4.8306,-4.8306,-4.8306,-4.8306,-4.8306,-4.8306,-4.8306,-4.8306,-4.8306,-4.8306,-4.8306,-4.8306,-4.8306,-4.8306,-4.8306,-4.8306,-4.8306,-4.8306,0.0,0.0,0.0,0.0,0.0,0.0,0.0,0.0,0.0,0.0,0.0,0.0,0.0,0.0,0.0,0.0,0.0,0.0,0.0,0.0,0.0,0.0,0.0,0.0,0.0,-3.1449,-3.1623,0.0,0.0,0.0,0.0,0.0,0.0,-3.3807,0.0,-3.3807,0.0,0.0,0.0,-3.3807,-3.3807,-3.3807,-3.3807,0.0,0.0,0.0,0.0,0.0,0.0,0.0,0.0,0.0,0.0,0.0,0.0,-3.856,-3.8707,-3.8707,-3.8707,-3.8707,0.0,-3.8707,-3.8707,-3.8781,-3.9093,0.0,0.0,-4.1625,-4.2708,-4.3497,-4.3497,-4.3497,-4.403,-4.5645,-4.5902,-4.6452,-4.8086,-4.8306,-4.8306,-4.8306,-4.8306,-4.8306,-4.8306,-4.8306,-4.8306,-4.8306,-4.8306,-4.8306,-4.8306,-4.8306,-4.8306,-4.8306,-4.8306,-4.8306,-4.8306,-4.8306,-4.8306,-4.8306,-4.8306,-4.8306,-4.8306,-4.8306,-4.8306,-4.8306,-4.8306,-4.8306,-4.8306,-4.8306,-4.8306,-4.8306,-4.8306,-4.8306,-4.8306,-4.8306,-4.8306,-4.8306,0.0,0.0,0.0,0.0,0.0,0.0,0.0,0.0,0.0,0.0,0.0,0.0,0.0,0.0,0.0,0.0,0.0,0.0,0.0,0.0,0.0,0.0,0.0,0.0,0.0,0.0,0.0,0.0,0.0,0.0,0.0,0.0,-3.3807,-3.3807,0.0,-3.3807,0.0,0.0,0.0,-3.3807,-3.3807,-3.3807,-3.3807,-3.3807,0.0,0.0,0.0,0.0,0.0,0.0,0.0,0.0,0.0,0.0,-3.8707,-3.8707,-3.8707,-3.8707,-3.8707,0.0,0.0,-3.8707,-3.8707,0.0,-3.9625,-4.0469,-4.113,-4.1203,-4.2433,-4.3497,-4.3497,-4.3497,-4.3993,-4.5535,-4.5847,-4.6434,-4.7976,-4.8251,-4.8306,-4.8306,-4.8306,-4.8306,-4.8306,-4.8306,-4.8306,-4.8306,-4.8306,-4.8306,-4.8306,-4.8306,-4.8306,-4.8306,-4.8306,-4.8306,-4.8306,-4.8306,-4.8306,-4.8306,-4.8306,-4.8306,-4.8306,-4.8306,-4.8306,-4.8306,-4.8306,-4.8306,-4.8306,-4.8306,-4.8306,-4.8306,-4.8306,-4.8306,-4.8306,-4.8306,-4.8306,-4.8306,0.0,0.0,0.0,0.0,0.0,0.0,0.0,0.0,0.0,0.0,0.0,0.0,0.0,0.0,0.0,0.0,0.0,0.0,0.0,0.0,0.0,0.0,0.0,0.0,0.0,0.0,0.0,0.0,0.0,0.0,0.0,0.0,0.0,-3.3807,0.0,-3.3807,0.0,0.0,0.0,-3.3807,-3.3807,-3.3807,-3.3807,-3.3807,-3.4192,0.0,0.0,0.0,0.0,0.0,0.0,0.0,-3.7507,-3.8046,-3.8707,-3.8707,-3.8707,-3.8707,-3.8707,-3.8707,0.0,0.0,-3.8707,-3.8762,-3.8927,-4.0084,-4.1295,-4.1919,-4.2818,-4.3497,-4.3497,-4.3497,-4.3809,-4.48,-4.5498,-4.625,-4.7241,-4.7921,-4.8306,-4.8306,-4.8306,-4.8306,-4.8306,-4.8306,-4.8306,-4.8306,-4.8306,-4.8306,-4.8306,-4.8306,-4.8306,-4.8306,-4.8306,-4.8306,-4.8306,-4.8306,-4.8306,-4.8306,-4.8306,-4.8306,-4.8306,-4.8306,-4.8306,-4.8306,-4.8306,-4.8306,-4.8306,-4.8306,-4.8306,-4.8306,-4.8306,-4.8306,-4.8306,-4.8306,-4.8306,-4.8306,0.0,0.0,0.0,0.0,0.0,0.0,0.0,0.0,0.0,0.0,0.0,0.0,0.0,0.0,0.0,0.0,0.0,0.0,0.0,0.0,0.0,0.0,0.0,0.0,0.0,0.0,0.0,0.0,0.0,0.0,0.0,0.0,0.0,-3.3807,0.0,-3.3807,0.0,0.0,0.0,0.0,-3.3807,-3.4027,-3.4376,-3.4376,-3.4908,-3.5624,-3.5624,0.0,0.0,0.0,0.0,0.0,0.0,0.0,-3.8707,-3.8707,-3.8707,-3.8707,-3.8707,0.0,0.0,-3.8707,0.0,-3.8707,-3.8707,-3.9955,-4.124,-4.1644,-4.2671,-4.3497,-4.3497,-4.3497,-4.3754,-4.458,-4.5057,-4.5755,-4.6948,-4.748,-4.7884,-4.8251,-4.8306,-4.8306,-4.8306,-4.8306,-4.8306,-4.8306,-4.8306,-4.8306,-4.8306,-4.8306,-4.8306,-4.8306,-4.8306,-4.8306,-4.8306,-4.8306,-4.8306,-4.8306,-4.8306,-4.8306,-4.8306,-4.8306,-4.8306,-4.8306,-4.8306,-4.8306,-4.8306,-4.8306,-4.8306,-4.8306,-4.8306,-4.8306,-4.8306,-4.8306,-4.8306,-4.8306,0.0,0.0,0.0,0.0,0.0,0.0,0.0,0.0,0.0,0.0,0.0,0.0,0.0,0.0,0.0,0.0,0.0,0.0,0.0,0.0,0.0,0.0,0.0,0.0,0.0,0.0,0.0,0.0,0.0,0.0,0.0,0.0,0.0,-3.3807,0.0,0.0,0.0,0.0,0.0,0.0,0.0,0.0,-3.521,-3.521,-3.5771,-3.6505,-3.6505,-3.7019,-3.7698,-3.7698,0.0,0.0,0.0,0.0,-3.8707,-3.8707,-3.8707,-3.8707,-3.8707,0.0,-3.8707,-3.8707,-3.8707,0.0,-3.8707,-3.9845,-4.0946,-4.1075,-4.2378,-4.3497,-4.3497,-4.3497,-4.3718,-4.4378,-4.4617,-4.5168,-4.6507,-4.6929,-4.737,-4.8012,-4.8233,-4.8306,-4.8306,-4.8306,-4.8306,-4.8306,-4.8306,-4.8306,-4.8306,-4.8306,-4.8306,-4.8306,-4.8306,-4.8306,-4.8306,-4.8306,-4.8306,-4.8306,-4.8306,-4.8306,-4.8306,-4.8306,-4.8306,-4.8306,-4.8306,-4.8306,-4.8306,-4.8306,-4.8306,-4.8306,-4.8306,-4.8306,-4.8306,-4.8306,-4.8306,-4.8306,0.0,0.0,0.0,0.0,0.0,0.0,0.0,0.0,0.0,0.0,0.0,0.0,0.0,0.0,0.0,0.0,0.0,0.0,-3.119,0.0,0.0,-3.119,-3.119,0.0,0.0,0.0,0.0,0.0,0.0,0.0,0.0,0.0,0.0,0.0,0.0,0.0,0.0,0.0,0.0,0.0,0.0,0.0,0.0,-3.6138,-3.6615,-3.7331,-3.7331,-3.7845,-3.8542,-3.8542,-3.8615,0.0,0.0,0.0,-3.8707,-3.8707,-3.8707,-3.8707,0.0,0.0,-3.8707,0.0,-3.8707,-3.8707,0.0,-3.9405,-4.0267,-4.0965,-4.2378,-4.3497,-4.3497,-4.3497,-4.3534,-4.3626,-4.425,-4.4782,-4.5002,-4.6232,-4.715,-4.726,-4.7884,-4.8306,-4.8306,-4.8306,-4.8306,-4.8306,-4.8306,-4.8306,-4.8306,-4.8306,-4.8306,-4.8306,-4.8306,-4.8306,-4.8306,-4.8306,-4.8306,-4.8306,-4.8306,-4.8306,-4.8306,-4.8306,-4.8306,-4.8306,-4.8306,-4.8306,-4.8306,-4.8306,-4.8306,-4.8306,-4.8306,-4.8306,-4.8306,-4.8306,-4.8306,-4.8306,0.0,0.0,0.0,0.0,0.0,0.0,0.0,0.0,0.0,0.0,0.0,0.0,0.0,0.0,0.0,-3.119,-3.119,-3.119,-3.119,-3.119,-3.119,-3.119,-3.119,0.0,0.0,0.0,0.0,0.0,0.0,0.0,0.0,-3.3027,-3.3447,0.0,0.0,0.0,0.0,0.0,0.0,0.0,0.0,0.0,0.0,0.0,-3.7459,-3.8175,-3.8175,-3.8395,-3.8707,-3.8707,-3.8707,-3.8707,-3.8707,0.0,0.0,0.0,-3.8707,0.0,-3.8707,-3.8707,-3.8707,0.0,-3.8707,-3.8707,-3.8707,-3.9313,-3.9992,-4.0359,-4.1717,-4.2965,-4.3406,-4.3497,-4.3497,-4.3497,-4.3791,-4.4195,-4.4654,-4.5314,-4.5938,-4.6379,-4.6746,-4.7131,-4.759,-4.7645,-4.7829,-4.8269,-4.8306,-4.8306,-4.8306,-4.8306,-4.8306,-4.8306,-4.8306,-4.8306,-4.8306,-4.8306,-4.8306,-4.8306,-4.8306,-4.8306,-4.8306,-4.8306,-4.8306,-4.8306,-4.8306,-4.8306,-4.8306,-4.8306,-4.8306,-4.8306,-4.8306,-4.8306,-4.8306,-4.8306,-4.8306,-4.8306,0.0,0.0,0.0,0.0,0.0,0.0,0.0,0.0,0.0,0.0,0.0,0.0,0.0,0.0,0.0,0.0,-3.119,-3.119,-3.119,-3.119,-3.119,-3.119,-3.119,-3.119,-3.119,0.0,0.0,0.0,0.0,0.0,-3.2004,-3.2809,-3.3214,0.0,-3.3606,0.0,0.0,0.0,0.0,0.0,0.0,0.0,0.0,0.0,-3.8175,-3.8707,-3.8707,-3.8707,-3.8707,-3.8707,-3.8707,-3.8707,-3.8707,-3.8707,0.0,0.0,0.0,0.0,0.0,0.0,-3.8707,-3.8707,-3.8707,-3.8707,-3.8707,-3.9166,-3.9643,-3.9845,-4.0855,-4.1992,-4.3002,-4.3351,-4.3497,-4.3497,-4.3497,-4.3699,-4.4305,-4.458,-4.4929,-4.5516,-4.5773,-4.614,-4.6746,-4.6819,-4.7058,-4.7645,-4.77,-4.7792,-4.7994,-4.8012,-4.8104,-4.8306,-4.8306,-4.8306,-4.8306,-4.8306,-4.8306,-4.8306,-4.8306,-4.8306,-4.8306,-4.8306,-4.8306,-4.8306,-4.8306,-4.8306,-4.8306,-4.8306,-4.8306,-4.8306,-4.8306,-4.8306,-4.8306,-4.8306,-4.8306,-4.8306,0.0,0.0,0.0,0.0,0.0,0.0,0.0,0.0,0.0,0.0,0.0,0.0,-3.119,-3.119,-3.119,-3.119,-3.119,-3.119,-3.119,-3.119,-3.119,-3.119,-3.119,0.0,-3.119,0.0,0.0,0.0,0.0,0.0,-3.2484,-3.2983,-3.3214,-3.3214,-3.3606,-3.4229,-3.4935,0.0,0.0,0.0,0.0,0.0,0.0,0.0,-3.867,-3.8707,-3.8707,-3.8707,-3.8707,-3.8707,-3.8707,-3.8707,-3.8707,-3.8707,-3.8707,0.0,0.0,0.0,0.0,-3.8707,0.0,-3.8707,-3.8707,-3.8707,-3.8707,-3.8726,-3.8982,-3.9735,-3.9955,-4.0487,-4.2066,-4.2983,-4.3497,-4.3497,-4.3497,-4.3497,-4.3552,-4.4213,-4.4727,-4.4764,-4.5443,-4.592,-4.5957,-4.5957,-4.5975,-4.6012,-4.6012,-4.6361,-4.7131,-4.7186,-4.7517,-4.8288,-4.8306,-4.8306,-4.8306,-4.8306,-4.8306,-4.8306,-4.8306,-4.8306,-4.8306,-4.8306,-4.8306,-4.8306,-4.8306,-4.8306,-4.8306,-4.8306,-4.8306,-4.8306,-4.8306,-4.8306,-4.8306,-4.8306,-4.8306,-4.8306,0.0,0.0,0.0,0.0,0.0,0.0,0.0,0.0,0.0,0.0,0.0,0.0,0.0,-3.119,-3.119,-3.119,-3.119,-3.119,-3.119,-3.119,-3.119,-3.119,-3.119,-3.119,-3.119,0.0,0.0,0.0,0.0,-3.177,-3.1694,-3.2417,-3.3012,-3.3559,-3.4258,-3.4715,-3.5064,-3.6156,0.0,0.0,0.0,0.0,0.0,0.0,0.0,-3.8707,-3.8707,-3.8707,-3.8707,-3.8707,-3.8707,-3.8707,-3.8707,-3.8707,-3.8707,-3.8707,-3.8707,0.0,0.0,0.0,0.0,-3.8707,-3.8707,-3.8707,-3.8707,-3.8707,-3.8781,-3.9074,-3.9533,-4.0065,-4.0653,-4.1846,-4.2892,-4.3406,-4.3497,-4.3497,-4.3497,-4.3736,-4.392,-4.392,-4.4176,-4.4562,-4.5076,-4.5131,-4.5351,-4.5865,-4.5902,-4.603,-4.6305,-4.6342,-4.6471,-4.6746,-4.6764,-4.7021,-4.7535,-4.8049,-4.8306,-4.8306,-4.8306,-4.8306,-4.8306,-4.8306,-4.8306,-4.8306,-4.8306,-4.8306,-4.8306,-4.8306,-4.8306,-4.8306,-4.8306,-4.8306,-4.8306,-4.8306,-4.8306,-4.8306,0.0,0.0,0.0,0.0,0.0,0.0,0.0,0.0,0.0,0.0,0.0,0.0,0.0,0.0,-3.119,-3.119,-3.119,-3.119,-3.119,-3.119,-3.119,-3.119,-3.119,-3.119,-3.119,0.0,0.0,0.0,0.0,0.0,0.0,-3.2582,-3.3415,-3.4329,-3.5199,-3.5663,0.0,0.0,0.0,-3.7698,0.0,0.0,-3.8465,0.0,-3.8707,-3.8707,-3.8707,-3.8707,-3.8707,-3.8707,-3.8707,-3.8707,-3.8707,-3.8707,-3.8707,-3.8707,-3.8707,0.0,-3.8707,0.0,0.0,0.0,-3.8707,-3.8707,-3.8707,-3.8707,-3.8707,-3.8707,-3.9129,-3.957,-3.9845,-4.0763,-4.1846,-4.291,-4.3314,-4.3497,-4.3497,-4.3497,-4.3497,-4.3497,-4.3497,-4.3699,-4.425,-4.4305,-4.4525,-4.5039,-4.5094,-4.5204,-4.548,-4.5498,-4.5626,-4.5883,-4.5902,-4.6159,-4.6709,-4.7517,-4.7921,-4.7921,-4.8177,-4.8306,-4.8306,-4.8306,-4.8306,-4.8306,-4.8306,-4.8306,-4.8306,-4.8306,-4.8306,-4.8306,-4.8306,-4.8306,-4.8306,-4.8306,-4.8306,-4.8306,0.0,0.0,0.0,0.0,0.0,0.0,0.0,0.0,0.0,0.0,0.0,0.0,0.0,0.0,0.0,-3.119,-3.119,-3.119,-3.119,-3.119,-3.119,-3.119,-3.119,-3.119,-3.119,0.0,0.0,0.0,0.0,0.0,0.0,0.0,-3.4349,0.0,-3.6312,-3.6971,-3.7454,0.0,-3.7174,-3.7893,0.0,-3.7928,-3.798,-3.8496,-3.8707,-3.8707,-3.8707,-3.8707,-3.8707,-3.8707,-3.8707,-3.8707,-3.8707,-3.8707,-3.8707,-3.8707,-3.8707,0.0,0.0,0.0,0.0,-3.8707,-3.8707,-3.8707,-3.8707,-3.8707,-3.8707,-3.8707,-3.8707,-3.8946,-3.9717,-3.9863,-4.0396,-4.1974,-4.2892,-4.3424,-4.3442,-4.3442,-4.3461,-4.3497,-4.3497,-4.3497,-4.3497,-4.3497,-4.3497,-4.3497,-4.3497,-4.3828,-4.4635,-4.4672,-4.5021,-4.5792,-4.5847,-4.5865,-4.5865,-4.6673,-4.7039,-4.7095,-4.7884,-4.8269,-4.8269,-4.8306,-4.8306,-4.8306,-4.8306,-4.8306,-4.8306,-4.8306,-4.8306,-4.8306,-4.8306,-4.8306,-4.8306,-4.8306,-4.8306,-4.8306,0.0,0.0,0.0,0.0,0.0,0.0,0.0,0.0,0.0,0.0,0.0,0.0,0.0,-3.119,-3.119,-3.119,-3.119,-3.119,-3.119,-3.119,-3.119,-3.119,-3.119,-3.119,-3.119,0.0,0.0,0.0,0.0,0.0,0.0,0.0,0.0,0.0,-3.558,-3.6286,-3.7309,-3.7484,0.0,-3.7928,-3.83,-3.8465,-3.8496,-3.8627,-3.8707,-3.8707,-3.8707,-3.8707,-3.8707,-3.8707,-3.8707,-3.8707,-3.8707,-3.8707,0.0,-3.8707,-3.8707,-3.8707,-3.8707,0.0,0.0,0.0,0.0,0.0,-3.8707,-3.8707,-3.8707,-3.8707,-3.8707,-3.8781,-3.9001,-3.9515,-4.0047,-4.0487,-4.124,-4.1974,-4.2543,-4.2635,-4.2837,-4.3424,-4.3497,-4.3497,-4.3497,-4.3497,-4.3497,-4.3497,-4.3497,-4.3589,-4.3809,-4.3828,-4.392,-4.4158,-4.4727,-4.5039,-4.5039,-4.5828,-4.6232,-4.625,-4.7058,-4.7443,-4.7462,-4.8031,-4.8306,-4.8306,-4.8306,-4.8306,-4.8306,-4.8306,-4.8306,-4.8306,-4.8306,-4.8306,-4.8306,-4.8306,-4.8306,-4.8306,0.0,0.0,0.0,0.0,0.0,0.0,0.0,0.0,0.0,0.0,0.0,0.0,0.0,0.0,-3.119,-3.119,-3.119,-3.1326,-3.163,-3.1647,-3.1799,-3.2104,-3.2121,-3.2121,-3.2121,0.0,0.0,0.0,0.0,0.0,0.0,0.0,0.0,0.0,0.0,0.0,0.0,0.0,0.0,0.0,-3.815,-3.8382,-3.8382,-3.8627,-3.8707,-3.8707,-3.8707,-3.8927,-3.9148,-3.8817,-3.8927,-3.9203,-3.9203,-3.9203,-3.9203,-3.9203,-3.8964,0.0,0.0,0.0,-3.8707,-3.8707,0.0,0.0,-3.8707,-3.8707,-3.8707,-3.8707,-3.8707,-3.8707,-3.8707,-3.9074,-3.9405,-3.9405,-3.979,-4.0506,-4.1644,-4.1809,-4.1974,-4.2433,-4.28,-4.3002,-4.3002,-4.3296,-4.3497,-4.3497,-4.3497,-4.3497,-4.3497,-4.3497,-4.3497,-4.3497,-4.3956,-4.4195,-4.4195,-4.5002,-4.5406,-4.5406,-4.6214,-4.6783,-4.7094,-4.7609,-4.7994,-4.8306,-4.8306,-4.8306,-4.8306,-4.8306,-4.8306,-4.8306,-4.8306,-4.8306,-4.8306,-4.8306,-4.8306,-4.8306,0.0,0.0,0.0,0.0,0.0,0.0,0.0,0.0,0.0,0.0,0.0,0.0,0.0,0.0,-3.136,-3.1427,-3.1427,-3.1715,-3.2357,-3.2408,-3.2696,-3.3372,-3.3406,-3.3406,-3.3406,0.0,0.0,0.0,0.0,0.0,0.0,0.0,0.0,0.0,0.0,0.0,0.0,0.0,0.0,-3.7135,-3.7685,-3.7893,-3.7946,-3.8515,-3.8707,-3.8707,-3.8707,-3.9166,-3.9662,-3.9038,-3.9368,-4.0029,-4.0029,-4.0029,-4.0029,-4.0029,-3.9533,0.0,0.0,0.0,0.0,-3.8982,-3.8982,0.0,-3.8982,-3.8909,-3.8836,-3.8836,-3.8762,-3.8707,-3.8707,-3.8707,-3.8707,-3.8707,-3.8707,-3.9239,-4.0763,-4.0983,-4.102,-4.1111,-4.1735,-4.2176,-4.2176,-4.28,-4.3222,-4.3222,-4.3314,-4.3406,-4.3497,-4.3497,-4.3497,-4.3497,-4.3497,-4.3497,-4.3497,-4.4213,-4.458,-4.458,-4.5388,-4.614,-4.6856,-4.704,-4.7498,-4.8177,-4.8269,-4.8306,-4.8306,-4.8306,-4.8306,-4.8306,-4.8306,-4.8306,-4.8306,-4.8306,-4.8306,-4.8306,-2.7625,0.0,0.0,0.0,0.0,0.0,0.0,0.0,0.0,0.0,0.0,0.0,0.0,0.0,-3.2307,-3.2916,-3.2983,-3.3034,-3.3186,-3.3186,-3.3254,-3.3406,-3.3406,-3.3406,-3.3406,-3.3406,0.0,0.0,0.0,0.0,0.0,0.0,0.0,0.0,0.0,0.0,0.0,0.0,-3.6457,-3.6643,-3.7542,-3.7893,-3.7946,-3.8515,-3.8707,-3.8707,-3.8707,-3.8799,-3.9019,-3.9496,-4.0194,-4.0873,-4.0873,-4.0873,-4.0873,-4.0873,-4.0763,-4.0634,-4.0634,-4.0634,-4.0634,-4.0634,-4.0634,0.0,-4.0634,-4.0139,-3.9662,-3.9662,-3.9148,-3.8707,-3.8707,-3.8707,-3.8707,-3.8707,-3.8707,-3.9038,-3.9992,-4.012,-4.0377,-4.1038,-4.1258,-4.135,-4.135,-4.1497,-4.1589,-4.1589,-4.2176,-4.2818,-4.3461,-4.3497,-4.3497,-4.3497,-4.3497,-4.3497,-4.3497,-4.3644,-4.3718,-4.3736,-4.4544,-4.5021,-4.5223,-4.6526,-4.7205,-4.7388,-4.8031,-4.8306,-4.8306,-4.8306,-4.8306,-4.8306,-4.8306,-4.8306,-4.8306,-4.8306,-4.8306,-4.8306,-2.7625,0.0,0.0,0.0,0.0,0.0,0.0,0.0,0.0,0.0,0.0,0.0,0.0,0.0,0.0,-3.3372,-3.3406,-3.3558,-3.3931,-3.3947,-3.4117,-3.4489,-3.4506,-3.4506,-3.4506,-3.4506,0.0,0.0,0.0,0.0,0.0,0.0,0.0,0.0,0.0,0.0,0.0,0.0,-3.6028,-3.6097,-3.7379,-3.7893,-3.7946,-3.8515,-3.8946,-3.9294,-3.9294,-3.957,-4.0029,-4.0836,-4.1368,-4.1699,-4.1699,-4.1699,-4.1699,-4.1699,-4.1423,-4.1111,-4.1111,-4.1111,-4.1111,-4.1111,-4.1111,0.0,0.0,-4.0487,-3.99,-3.99,-3.9258,-3.8707,-3.8707,-3.8707,-3.8707,-3.8707,-3.8707,-3.8836,-3.9239,-3.9294,-3.9441,-3.9863,-4.0267,-4.0506,-4.0506,-4.0873,-4.1111,-4.1111,-4.1479,-4.2047,-4.2855,-4.2892,-4.3075,-4.3479,-4.3497,-4.3497,-4.3497,-4.3497,-4.3497,-4.3497,-4.3901,-4.4305,-4.4745,-4.5553,-4.6361,-4.7094,-4.7535,-4.7939,-4.8306,-4.8306,-4.8306,-4.8306,-4.8306,-4.8306,-4.8306,-4.8306,-4.8306,-4.8306,-2.767,0.0,0.0,0.0,0.0,0.0,0.0,0.0,0.0,0.0,0.0,0.0,0.0,0.0,-3.3677,0.0,-3.3829,-3.4083,-3.4675,-3.4709,-3.4979,-3.5588,-3.5622,-3.5622,-3.5622,-3.5622,-3.5622,0.0,0.0,0.0,0.0,0.0,0.0,0.0,0.0,0.0,0.0,0.0,-3.5757,-3.5756,-3.7397,-3.7954,-3.7882,-3.8567,-3.9258,-3.9805,-3.9922,-4.0419,-4.1118,-4.1999,-4.2328,-4.2422,-4.2491,-4.2525,-4.2525,-4.2525,-4.2066,-4.157,-4.157,-4.157,-4.157,-4.157,-4.157,-4.157,0.0,0.0,0.0,-4.0157,-3.9496,-3.8891,-3.8726,-3.8707,-3.8652,-3.8487,-3.8597,-3.8652,-3.8487,-3.8597,-3.8707,-3.8707,-3.9276,-3.9662,-3.9662,-4.0267,-4.0708,-4.0873,-4.0873,-4.1222,-4.2029,-4.2213,-4.2598,-4.324,-4.3406,-4.3497,-4.3497,-4.3497,-4.3497,-4.3497,-4.3497,-4.3828,-4.447,-4.4635,-4.5424,-4.6673,-4.6985,-4.748,-4.8086,-4.8251,-4.8306,-4.8306,-4.8306,-4.8306,-4.8306,-4.8306,-4.8306,-4.8306,-2.785,-2.7625,0.0,0.0,0.0,0.0,0.0,0.0,0.0,0.0,0.0,0.0,-3.3324,-3.403,-3.4641,-3.5318,-3.5368,-3.5402,-3.5487,-3.5504,-3.552,-3.5622,-3.5622,-3.5622,-3.5622,-3.5622,-3.5622,-3.5622,0.0,0.0,0.0,0.0,0.0,0.0,-3.5622,0.0,0.0,0.0,-3.6248,-3.5768,-3.7724,-3.8146,-3.7666,-3.8881,-3.9359,-3.9509,-4.0021,-4.0374,-4.0838,-4.1938,-4.2467,-4.2737,-4.3193,-4.3351,-4.3351,-4.3351,-4.3296,-4.3222,-4.3222,-4.3222,-4.3222,-4.3222,-4.3222,-4.3222,-4.3222,0.0,-4.1827,-4.1111,0.0,-3.9551,-3.8836,0.0,0.0,-3.7734,-3.823,-3.845,-3.7734,-3.8248,-3.8707,-3.8707,-3.8781,-3.8836,-3.8836,-3.8927,-3.9276,-3.9974,-4.0029,-4.0396,-4.1203,-4.1919,-4.2341,-4.2433,-4.313,-4.3497,-4.3497,-4.3497,-4.3497,-4.3497,-4.3497,-4.3534,-4.3644,-4.4378,-4.4819,-4.5057,-4.6489,-4.713,-4.7297,-4.8012,-4.8306,-4.8306,-4.8306,-4.8306,-4.8306,-4.8306,-4.8306,-4.8306,-2.8846,-2.8742,0.0,0.0,0.0,0.0,0.0,0.0,0.0,0.0,0.0,-3.2233,-3.3954,-3.4383,-3.4856,-3.5543,-3.5622,-3.5622,-3.5622,-3.5622,-3.5622,-3.5622,-3.5622,-3.5622,-3.5622,-3.5622,-3.5622,-3.5622,-3.5622,0.0,0.0,0.0,0.0,0.0,-3.5622,0.0,-3.5673,-3.6451,-3.6586,-3.6463,-3.8155,-3.8657,-3.8442,-3.9133,-3.9878,-4.0656,-4.1371,-4.1919,-4.2376,-4.2827,-4.3065,-4.3214,-4.341,-4.3497,-4.3497,-4.3497,-4.3497,-4.3497,-4.3497,-4.325,-4.3105,-4.341,-4.325,-4.3142,-4.341,-4.2873,-4.2066,-4.1277,0.0,0.0,0.0,0.0,0.0,0.0,-3.8487,-3.8579,-3.823,-3.8487,-3.8707,-3.8707,-3.8707,-3.8707,-3.8707,-3.8707,-3.8836,-3.9184,-3.9203,-3.9551,-4.0359,-4.0726,-4.113,-4.1589,-4.2378,-4.28,-4.28,-4.3259,-4.3497,-4.3497,-4.3497,-4.3497,-4.3497,-4.3846,-4.4268,-4.4764,-4.592,-4.6673,-4.7186,-4.7976,-4.8306,-4.8306,-4.8306,-4.8306,-4.8306,-4.8306,-4.8306,-4.8306,-3.0118,0.0,0.0,0.0,0.0,0.0,0.0,0.0,-3.0488,-3.1435,-3.1751,-3.2489,-3.4137,-3.4479,-3.4894,-3.5515,-3.5622,-3.5622,-3.5622,-3.5622,-3.5622,-3.5622,-3.5622,-3.5622,-3.5622,-3.5622,-3.5622,-3.5622,0.0,0.0,0.0,0.0,0.0,0.0,0.0,-3.5943,-3.5994,-3.6975,-3.728,-3.7212,-3.87,-3.9292,-3.9306,-3.9517,-4.0215,-4.1138,-4.1948,-4.2364,-4.2639,-4.294,-4.2922,-4.2847,-4.316,-4.3286,-4.3286,-4.3444,-4.3497,-4.3497,-4.3497,-4.3214,-4.3014,-4.341,-4.3214,-4.3014,-4.341,-4.3039,-4.2341,-4.1313,-4.0653,0.0,0.0,0.0,-3.8634,-3.8414,0.0,-3.8615,-3.8395,-3.856,-3.8707,-3.8707,-3.8707,-3.8707,-3.8707,-3.8707,-3.8707,-3.8707,-3.8707,-3.8946,-3.9533,-3.9772,-4.0175,-4.0763,-4.1772,-4.2304,-4.2304,-4.3094,-4.3497,-4.3497,-4.3497,-4.3497,-4.3497,-4.3497,-4.3809,-4.4415,-4.5223,-4.603,-4.6838,-4.7645,-4.8104,-4.8306,-4.8306,-4.8306,-4.8306,-4.8306,-4.8306,-4.8306,-3.1422,-3.0447,0.0,0.0,0.0,0.0,0.0,-3.1046,-3.148,-3.1495,-3.213,-3.2826,-3.3531,-3.4235,-3.4894,-3.5515,-3.5622,-3.5622,-3.5622,-3.5622,-3.5622,-3.5622,-3.5622,-3.5622,-3.5622,-3.5622,-3.5622,-3.5622,0.0,0.0,0.0,0.0,0.0,0.0,0.0,-3.6738,-3.684,-3.8294,-3.8514,-3.799,-3.9462,-4.0037,-4.0087,-4.0053,-4.0103,-4.022,-4.078,-4.0625,-4.0385,-4.1508,-4.149,-4.1178,-4.2342,-4.275,-4.2826,-4.3339,-4.3497,-4.3497,-4.3497,-4.3497,-4.3479,-4.3497,-4.3497,-4.3479,-4.3497,-4.3461,-4.3002,-4.1442,-4.1093,-4.0598,-3.9001,-3.8707,-3.845,-3.7661,-3.8193,0.0,0.0,-3.8212,-3.8707,-3.8707,-3.8707,-3.8707,-3.8707,-3.8707,-3.8707,-3.8707,-3.8707,-3.8707,-3.8744,-3.9478,-3.99,-3.9937,-4.146,-4.2304,-4.2304,-4.3094,-4.3497,-4.3497,-4.3497,-4.3497,-4.3497,-4.3497,-4.3497,-4.3571,-4.4397,-4.5204,-4.5993,-4.6819,-4.7609,-4.8306,-4.8306,-4.8306,-4.8306,-4.8306,-4.8306,-4.8306,-3.1482,0.0,0.0,0.0,0.0,-3.0941,-3.115,-3.1317,-3.1482,-3.1482,-3.1739,-3.216,-3.2841,-3.3145,-3.3751,-3.4847,-3.4941,-3.5144,-3.5577,-3.5622,-3.5622,-3.5622,-3.5622,-3.5622,-3.5622,-3.5622,-3.5622,-3.5622,-3.5622,0.0,0.0,0.0,0.0,0.0,0.0,-3.7533,-3.7584,-3.8582,-3.8853,-3.87,-3.9681,-4.007,-4.007,-4.007,-4.0336,-4.0655,-4.081,-4.1059,-4.1286,-4.1682,-4.1664,-4.1578,-4.1979,-4.2121,-4.2162,-4.2306,-4.2657,-4.2976,-4.2976,-4.2976,-4.305,-4.341,-4.325,-4.305,-4.341,-4.3497,-4.3185,-4.2121,-4.1479,-4.0781,-3.968,-3.9056,-3.8615,-3.834,-3.8524,-3.8597,0.0,-3.8524,-3.8707,-3.8707,-3.8707,-3.8707,-3.8707,-3.8707,-3.8707,-3.8707,-3.8707,-3.8707,-3.8707,-3.8964,-3.9111,-3.9111,-4.0157,-4.0965,-4.1515,-4.2304,-4.2965,-4.3497,-4.3497,-4.3497,-4.3497,-4.3497,-4.3497,-4.3534,-4.436,-4.5168,-4.5957,-4.6783,-4.759,-4.8306,-4.8306,-4.8306,-4.8306,-4.8306,-4.8306,-4.8306,-3.1482,0.0,0.0,-3.1482,-3.1482,-3.1482,-3.1482,-3.1482,-3.1556,-3.1795,-3.1884,-3.2234,-3.3156,-3.3505,-3.4139,-3.5251,-3.5627,-3.5964,-3.6388,-3.6434,-3.6315,-3.6045,-3.6028,-3.591,-3.5622,-3.5893,-3.6028,-3.6028,-3.6299,-3.6434,0.0,0.0,0.0,0.0,0.0,-3.8294,-3.8345,-3.9073,-3.9377,-3.9411,-3.9884,-4.007,-4.007,-4.007,-4.0336,-4.0625,-4.0625,-4.0891,-4.1213,-4.1213,-4.1213,-4.1241,-4.1402,-4.149,-4.1534,-4.1768,-4.208,-4.2382,-4.2382,-4.2382,-4.2462,-4.281,-4.2619,-4.2519,-4.3087,-4.3214,-4.3031,-4.2436,-4.1662,-4.0855,-4.0047,-3.9239,-3.8707,-3.8707,-3.8707,-3.8707,0.0,-3.8707,-3.8707,-3.8707,-3.8707,-3.8707,-3.8707,-3.8707,-3.8707,-3.8707,-3.8707,-3.8707,-3.8707,-3.8707,-3.8707,-3.8707,-3.9478,-4.0286,-4.1111,-4.1901,-4.269,-4.3497,-4.3497,-4.3497,-4.3497,-4.3497,-4.3497,-4.3516,-4.4048,-4.4892,-4.5938,-4.6471,-4.7333,-4.8306,-4.8306,-4.8306,-4.8306,-4.8306,-4.8306,-4.8306,-3.1482,-3.1482,-3.1482,-3.1482,-3.1482,-3.1482,-3.1511,-3.1526,-3.1824,-3.2482,-3.2557,-3.3005,-3.4334,-3.5124,-3.5857,-3.6544,-3.7286,-3.7745,-3.7793,-3.7793,-3.7537,-3.681,-3.6823,-3.6502,-3.574,-3.6451,-3.6823,-3.6823,-3.755,0.0,0.0,0.0,0.0,0.0,-3.8717,0.0,-3.9089,-3.9783,-4.007,-4.007,-4.007,-4.007,-4.007,-4.007,-4.007,-4.007,-4.007,-4.007,-4.007,-4.007,-4.007,-4.0204,-4.0703,-4.0856,-4.0949,-4.1534,-4.1707,-4.1768,-4.1768,-4.1768,-4.181,-4.181,-4.181,-4.1937,-4.2519,-4.2673,-4.2571,-4.2317,-4.1614,-4.0789,-4.0052,-3.9227,-3.8658,-3.8707,-3.8707,-3.8707,-3.8707,-3.8707,-3.8707,-3.8707,-3.8676,-3.8658,-3.8707,-3.8707,-3.8707,-3.8707,-3.8707,-3.8707,-3.8707,-3.8707,-3.8707,-3.8707,-3.9441,-4.0249,-4.1111,-4.1864,-4.2653,-4.3497,-4.3497,-4.3497,-4.3497,-4.3497,-4.3497,-4.3497,-4.3497,-4.4397,-4.5902,-4.5902,-4.6856,-4.8306,-4.8306,-4.8306,-4.8306,-4.8306,-4.8306,-4.8306,-3.1482,-3.1482,-3.1482,-3.1482,-3.1482,-3.1704,-3.2183,-3.2258,-3.2497,-3.3155,-3.3245,-3.3351,-3.3744,-3.3939,-3.4309,-3.4996,-3.5276,-3.5639,-3.6157,-3.668,-3.6903,-3.6704,-3.728,-3.7516,-3.733,-3.7516,-3.7618,-3.7618,-3.7821,0.0,-3.7922,0.0,0.0,0.0,0.0,-3.98,-3.9817,-4.0003,-4.007,-4.007,-4.007,-4.007,-4.007,-4.007,-4.007,-4.007,-4.007,-4.007,-4.007,-4.007,-4.007,-4.0121,-4.0237,-4.0286,-4.0336,-4.0514,-4.0797,-4.1133,-4.1133,-4.1446,-4.181,-4.181,-4.181,-4.1853,-4.1997,-4.2021,-4.2009,-4.1935,-4.0849,-3.9944,-4.0095,-3.9041,-3.8234,-3.8627,-3.8707,-3.8707,-3.8707,-3.8707,-3.8707,-3.8707,-3.835,-3.8267,-3.8658,-3.8707,-3.8707,-3.8707,-3.8707,-3.8707,-3.8707,-3.8707,-3.8707,-3.8707,-3.8909,-3.968,-4.1093,-4.1313,-4.2121,-4.3497,-4.3497,-4.3497,-4.3497,-4.3497,-4.3497,-4.3497,-4.3497,-4.4397,-4.5902,-4.5902,-4.6856,-4.8306,-4.8306,-4.8306,-4.8306,-4.8306,-4.8306,-4.8306,-3.1482,-3.1764,-3.1958,-3.1958,-3.2198,-3.2422,-3.2497,-3.2766,-3.3185,-3.3844,-3.3918,-3.4038,-3.4337,-3.4634,-3.5019,-3.5409,-3.5748,-3.6111,-3.6525,-3.6954,-3.7026,-3.6702,-3.7157,-3.7232,-3.6884,-3.7502,-3.7886,-3.7886,-3.8537,0.0,-3.887,0.0,0.0,0.0,0.0,-4.007,-4.007,-4.007,-4.007,-4.007,-4.007,-4.007,0.0,-4.007,-4.007,-4.007,-4.007,-4.007,-4.007,-4.007,-4.007,-4.007,-4.007,-4.007,-4.007,-4.007,-4.0336,-4.0528,-4.0528,-4.0797,-4.1076,-4.1076,-4.1076,-4.1122,-4.1358,-4.1402,-4.149,-4.1768,-4.0837,-3.9979,-3.9899,-3.9049,-3.8464,-3.8682,-3.8707,-3.8707,-3.8707,-3.8707,-3.8707,-3.8707,-3.8415,-3.8382,-3.8658,-3.8285,-3.8219,-3.8676,-3.8496,-3.8465,-3.8676,-3.8707,-3.8707,-3.8707,-3.8707,-3.9313,-4.0561,-4.0928,-4.1735,-4.2983,-4.3314,-4.3497,-4.3497,-4.3497,-4.3497,-4.3497,-4.3497,-4.4397,-4.5902,-4.5902,-4.6856,-4.8306,-4.8306,-4.8306,-4.8306,-4.8306,-4.8306,-4.8306,-3.1735,-3.2243,-3.2647,-3.2647,-3.3185,-3.3425,-3.2856,-3.326,-3.3858,-3.4517,-3.4607,-3.4846,-3.5444,-3.6131,-3.6538,-3.6446,-3.7194,-3.7567,-3.7472,-3.7573,-3.7361,-3.674,-3.6878,-3.6717,-3.6069,-3.7302,-3.8002,-3.8107,-3.936,-4.002,0.0,0.0,0.0,0.0,0.0,0.0,0.0,-4.007,-4.007,-4.007,-4.007,-4.007,-4.007,-4.007,-4.007,-4.007,-4.007,-4.007,-4.007,-4.007,-4.007,-4.007,-4.007,-4.007,-4.007,-4.007,-4.007,-4.007,-4.007,-4.007,-4.007,-4.007,-4.007,-4.0204,-4.0703,-4.078,-4.0949,-4.1464,-4.0936,-4.0179,-3.9511,-3.9058,-3.874,-3.8606,-3.8596,-3.8578,-3.8515,-3.8546,-3.8596,-3.8596,-3.8546,0.0,-3.8676,-3.7913,-3.7756,-3.8627,-3.8267,-3.8216,-3.8676,-3.8707,-3.8707,-3.8707,-3.8707,-3.9093,-3.9882,-4.0708,-4.1515,-4.2304,-4.3112,-4.3497,-4.3497,-4.3497,-4.3497,-4.3497,-4.3497,-4.4397,-4.5902,-4.5902,-4.6856,-4.8306,-4.8306,-4.8306,-4.8306,-4.8306,-4.8306,-4.8306,-3.3155,-3.3245,-3.332,-3.332,-3.3858,-3.4262,-3.4143,-3.4233,-3.4547,-3.5235,-3.5325,-3.537,-3.5489,-3.6099,-3.6321,-3.5714,-3.636,-3.6501,-3.5955,-3.6461,-3.6736,-3.6611,-3.781,-3.8444,-3.8313,-3.8607,-3.901,-3.9716,-3.9301,-3.9437,0.0,0.0,0.0,0.0,0.0,0.0,-4.007,-4.007,-4.007,-4.007,-4.007,-4.007,-4.007,-4.007,-4.007,-4.007,-4.007,-4.007,-4.007,-4.007,-4.007,-4.007,-4.007,-4.007,-4.007,-4.007,-4.007,-4.007,-4.007,-4.007,-4.007,-4.007,-4.007,-4.0121,-4.0204,-4.0254,-4.0286,-4.0385,-3.9805,-3.9179,-3.8833,-3.8086,-3.763,-3.7964,-3.8032,-3.7911,-3.7524,-3.7808,-3.8032,-3.8032,-3.7703,-3.7791,-3.8627,-3.8546,-3.8515,-3.8676,-3.8627,-3.8596,-3.8707,-3.8707,-3.8707,-3.8707,-3.8707,-3.9093,-3.9882,-4.0708,-4.1515,-4.2304,-4.3112,-4.3497,-4.3497,-4.3497,-4.3497,-4.3497,-4.3497,-4.4397,-4.5902,-4.5902,-4.6856,-4.8306,-4.8306,-4.8306,-4.8306,-4.8306,-4.8306,-4.8306,-3.3499,-3.3769,-3.4008,-3.4008,-3.4562,-3.513,-3.5459,-3.5519,-3.5639,-3.5968,-3.6013,-3.6133,-3.6462,-3.6776,-3.6836,-3.6522,-3.6791,-3.6701,-3.6058,-3.6345,-3.642,-3.6006,-3.6753,-3.716,-3.716,-3.7905,-3.8541,-3.8887,-3.9332,-3.9731,-4.007,-4.007,0.0,0.0,0.0,-4.007,-4.007,-4.007,-4.007,-4.007,-4.007,-4.007,-4.007,-4.007,-4.007,-4.007,-4.007,-4.007,-4.007,-4.007,-4.007,-4.007,-4.007,-4.007,-4.007,-4.007,-4.007,-4.007,-4.007,-4.007,-4.007,-4.007,-4.007,-4.007,-4.007,-4.007,-4.007,-4.007,-3.98,-3.937,-3.8743,-3.8152,-3.7727,-3.7577,-3.7755,-3.772,-3.7266,-3.7396,-3.7542,-3.7542,-3.7323,-3.7414,-3.7861,-3.815,-3.83,-3.83,-3.83,-3.8183,-3.7929,-3.815,-3.83,-3.83,-3.83,-3.8798,-3.9882,-4.0708,-4.1515,-4.2304,-4.3112,-4.3497,-4.3497,-4.3497,-4.3497,-4.3497,-4.3497,-4.4397,-4.5957,-4.6801,-4.7609,-4.8306,-4.8306,-4.8306,-4.8306,-4.8306,-4.8306,-4.8306,-3.3918,-3.4337,-3.4741,-3.4876,-3.5355,-3.5923,-3.6582,-3.6686,-3.6686,-3.6686,-3.6686,-3.6866,-3.736,-3.7539,-3.7569,-3.7419,-3.7539,-3.7345,-3.6731,-3.6552,-3.6252,-3.5744,-3.5759,-3.5718,-3.5718,-3.6935,-3.7632,-3.7822,-3.8995,-3.9595,-3.9615,-3.9952,-4.007,-4.007,-4.007,-4.007,-4.007,-4.007,-4.007,-4.007,-4.007,-4.007,-4.007,-4.007,-4.007,-4.007,-4.007,-4.007,-4.007,-4.007,-4.007,-4.007,-4.007,-4.007,-4.007,-4.007,-4.007,-4.007,-4.007,-4.007,-4.007,-4.007,-4.007,-4.007,-4.007,-4.007,-4.007,-4.007,-3.9952,-3.9608,-3.8777,-3.8258,-3.7817,-3.7276,-3.7415,-3.7452,-3.7058,-3.7038,-3.7038,-3.7038,-3.7152,-3.719,-3.719,-3.7738,-3.798,-3.7755,-3.7825,-3.772,-3.736,-3.7685,-3.7893,-3.7893,-3.8013,-3.8682,-3.9882,-4.0708,-4.1515,-4.2304,-4.3112,-4.3497,-4.3497,-4.3497,-4.3497,-4.3497,-4.3681,-4.4672,-4.6269,-4.7719,-4.8306,-4.8306,-4.8306,-4.8306,-4.8306,-4.8306,-4.8306,-4.8306,-3.531,-3.537,-3.5594,-3.6193,-3.6357,-3.6611,-3.7225,-3.733,-3.733,-3.733,-3.733,-3.7345,-3.7404,-3.7943,-3.8063,-3.7464,-3.7958,-3.8018,-3.736,-3.6791,-3.6462,-3.6402,-3.6423,-3.6492,-3.6492,-3.6615,-3.7084,-3.7822,-3.7921,-3.7994,-3.8038,-3.948,-4.007,-4.007,-4.007,-4.007,-4.007,-4.007,-4.007,-4.007,-4.007,-4.007,-4.007,-4.007,-4.007,-4.007,-4.007,-4.007,-4.007,-4.007,-4.007,-4.007,-4.007,-4.007,-4.007,-4.007,-4.007,-4.007,-4.007,-4.007,-4.007,-4.007,-4.007,-4.007,-4.007,-4.007,-4.007,-4.007,-3.9546,-3.8996,-3.8674,-3.77,-3.7006,-3.7161,-3.6843,-3.6539,-3.6498,-3.6457,-3.6457,-3.6457,-3.6921,-3.719,-3.719,-3.805,-3.8252,-3.7323,-3.7649,-3.7859,-3.7825,-3.7859,-3.7893,-3.7893,-3.8382,-3.9043,-3.9882,-4.0708,-4.1515,-4.2304,-4.3112,-4.3497,-4.3497,-4.3497,-4.3497,-4.3534,-4.4268,-4.5516,-4.7076,-4.7957,-4.8306,-4.8306,-4.8306,-4.8306,-4.8306,-4.8306,-4.8306,-4.8306,-3.6641,-3.6641,-3.6731,-3.6985,-3.7045,-3.7255,-3.7898,-3.8003,-3.8138,-3.8556,-3.8257,-3.8153,-3.8571,-3.8856,-3.8901,-3.8631,-3.8856,-3.8721,-3.8033,-3.7764,-3.7285,-3.6522,-3.6522,-3.6353,-3.5958,-3.6384,-3.6737,-3.7084,-3.8019,-3.8433,-3.8496,-3.9596,-4.007,-4.007,-4.007,-4.007,-4.007,-4.007,-4.007,-4.007,-4.007,-4.007,-4.007,-4.007,-4.007,-4.007,-4.007,-4.007,-4.007,-4.007,-4.007,-4.007,-4.007,-4.007,-4.007,-4.007,-4.007,-4.007,-4.007,-4.007,-4.007,-4.007,-4.007,-4.007,-4.007,-4.007,-4.007,-4.007,-3.9851,-3.951,-3.8952,-3.8322,-3.7703,-3.7077,-3.6644,-3.6308,-3.5985,-3.5941,-3.5941,-3.5941,-3.6097,-3.6249,-3.6249,-3.7173,-3.7487,-3.6764,-3.7738,-3.8117,-3.7506,-3.7755,-3.7893,-3.7893,-3.8099,-3.9002,-4.0616,-4.0946,-4.1754,-4.302,-4.3332,-4.3497,-4.3497,-4.3497,-4.3754,-4.4268,-4.5076,-4.6067,-4.7186,-4.7976,-4.8306,-4.8306,-4.8306,-4.8306,-4.8306,-4.8306,-4.8306,-4.8306,-3.7404,-3.7404,-3.7464,-3.7659,-3.7704,-3.7913,-3.8586,-3.8691,-3.8871,-3.9349,-3.899,-3.8871,-3.9364,-3.9424,-3.9424,-3.9424,-3.9424,-3.9215,-3.8721,-3.8497,-3.7898,-3.6806,-3.6582,-3.6178,-3.5519,-3.6006,-3.6275,-3.6275,-3.7584,-3.8116,-3.7906,-3.8947,-3.9529,-3.9782,-4.0003,-4.007,-4.007,-4.007,-4.007,-4.007,-4.007,-4.007,-4.007,-4.007,-4.007,-4.007,-4.007,-4.007,-4.007,-4.007,-4.007,-4.007,-4.007,-4.007,-4.007,-4.007,-4.007,-4.007,-4.007,-4.007,-4.007,-4.007,-4.007,-4.007,-4.007,-4.007,-4.007,-4.007,-4.007,-3.9851,-3.9123,-3.8662,-3.8105,-3.7177,-3.6524,-3.6097,-3.5854,-3.5694,-3.5622,-3.5622,-3.5739,-3.5783,-3.5622,-3.6563,-3.6999,-3.6457,-3.756,-3.7861,-3.702,-3.7433,-3.7685,-3.7685,-3.8059,-3.9182,-4.106,-4.135,-4.2139,-4.3497,-4.3497,-4.3497,-4.3497,-4.3497,-4.4066,-4.5094,-4.5645,-4.6489,-4.7517,-4.8086,-4.8306,-4.8306,-4.8306,-4.8306,-4.8306,-4.8306,-4.8306,-4.8306,-3.7404,-3.7404,-3.7614,-3.8257,-3.8377,-3.8601,-3.9305,-3.9409,-3.9409,-3.9424,-3.9409,-3.9409,-3.9424,-3.9424,-3.9424,-3.9424,-3.9424,-3.9424,-3.9409,-3.8766,-3.8093,-3.7419,-3.6806,-3.6178,-3.5519,-3.5504,-3.5504,-3.5504,-3.6275,-3.6274,-3.5564,-3.7083,-3.8249,-3.8962,-3.9731,-4.007,-4.007,-4.007,-4.007,-4.007,-4.007,-4.007,-4.007,-4.007,-4.007,-4.007,-4.007,-4.007,-4.007,-4.007,-4.007,-4.007,-4.007,-4.007,-4.007,-4.007,-4.007,-4.007,-4.007,-4.007,-4.007,-4.007,-4.007,-4.007,-4.007,-4.007,-4.007,-4.007,-4.007,-3.9851,-3.9123,-3.8396,-3.7806,-3.7551,-3.642,-3.5783,-3.6308,-3.5941,-3.5622,-3.5622,-3.6054,-3.6182,-3.5667,-3.6563,-3.6999,-3.6457,-3.6921,-3.6981,-3.6416,-3.6921,-3.7228,-3.7228,-3.8438,-3.9726,-4.1079,-4.1901,-4.269,-4.3497,-4.3497,-4.3497,-4.3497,-4.3497,-4.436,-4.5883,-4.5902,-4.6819,-4.8306,-4.8306,-4.8306,-4.8306,-4.8306,-4.8306,-4.8306,-4.8306,-4.8306,-4.8306,-3.8781,-3.8781,-3.8841,-3.905,-3.9095,-3.917,-3.9394,-3.9424,-3.9424,-3.9424,-3.9424,-3.9424,-3.9424,-3.9424,-3.9424,-3.9424,-3.9424,-3.9424,-3.9424,-3.9215,-3.8586,-3.7464,-3.7225,-3.6611,-3.5534,-3.5504,-3.5504,-3.5504,-3.6228,-3.6734,-3.7065,-3.7584,-3.7939,-3.8189,-3.8924,-3.9262,-3.9315,-3.985,-4.007,-4.007,-4.007,-4.007,-4.007,-4.007,-4.007,-4.007,-4.007,-4.007,-4.007,-4.007,-4.007,-4.007,-4.007,-4.007,-4.007,-4.007,-4.007,-4.007,-4.007,-4.007,-4.007,-4.007,-4.007,-4.007,-4.007,-4.007,-4.007,-4.007,-4.007,-4.0003,-3.9766,-3.8734,-3.7868,-3.7784,-3.6525,-3.565,-3.581,-3.5694,-3.5622,-3.5622,-3.5739,-3.5783,-3.5622,-3.6249,-3.6563,-3.6416,-3.7193,-3.747,-3.6981,-3.7114,-3.719,-3.719,-3.8438,-3.9569,-4.0562,-4.1729,-4.269,-4.3497,-4.3497,-4.3497,-4.3516,-4.4066,-4.4911,-4.592,-4.6489,-4.7333,-4.8306,-4.8306,-4.8306,-4.8306,-4.8306,-4.8306,-4.8306,-4.8306,-4.8306,-4.8306,-3.9424,-3.9424,-3.9424,-3.9424,-3.9424,-3.9424,-3.9424,-3.9424,-3.9424,-3.9424,-3.9424,-3.9424,-3.9424,-3.9424,-3.9424,-3.9424,-3.9424,-3.9424,-3.9424,-3.9424,-3.8931,-3.7823,-3.7539,-3.6926,-3.5893,-3.5624,-3.5504,-3.5504,-3.5943,-3.6461,-3.6951,-3.7219,-3.7338,-3.7381,-3.8469,-3.8908,-3.8962,-3.9782,-4.007,-4.007,-4.007,-4.007,-4.007,-4.007,-4.007,-4.007,-4.007,-4.007,-4.007,-4.007,-4.007,-4.007,-4.007,-4.007,-4.007,-4.007,-4.007,-4.007,-4.007,-4.007,-4.007,-4.007,-4.007,-4.007,-4.007,-4.007,-4.007,-4.007,-4.007,-4.007,-4.007,-3.9106,-3.8227,-3.7956,-3.6874,-3.596,-3.5656,-3.5622,-3.5622,-3.5622,-3.5622,-3.5622,-3.5622,-3.5898,-3.6097,-3.6097,-3.6689,-3.6925,-3.6626,-3.6981,-3.7238,-3.7286,-3.8362,-3.9528,-4.069,-4.1851,-4.2792,-4.3497,-4.3497,-4.3497,-4.3516,-4.4342,-4.5149,-4.5938,-4.6764,-4.7572,-4.8306,-4.8306,-4.8306,-4.8306,-4.8306,-4.8306,-4.8306,-4.8306,-4.8306,-4.8306,-3.9424,-3.9424,-3.9424,-3.9424,-3.9424,-3.9424,-3.9424,-3.9424,-3.9424,-3.9424,-3.9424,-3.9424,-3.9424,-3.9424,-3.9424,-3.9424,-3.9424,-3.9424,-3.9424,-3.9424,-3.911,-3.8422,-3.7764,-3.712,-3.6492,-3.5833,-3.5504,-3.5504,-3.5504,-3.5504,-3.5504,-3.6228,-3.6492,-3.6615,-3.8117,-3.8799,-3.8854,-3.9731,-4.007,-4.007,-4.007,-4.007,-4.007,-4.007,-4.007,-4.007,-4.007,-4.007,-4.007,-4.007,-4.007,-4.007,-4.007,-4.007,-4.007,-4.007,-4.007,-4.007,-4.007,-4.007,-4.007,-4.007,-4.007,-4.007,-4.007,-4.007,-4.007,-4.007,-4.007,-4.007,-4.007,-3.9478,-3.8751,-3.8024,-3.728,-3.6502,-3.5723,-3.5622,-3.5622,-3.5622,-3.5622,-3.5622,-3.5622,-3.5622,-3.5622,-3.565,-3.5701,-3.5735,-3.5735,-3.6725,-3.7321,-3.7439,-3.8304,-3.9592,-4.1337,-4.224,-4.2976,-4.3497,-4.3497,-4.3497,-4.3516,-4.4397,-4.5186,-4.5957,-4.6819,-4.7627,-4.8306,-4.8306,-4.8306,-4.8306,-4.8306,-4.8306,-4.8306,-4.8306,-4.8306,-4.8306,-3.9424,-3.9424,-3.9424,-3.9424,-3.9424,-3.9424,-3.9424,-3.9424,-3.9424,-3.9424,-3.9424,-3.9424,-3.9424,-3.9424,-3.9424,-3.9424,-3.9424,-3.9424,-3.9424,-3.9424,-3.911,-3.8422,-3.7764,-3.712,-3.6492,-3.5833,-3.5504,-3.5504,-3.5504,-3.5504,-3.5504,-3.5668,-3.5782,-3.5846,-3.7397,-3.8035,-3.8149,-3.9506,-4.007,-4.007,-4.007,-4.007,-4.007,-4.007,-4.007,-4.007,-4.007,-4.007,-4.007,-4.007,-4.007,-4.007,-4.007,-4.007,-4.007,-4.007,-4.007,-4.007,-4.007,-4.007,-4.007,-4.007,-4.007,-4.007,-4.007,-4.007,-4.007,-4.007,-4.007,-4.007,-4.007,-3.9478,-3.8751,-3.8024,-3.728,-3.6502,-3.5723,-3.5622,-3.5622,-3.5622,-3.5622,-3.5622,-3.5622,-3.5622,-3.5783,-3.6182,-3.6741,-3.7068,-3.7068,-3.7845,-3.7871,-3.6985,-3.8636,-3.9983,-4.0869,-4.2085,-4.2976,-4.3497,-4.3497,-4.3497,-4.3534,-4.4966,-4.5718,-4.5975,-4.7407,-4.8122,-4.8306,-4.8306,-4.8306,-4.8306,-4.8306,-4.8306,-4.8306,-4.8306,-4.8306,-4.8306,-3.9265,-3.9424,-3.9424,-3.9424,-3.9424,-3.9424,-3.9424,-3.9424,-3.9424,-3.9424,-3.9424,-3.9424,-3.9424,-3.9424,-3.9424,-3.9424,-3.9424,-3.9424,-3.9424,-3.9424,-3.9245,-3.8871,-3.7928,-3.7255,-3.6911,-3.5983,-3.5504,-3.5504,-3.5504,-3.5504,-3.5504,-3.5504,-3.5504,-3.5554,-3.6707,-3.7456,-3.7863,-3.9049,-3.9782,-4.007,-4.007,-4.007,-4.007,-4.007,-4.007,-4.007,-4.007,-4.007,-4.007,-4.007,-4.007,-4.007,-4.007,-4.007,-4.007,-4.007,-4.007,-4.007,-4.007,-4.007,-4.007,-4.007,-4.007,-4.007,-4.007,-4.007,-4.007,-4.007,-4.007,-4.007,-4.007,-3.9749,-3.9242,-3.8514,-3.8058,-3.7533,-3.6772,-3.6671,-3.6671,-3.6671,-3.6671,-3.6671,-3.6671,-3.6671,-3.6791,-3.7072,-3.7449,-3.7672,-3.7672,-3.8374,-3.8474,-3.7851,-3.8849,-3.9876,-4.0753,-4.2087,-4.2864,-4.3124,-4.3124,-4.3324,-4.367,-4.4639,-4.5439,-4.613,-4.735,-4.8035,-4.8306,-4.8306,-4.8306,-4.8306,-4.8306,-4.8306,-4.8306,-4.8306,-4.8306,-4.8306,-3.8943,-3.9265,-3.9424,-3.9424,-3.9424,-3.9424,-3.9424,-3.9424,-3.9424,-3.9424,-3.9424,-3.9424,-3.9424,-3.9424,-3.9424,-3.9424,-3.9424,-3.9424,-3.9424,-3.9424,-3.9424,-3.9424,-3.8138,-3.7404,-3.7404,-3.6163,-3.5504,-3.5504,-3.5504,-3.5504,-3.5504,-3.5504,-3.5504,-3.5504,-3.6275,-3.6964,-3.769,-3.8525,-3.9315,-3.9952,-4.007,-4.007,-4.007,-4.007,-4.007,-4.007,-4.007,-4.007,-4.007,-4.007,-4.007,-4.007,-4.007,-4.007,-4.007,-4.007,-4.007,-4.007,-4.007,-4.007,-4.007,-4.007,-4.007,-4.007,-4.007,-4.007,-4.007,-4.007,-4.007,-4.007,-4.007,-4.007,-3.9834,-3.9106,-3.8988,-3.8734,-3.8007,-3.7905,-3.7905,-3.7905,-3.7905,-3.7905,-3.7905,-3.7905,-3.7905,-3.7905,-3.8007,-3.8075,-3.8075,-3.8768,-3.9157,-3.9157,-3.9157,-3.9737,-4.0903,-4.1997,-4.2559,-4.2559,-4.2559,-4.2933,-4.3665,-4.3995,-4.4866,-4.6266,-4.7042,-4.7756,-4.8306,-4.8306,-4.8306,-4.8306,-4.8306,-4.8306,-4.8306,-4.821,-4.8172,-4.8172,-3.7994,-3.8782,-3.9424,-3.9424,-3.9424,-3.9424,-3.9424,-3.9424,-3.9424,-3.9424,-3.9424,-3.9424,-3.9424,-3.9424,-3.9424,-3.9424,-3.9424,-3.9424,-3.9424,-3.9424,-3.9424,-3.9424,-3.8138,-3.7404,-3.7404,-3.6163,-3.5504,-3.5504,-3.5504,-3.5504,-3.5504,-3.5504,-3.5504,-3.5504,-3.6275,-3.6676,-3.6904,-3.8286,-3.8962,-3.9139,-3.985,-4.007,-4.007,-4.007,-4.007,-4.007,-4.007,-4.007,-4.007,-4.007,-4.007,-4.007,-4.007,-4.007,-4.007,-4.007,-4.007,-4.007,-4.007,-4.007,-4.007,-4.007,-4.007,-4.007,-4.007,-4.007,-4.007,-4.007,-4.007,-4.007,-4.007,-4.007,-3.9834,-3.9106,-3.8988,-3.8734,-3.8007,-3.7905,-3.7905,-3.7905,-3.7905,-3.7905,-3.7905,-3.7905,-3.7905,-3.7905,-3.8481,-3.8819,-3.8819,-3.9512,-3.9918,-3.9918,-3.9918,-4.0248,-4.0903,-4.1578,-4.1937,-4.1937,-4.1937,-4.2346,-4.3048,-4.3758,-4.4866,-4.6266,-4.7042,-4.7756,-4.8306,-4.8306,-4.8306,-4.8306,-4.8306,-4.8306,-4.8229,-4.7715,-4.753,-4.747,-3.7601,-3.8234,-3.8708,-3.9265,-3.9424,-3.9424,-3.9424,-3.9424,-3.9424,-3.9424,-3.9424,-3.9424,-3.9424,-3.9424,-3.9424,-3.9424,-3.9424,-3.9424,-3.9424,-3.9424,-3.9424,-3.9424,-3.8467,-3.7614,-3.6926,-3.5983,-3.5504,-3.5504,-3.5504,-3.5504,-3.5504,-3.5504,-3.5504,-3.5504,-3.5831,-3.6228,-3.6661,-3.735,-3.8157,-3.8908,-3.9315,-3.9714,-4.007,-4.007,-4.007,-4.007,-4.007,-4.007,-4.007,-4.007,-4.007,-4.007,-4.007,-4.007,-4.007,-4.007,-4.007,-4.007,-4.007,-4.007,-4.007,-4.007,-4.007,-4.007,-4.007,-4.007,-4.007,-4.007,-4.007,-4.007,-4.007,-4.007,-3.9969,-3.9631,-3.958,-3.9462,-3.9123,-3.9073,-3.9073,-3.9073,-3.9073,-3.9073,-3.9073,-3.9073,-3.9073,-3.9073,-3.9394,-3.958,-3.958,-3.9901,-4.007,-4.007,-4.007,-4.0204,-4.0449,-4.1059,-4.1313,-4.1313,-4.1768,-4.2334,-4.3086,-4.3516,-4.4655,-4.6347,-4.6704,-4.7409,-4.8306,-4.8306,-4.8132,-4.7816,-4.7816,-4.7596,-4.7219,-4.6937,-4.6864,-4.6819,-3.6802,-3.7434,-3.8069,-3.887,-3.9265,-3.9424,-3.9424,-3.9424,-3.9424,-3.9424,-3.9424,-3.9424,-3.9424,-3.9424,-3.9424,-3.9424,-3.9424,-3.9424,-3.9424,-3.9424,-3.9424,-3.9424,-3.8616,-3.7629,-3.6507,-3.5833,-3.5504,-3.5504,-3.5504,-3.5504,-3.5504,-3.5504,-3.5504,-3.5504,-3.5504,-3.5831,-3.6337,-3.6554,-3.7291,-3.8398,-3.8745,-3.9262,-3.9833,-3.9833,-3.9952,-4.007,-3.9901,-3.9952,-4.007,-4.007,-4.007,-4.007,-4.007,-4.007,-4.007,-4.007,-4.007,-4.007,-4.007,-4.007,-4.007,-4.007,-4.007,-4.007,-4.007,-4.007,-4.007,-4.007,-4.007,-4.007,-4.007,-4.007,-4.007,-4.007,-4.007,-4.007,-4.007,-4.007,-4.007,-4.007,-4.007,-4.007,-4.007,-4.007,-4.007,-4.007,-4.007,-4.007,-4.007,-4.007,-4.007,-4.007,-4.007,-4.007,-4.007,-4.0497,-4.0685,-4.0703,-4.1512,-4.2287,-4.2978,-4.3263,-4.4439,-4.6192,-4.6192,-4.6801,-4.7879,-4.7879,-4.7614,-4.715,-4.715,-4.6847,-4.6383,-4.624,-4.6192,-4.6143,-3.491,-3.6489,-3.7829,-3.7904,-3.8708,-3.9424,-3.9424,-3.9424,-3.9424,-3.9424,-3.9424,-3.9424,-3.9424,-3.9424,-3.9424,-3.9424,-3.9424,-3.9424,-3.9424,-3.9424,-3.9424,-3.9424,-3.8167,-3.7165,-3.6492,-3.5833,-3.5504,-3.5504,-3.5504,-3.5504,-3.5504,-3.5504,-3.5504,-3.5504,-3.5504,-3.5504,-3.5619,-3.6337,-3.6676,-3.6888,-3.8325,-3.8908,-3.8962,-3.8962,-3.9437,-4.002,-3.9262,-3.9489,-4.007,-4.007,-4.007,-4.007,-4.007,-4.007,-4.007,-4.007,-4.007,-4.007,-4.007,-4.007,-4.007,-4.007,-4.007,-4.007,-4.007,-4.007,-4.007,-4.007,-4.007,-4.007,-4.007,-4.007,-4.007,-4.007,-4.007,-4.007,-4.007,-4.007,-4.007,-4.007,-4.007,-4.007,-4.007,-4.007,-4.007,-4.007,-4.007,-4.007,-4.007,-4.007,-4.007,-4.007,-4.007,-4.007,-4.007,-4.0121,-4.0171,-4.0171,-4.0934,-4.1628,-4.2356,-4.3064,-4.4209,-4.5545,-4.5545,-4.5915,-4.6524,-4.6524,-4.6524,-4.6478,-4.6478,-4.643,-4.6336,-4.5783,-4.5545,-4.5511,-3.4594,-3.5305,-3.6253,-3.7601,-3.8144,-3.862,-3.9265,-3.9424,-3.9424,-3.9424,-3.9424,-3.9424,-3.9424,-3.9424,-3.9424,-3.9424,-3.9424,-3.9424,-3.9424,-3.9424,-3.9424,-3.9424,-3.8138,-3.73,-3.706,-3.6028,-3.5504,-3.5504,-3.5504,-3.5504,-3.5504,-3.5504,-3.5504,-3.5504,-3.5504,-3.5504,-3.5504,-3.5782,-3.6165,-3.6661,-3.7247,-3.7774,-3.8189,-3.8189,-3.843,-3.8596,-3.8318,-3.8707,-3.9368,-3.9368,-3.9662,-4.007,-4.007,-4.007,-4.007,-4.007,-4.007,-4.007,-4.007,-4.007,-4.007,-4.007,-4.007,-4.007,-4.007,-4.007,-4.007,-4.007,-4.007,-4.007,-4.007,-4.007,-4.007,-4.007,-4.007,-4.007,-4.007,-4.007,-4.007,-4.007,-4.007,-4.007,-4.007,-4.007,-4.007,-4.007,-4.007,-4.007,-4.007,-4.007,-4.007,-4.007,-4.007,-4.007,-4.007,-4.007,-4.007,-4.0087,-4.1305,-4.2016,-4.2337,-4.3572,-4.4616,-4.5511,-4.5511,-4.5815,-4.6383,-4.6383,-4.6192,-4.5815,-4.5815,-4.5597,-4.5284,-4.5052,-4.4961,-4.4906,-3.4037,-3.4511,-3.5142,-3.6568,-3.7357,-3.8069,-3.8782,-3.9177,-3.9424,-3.9424,-3.9424,-3.9424,-3.9424,-3.9424,-3.9424,-3.9424,-3.9424,-3.9424,-3.9424,-3.9424,-3.9424,-3.9424,-3.8138,-3.7404,-3.7404,-3.6163,-3.5504,-3.5504,-3.5504,-3.5504,-3.5504,-3.5504,-3.5504,-3.5504,-3.5504,-3.5504,-3.5504,-3.5504,-3.5782,-3.6275,-3.6492,-3.6904,-3.7456,-3.7456,-3.7573,-3.7764,-3.7515,-3.7905,-3.858,-3.8799,-3.9262,-3.9782,-4.002,-4.007,-4.007,-4.007,-4.007,-4.007,-4.007,-4.007,-4.007,-4.007,-4.007,-4.007,-4.007,-4.007,-4.007,-4.007,-4.007,-4.007,-4.007,-4.007,-4.007,-4.007,-4.007,-4.007,-4.007,-4.007,-4.007,-4.007,-4.007,-4.007,-4.007,-4.007,-4.007,-4.007,-4.007,-4.007,-4.007,-4.007,-4.007,-4.007,-4.007,-4.007,-4.007,-4.007,-4.0206,-4.0443,-4.1694,-4.2422,-4.2692,-4.3978,-4.4814,-4.5232,-4.5232,-4.5459,-4.5815,-4.5815,-4.5597,-4.5232,-4.5232,-4.4944,-4.4587,-4.4587,-4.4587,-4.4587,-3.3081,-3.3953,-3.4664,-3.4664,-3.6411,-3.7753,-3.7829,-3.8708,-3.9424,-3.9424,-3.9424,-3.9424,-3.9424,-3.9424,-3.9424,-3.9424,-3.9424,-3.9424,-3.9424,-3.9424,-3.9424,-3.9424,-3.8138,-3.7404,-3.7404,-3.6163,-3.5504,-3.5504,-3.5504,-3.5504,-3.5504,-3.5504,-3.5504,-3.5504,-3.5504,-3.5504,-3.5504,-3.5504,-3.5504,-3.5554,-3.6275,-3.66,-3.66,-3.66,-3.71,-3.7706,-3.6843,-3.7084,-3.7921,-3.8635,-3.8908,-3.9032,-3.985,-4.007,-4.007,-4.007,-4.007,-4.007,-4.007,-4.007,-4.007,-4.007,-4.007,-4.007,-4.007,-4.007,-4.007,-4.007,-4.007,-4.007,-4.007,-4.007,-4.007,-4.007,-4.007,-4.007,-4.007,-4.007,-4.007,-4.007,-4.007,-4.007,-4.007,-4.007,-4.007,-4.007,-4.007,-4.007,-4.007,-4.007,-4.007,-4.007,-4.007,-4.007,-4.007,-4.007,-4.046,-4.1221,-4.1948,-4.2692,-4.3453,-4.4215,-4.4587,-4.4587,-4.4587,-4.4587,-4.4587,-4.4587,-4.4587,-4.4587,-4.4587,-4.4587,-4.4587,-4.4587,-4.4587,-4.4587,-3.3081,-3.3398,-3.3797,-3.4594,-3.5842,-3.693,-3.7677,-3.8708,-3.9424,-3.9424,-3.9424,-3.9424,-3.9424,-3.9424,-3.9424,-3.9424,-3.9424,-3.9424,-3.9424,-3.9424,-3.9424,-3.9424,-3.8138,-3.7404,-3.7404,-3.6163,-3.5504,-3.5504,-3.5504,-3.5504,-3.5504,-3.5504,-3.5504,-3.5504,-3.5504,-3.5504,-3.5504,-3.5504,-3.5504,-3.5504,-3.5718,-3.5831,-3.5831,-3.5831,-3.5958,-3.6133,-3.5894,-3.629,-3.7084,-3.7847,-3.8469,-3.9032,-3.985,-4.007,-4.007,-4.007,-4.007,-4.007,-4.007,-4.007,-4.007,-4.007,-4.007,-4.007,-4.007,-4.007,-4.007,-4.007,-4.007,-4.007,-4.007,-4.007,-4.007,-4.007,-4.007,-4.007,-4.007,-4.007,-4.007,-4.007,-4.007,-4.007,-4.007,-4.007,-4.007,-4.007,-4.007,-4.007,-4.007,-4.007,-4.007,-4.007,-4.007,-4.007,-4.007,-4.007,-4.046,-4.1221,-4.1948,-4.2692,-4.3453,-4.4215,-4.4587,-4.4587,-4.4587,-4.4587,-4.4587,-4.4587,-4.4587,-4.4587,-4.4587,-4.4587,-4.4587,-4.4587,-4.4587,-4.4587,-3.3081,-3.3081,-3.3313,-3.3953,-3.4884,-3.5987,-3.7021,-3.8069,-3.8943,-3.9337,-3.9424,-3.9424,-3.9424,-3.9424,-3.9424,-3.9424,-3.9424,-3.9424,-3.9424,-3.9424,-3.9424,-3.9424,-3.8377,-3.7674,-3.7419,-3.6417,-3.5774,-3.5504,-3.5504,-3.5504,-3.5504,-3.5504,-3.5504,-3.5504,-3.5504,-3.5504,-3.5504,-3.5504,-3.5504,-3.5504,-3.5504,-3.5504,-3.5504,-3.5504,-3.5504,-3.5504,-3.5504,-3.5782,-3.6275,-3.704,-3.8003,-3.9032,-3.985,-4.007,-4.007,-4.007,-4.007,-4.007,-4.007,-4.007,-4.007,-4.007,-4.007,-4.007,-4.007,-4.007,-4.007,-4.007,-4.007,-4.007,-4.007,-4.007,-4.007,-4.007,-4.007,-4.007,-4.007,-4.007,-4.007,-4.007,-4.007,-4.007,-4.007,-4.007,-4.007,-4.007,-4.007,-4.007,-4.007,-4.007,-4.007,-4.007,-4.007,-4.0223,-4.0527,-4.0527,-4.0899,-4.1644,-4.2388,-4.3149,-4.3893,-4.4367,-4.4587,-4.4587,-4.4587,-4.4587,-4.4587,-4.4587,-4.4587,-4.4587,-4.4587,-4.4587,-4.4587,-4.4587,-4.4587,-4.4587,-3.3081,-3.3081,-3.3081,-3.3081,-3.3953,-3.4979,-3.5894,-3.6944,-3.7994,-3.9017,-3.9177,-3.9265,-3.9265,-3.9337,-3.9424,-3.9424,-3.9424,-3.9424,-3.9424,-3.9424,-3.9424,-3.9424,-3.8811,-3.8182,-3.7509,-3.6836,-3.6193,-3.5594,-3.5534,-3.5504,-3.5504,-3.5504,-3.5504,-3.5504,-3.5504,-3.5504,-3.5504,-3.5504,-3.5504,-3.5504,-3.5504,-3.5504,-3.5504,-3.5504,-3.5504,-3.5504,-3.5504,-3.5504,-3.5619,-3.6322,-3.7584,-3.8908,-3.9731,-4.0003,-4.002,-4.007,-4.007,-4.007,-4.007,-4.007,-4.007,-4.007,-4.007,-4.007,-4.007,-4.007,-4.007,-4.007,-4.007,-4.007,-4.007,-4.007,-4.007,-4.007,-4.007,-4.007,-4.007,-4.007,-4.007,-4.007,-4.007,-4.007,-4.007,-4.007,-4.007,-4.007,-4.007,-4.007,-4.007,-4.007,-4.007,-4.007,-4.0138,-4.051,-4.1204,-4.1339,-4.1728,-4.2405,-4.3098,-4.3826,-4.4587,-4.4587,-4.4587,-4.4587,-4.4587,-4.4587,-4.4587,-4.4587,-4.4587,-4.4587,-4.4587,-4.4587,-4.4587,-4.4587,-4.4587,-4.4587,-3.3081,-3.3081,-3.3081,-3.3081,-3.3953,-3.4746,-3.4979,-3.5908,-3.6604,-3.6838,-3.7663,-3.8144,-3.8144,-3.887,-3.9424,-3.9424,-3.9424,-3.9424,-3.9424,-3.9424,-3.9424,-3.9424,-3.9275,-3.8871,-3.8197,-3.7075,-3.6417,-3.6267,-3.5759,-3.5504,-3.5504,-3.5504,-3.5504,-3.5504,-3.5504,-3.5504,-3.5504,-3.5504,-3.5504,-3.5504,-3.5504,-3.5504,-3.5504,-3.5504,-3.5504,-3.5504,-3.5504,-3.5504,-3.5619,-3.6322,-3.7263,-3.8149,-3.8924,-3.9139,-3.9262,-3.9901,-4.007,-4.007,-4.007,-4.007,-4.007,-4.007,-4.007,-4.007,-4.007,-4.007,-4.007,-4.007,-4.007,-4.007,-4.007,-4.007,-4.007,-4.007,-4.007,-4.007,-4.007,-4.007,-4.007,-4.007,-4.007,-4.007,-4.007,-4.007,-4.007,-4.007,-4.007,-4.007,-4.007,-4.007,-4.007,-4.007,-4.0646,-4.1035,-4.1204,-4.2371,-4.3014,-4.3166,-4.3335,-4.3826,-4.4587,-4.4587,-4.4587,-4.4587,-4.4587,-4.4587,-4.4587,-4.4587,-4.4587,-4.4587,-4.4587,-4.4587,-4.4587,-4.4587,-4.4587,-4.4587,-3.3081,-3.3081,-3.3081,-3.3081,-3.3556,-3.4108,-3.4581,-3.5129,-3.5668,-3.6132,-3.6682,-3.7252,-3.7753,-3.8308,-3.8855,-3.9337,-3.9424,-3.9424,-3.9424,-3.9424,-3.9424,-3.9424,-3.9424,-3.9245,-3.8886,-3.7898,-3.709,-3.6492,-3.6148,-3.5804,-3.5504,-3.5504,-3.5504,-3.5504,-3.5504,-3.5504,-3.5504,-3.5504,-3.5504,-3.5504,-3.5504,-3.5504,-3.5504,-3.5504,-3.5504,-3.5504,-3.5504,-3.5504,-3.5619,-3.6322,-3.6843,-3.744,-3.8564,-3.8908,-3.9086,-3.9833,-4.007,-4.007,-4.007,-4.007,-4.007,-4.007,-4.007,-4.007,-4.007,-4.007,-4.007,-4.007,-4.007,-4.007,-4.007,-4.007,-4.007,-4.007,-4.007,-4.007,-4.007,-4.007,-4.007,-4.007,-4.007,-4.007,-4.007,-4.007,-4.007,-4.007,-4.007,-4.007,-4.007,-4.007,-4.024,-4.0595,-4.1001,-4.1542,-4.2252,-4.3031,-4.3606,-4.3978,-4.3978,-4.4181,-4.4587,-4.4587,-4.4587,-4.4587,-4.4587,-4.4587,-4.4587,-4.4587,-4.4587,-4.4587,-4.4587,-4.4587,-4.4587,-4.4587,-4.4587,-4.4587,-3.3081,-3.3081,-3.3081,-3.3081,-3.3081,-3.3398,-3.4275,-3.4428,-3.4733,-3.5574,-3.5814,-3.6304,-3.719,-3.7601,-3.8144,-3.9031,-3.9265,-3.9424,-3.9424,-3.9424,-3.9424,-3.9424,-3.9424,-3.9424,-3.9424,-3.8856,-3.7988,-3.6806,-3.6596,-3.6207,-3.5669,-3.5549,-3.5504,-3.5504,-3.5504,-3.5504,-3.5504,-3.5504,-3.5504,-3.5504,-3.5504,-3.5504,-3.5504,-3.5504,-3.5504,-3.5504,-3.5504,-3.5504,-3.5619,-3.6228,-3.6384,-3.6676,-3.8044,-3.8509,-3.8674,-3.9437,-3.9731,-3.9731,-3.985,-3.9901,-3.9952,-4.007,-4.007,-4.007,-4.007,-4.007,-4.007,-4.007,-4.007,-4.007,-4.007,-4.007,-4.007,-4.007,-4.007,-4.007,-4.007,-4.007,-4.007,-4.007,-4.007,-4.007,-4.007,-4.007,-4.007,-4.007,-4.007,-4.0138,-4.0257,-4.0273,-4.0612,-4.1373,-4.1508,-4.2168,-4.3403,-4.3555,-4.3944,-4.4587,-4.4587,-4.4587,-4.4587,-4.4587,-4.4587,-4.4587,-4.4587,-4.4587,-4.4587,-4.4587,-4.4587,-4.4587,-4.4587,-4.4587,-4.4587,-4.4587,-4.4587,-4.4587,-3.3081,-3.3081,-3.3081,-3.3081,-3.3081,-3.3154,-3.3326,-3.3313,-3.3398,-3.3471,-3.4345,-3.4979,-3.5061,-3.6724,-3.7829,-3.7994,-3.887,-3.9424,-3.9424,-3.9424,-3.9424,-3.9424,-3.9424,-3.9424,-3.9424,-3.9334,-3.8901,-3.8123,-3.703,-3.6432,-3.6342,-3.5774,-3.5504,-3.5504,-3.5504,-3.5504,-3.5504,-3.5504,-3.5504,-3.5504,-3.5504,-3.5504,-3.5504,-3.5504,-3.5504,-3.5504,-3.5504,-3.5504,-3.5504,-3.5619,-3.5668,-3.5782,-3.6615,-3.6888,-3.7068,-3.7847,-3.8092,-3.8262,-3.887,-3.9086,-3.9262,-3.9901,-4.007,-4.007,-4.007,-4.007,-4.007,-4.007,-4.007,-4.007,-4.007,-4.007,-4.007,-4.007,-4.007,-4.007,-4.007,-4.007,-4.007,-4.007,-4.007,-4.007,-4.007,-4.007,-4.007,-4.007,-4.007,-4.0358,-4.1018,-4.1052,-4.139,-4.2117,-4.2777,-4.3217,-4.342,-4.4079,-4.4468,-4.4587,-4.4587,-4.4587,-4.4587,-4.4587,-4.4587,-4.4587,-4.4587,-4.4587,-4.4587,-4.4587,-4.4587,-4.4587,-4.4587,-4.4587,-4.4587,-4.4587,-4.4587,-4.4587,-3.3081,-3.3081,-3.3081,-3.3081,-3.3081,-3.3081,-3.3081,-3.3081,-3.3081,-3.3081,-3.3471,-3.4037,-3.4664,-3.6001,-3.7175,-3.7753,-3.8234,-3.8782,-3.9337,-3.9424,-3.9424,-3.9424,-3.9424,-3.9424,-3.9424,-3.9424,-3.9275,-3.896,-3.8018,-3.736,-3.7,-3.6701,-3.6567,-3.6567,-3.6567,-3.6567,-3.6567,-3.6567,-3.6567,-3.6567,-3.6567,-3.6567,-3.6567,-3.6567,-3.6567,-3.6567,-3.6567,-3.6567,-3.6567,-3.6567,-3.6567,-3.6685,-3.7474,-3.7714,-3.7888,-3.8674,-3.893,-3.8974,-3.9311,-3.937,-3.9405,-3.9355,-3.9368,-3.938,-3.9415,-3.9437,-3.9558,-4.002,-4.007,-4.007,-4.007,-4.007,-4.007,-4.007,-4.007,-4.007,-4.007,-4.007,-4.007,-4.007,-4.007,-4.007,-4.007,-4.007,-4.007,-4.007,-4.046,-4.0849,-4.1187,-4.1593,-4.2151,-4.2895,-4.325,-4.3639,-4.4062,-4.4401,-4.4587,-4.4587,-4.4587,-4.4587,-4.4587,-4.4587,-4.4587,-4.4587,-4.4587,-4.4587,-4.4587,-4.4587,-4.4587,-4.4587,-4.4587,-4.4587,-4.4587,-4.4587,-4.4587,-4.4587]}]]